GEFSSE_850_meantemp_000.txt.gz
Temperature
21 21 21 21 20 20 19 19 18 18 16 16 17 17 17 17 17 17 17 17 17 17 17 17 17 17 17 17 17 17 17 17 17 18 17 17 17 17 17 17 17 17 17
22 22 22 22 21 21 20 19 19 18 18 17 17 17 17 16 16 16 17 17 17 17 17 17 17 17 17 17 17 17 17 17 17 17 17 18 17 17 17 17 17 17 17
22 22 22 22 22 21 21 20 20 19 18 18 17 17 17 17 16 16 16 17 17 17 17 17 16 16 17 17 17 17 17 17 17 17 17 17 17 17 17 17 17 17 17
22 22 22 22 22 21 21 21 20 20 19 18 17 17 17 17 16 16 16 16 17 17 17 16 16 16 17 17 17 17 17 17 17 17 17 17 17 17 17 17 17 17 17
22 21 21 21 21 21 21 21 21 20 19 18 18 17 17 17 16 16 16 16 16 16 16 16 16 16 16 17 17 17 17 17 17 16 16 17 17 16 17 17 17 17 17
21 21 20 21 21 21 20 20 20 20 19 19 18 17 16 16 16 16 16 15 16 16 16 16 16 16 16 16 16 16 16 16 17 16 16 16 16 16 16 17 17 17 17
21 20 19 20 20 20 20 20 19 19 19 18 18 17 16 16 16 16 15 15 15 16 16 16 16 16 16 16 16 16 16 16 16 16 16 16 16 16 16 17 17 17 17
20 19 19 19 19 19 19 19 19 18 18 17 17 17 16 15 15 15 15 14 14 15 15 16 16 16 16 16 16 16 16 16 16 16 16 16 16 16 17 17 17 17 17
19 19 18 18 18 17 17 17 17 17 17 17 16 15 15 15 15 15 15 15 15 15 15 15 15 16 16 16 16 16 16 16 16 16 16 16 16 16 16 17 17 17 17
18 18 18 17 17 17 17 16 16 16 16 16 16 14 14 15 15 15 14 15 15 15 15 15 15 15 15 15 16 16 16 15 16 16 16 16 16 16 16 16 17 17 17
17 17 17 17 16 17 17 16 14 14 14 15 15 14 14 14 14 14 14 14 14 14 14 14 14 14 14 15 15 15 15 15 15 15 15 15 16 16 16 16 16 16 16
16 16 16 16 16 16 16 15 14 14 14 14 14 14 14 14 14 14 13 13 13 13 13 13 13 13 13 14 14 15 15 16 15 15 15 15 15 16 16 16 16 16 16
14 14 14 14 15 15 15 14 14 14 14 14 14 14 14 14 14 14 14 14 13 13 13 13 13 13 13 14 14 14 15 15 16 16 15 15 15 15 15 16 16 16 16
14 14 14 14 14 14 14 14 13 14 13 14 14 14 14 14 14 14 14 13 13 13 13 13 13 13 12 13 13 14 15 15 15 15 15 15 15 15 15 15 15 16 16
13 13 13 13 14 14 13 13 13 13 13 13 13 13 13 13 13 14 14 13 14 14 13 13 13 13 12 12 13 13 14 14 14 14 14 14 15 15 15 15 15 15 16
12 12 13 13 13 13 13 13 13 13 13 13 13 13 13 13 13 13 13 13 14 13 13 13 13 13 13 13 13 13 13 13 14 14 14 14 14 14 14 14 14 15 15
10 11 12 12 13 13 13 13 13 13 13 13 12 13 13 13 13 13 13 13 13 13 12 12 12 13 13 13 13 13 13 13 13 13 14 14 14 14 14 14 14 14 15
9 10 10 11 11 12 12 12 12 12 12 12 12 12 12 12 12 13 13 13 13 12 12 12 12 12 12 12 13 13 13 13 13 13 13 14 14 14 14 14 14 14 14
8 8 8 9 9 9 10 11 12 12 12 12 12 12 12 12 12 12 12 12 12 12 12 12 12 12 12 12 12 12 12 12 13 13 13 13 13 13 13 14 14 14 14
7 7 7 6 7 7 8 9 10 11 11 11 11 11 11 11 11 11 11 11 12 12 11 11 11 12 11 12 12 12 12 12 12 12 13 13 13 13 13 13 13 13 13
6 6 6 6 6 6 5 6 6 7 8 8 8 8 9 10 10 10 10 11 11 11 11 11 11 11 11 11 11 11 11 12 12 12 12 12 13 13 13 13 13 13 13
5 5 5 5 5 5 5 5 4 5 5 6 6 7 8 8 8 9 9 10 10 11 10 10 10 11 11 11 11 10 10 11 12 12 12 12 12 12 12 13 13 13 13
4 4 4 4 4 4 4 4 4 4 4 4 5 6 6 7 7 8 8 9 10 10 10 10 10 10 11 11 10 10 10 10 11 11 12 12 12 12 12 12 12 12 12
3 3 3 3 3 3 3 2 2 3 3 3 3 4 5 6 6 7 8 8 9 9 9 9 9 10 10 10 10 10 10 10 10 10 10 11 10 11 11 12 12 12 12
2 1 1 1 1 1 1 2 1 1 2 2 2 3 3 4 5 6 6 7 7 8 9 9 9 9 10 10 9 10 9 9 10 10 10 9 9 10 10 11 11 11 11
1 0 0 0 -0 -0 -0 -0 0 0 1 1 1 2 2 3 4 5 5 6 7 7 8 9 9 9 9 9 9 9 9 9 9 9 9 9 9 9 9 9 10 10 10

GEFSSE_850_meantemp_006.txt.gz
Temperature
21 21 21 21 20 19 19 18 18 17 17 17 17 17 16 16 16 16 16 16 16 16 16 16 17 17 17 17 17 17 17 17 17 17 17 17 17 17 17 17 17 17 17
21 21 21 21 20 19 18 18 17 17 16 16 17 17 17 16 16 16 16 16 16 16 16 16 16 17 17 17 17 17 17 17 17 17 17 17 17 17 17 17 17 17 17
21 20 20 20 19 19 18 17 17 17 17 17 17 17 17 16 16 16 16 16 16 16 16 16 16 16 17 17 17 17 17 17 17 17 17 17 17 17 17 17 17 17 17
19 19 19 19 18 18 18 17 17 17 17 16 17 16 16 16 16 16 16 16 16 16 16 16 16 16 16 17 16 16 16 16 16 17 17 17 17 17 17 17 17 17 17
18 18 17 17 17 17 17 16 16 16 16 15 16 16 16 16 16 16 16 16 16 16 16 16 16 16 16 16 16 16 16 16 16 17 17 16 17 17 17 17 17 17 17
17 17 16 16 17 17 16 16 16 15 15 15 15 15 15 15 15 16 16 16 16 16 15 16 16 16 16 16 16 16 16 16 16 16 16 16 16 16 17 17 17 17 17
16 15 15 16 16 16 16 16 16 15 15 15 14 14 14 15 14 15 15 15 15 15 15 15 15 15 15 15 16 16 16 15 16 16 16 16 16 16 16 16 17 17 17
15 15 15 15 15 15 15 14 14 14 14 14 14 14 14 14 14 14 15 15 15 15 15 15 15 15 15 15 15 16 16 15 15 16 16 16 16 16 16 16 16 16 17
15 15 15 15 14 14 14 14 14 14 14 14 14 14 14 14 14 14 14 14 14 14 14 14 15 15 15 15 15 15 15 15 15 15 15 15 15 16 16 16 16 16 16
13 13 13 14 14 14 14 14 14 14 13 13 13 13 13 14 14 14 14 14 14 14 14 14 14 14 15 15 15 15 15 15 15 15 15 15 15 16 16 16 16 16 16
13 13 13 13 13 13 13 13 13 13 13 13 13 13 13 13 13 14 14 14 14 14 14 14 14 14 14 14 14 14 15 15 15 15 15 15 15 15 15 16 16 16 16
11 11 12 12 12 12 12 12 12 13 12 12 13 13 13 13 13 13 13 13 13 14 14 14 14 14 14 14 14 14 14 14 14 15 15 15 15 15 15 15 15 16 16
9 10 10 11 11 12 12 12 12 12 12 12 12 12 12 12 13 13 13 13 13 13 13 13 13 13 13 13 13 13 13 14 14 15 15 15 15 15 15 15 15 15 16
9 10 10 10 11 11 11 11 11 12 12 12 12 12 12 12 12 12 12 12 12 13 13 13 13 13 13 13 13 13 13 13 14 14 15 15 15 15 15 15 15 15 15
8 9 9 10 10 10 10 10 11 11 11 11 11 11 12 12 12 12 12 12 12 12 12 12 12 12 12 13 13 13 13 12 13 13 14 15 15 15 15 15 15 15 15
7 7 8 8 8 9 10 10 10 10 11 11 11 11 11 11 11 12 12 12 12 12 12 12 12 12 12 12 12 12 12 12 12 13 13 14 14 14 14 14 14 15 15
6 6 7 7 8 8 8 8 9 9 9 10 10 11 10 10 11 11 12 12 12 12 12 12 12 12 12 12 12 12 12 12 12 12 13 13 14 14 14 14 14 14 14
5 6 6 6 6 7 7 7 7 7 7 8 8 9 10 9 9 10 10 11 11 12 12 12 12 12 12 12 12 12 12 12 12 12 12 13 13 13 13 14 14 14 14
5 5 5 5 5 5 6 6 5 5 5 5 6 7 7 7 7 7 8 9 10 10 11 11 11 11 11 12 12 12 12 12 12 12 12 12 13 13 13 13 14 14 14
4 4 4 4 4 4 4 4 4 4 4 3 3 4 5 5 5 6 6 7 8 9 9 10 10 11 11 11 11 11 11 11 11 12 12 12 12 13 13 13 13 13 13
3 3 3 2 2 2 2 1 2 2 2 2 2 2 3 3 4 4 5 5 6 7 8 8 9 10 10 10 10 10 11 11 11 11 11 12 12 12 12 13 13 13 13
2 2 1 1 -0 -1 -1 -1 -1 -1 -0 0 1 1 2 2 2 3 3 4 5 6 7 8 8 9 9 9 9 10 10 10 11 11 11 12 12 12 12 12 12 13 13
0 -0 -1 -1 -2 -3 -3 -2 -2 -1 -1 -1 -0 0 1 1 1 2 2 3 3 4 5 6 7 8 8 9 9 9 9 10 10 11 11 11 11 11 12 12 12 12 13
-2 -3 -3 -3 -3 -4 -4 -3 -4 -5 -5 -5 -4 -3 -1 -0 1 1 2 2 2 3 4 5 6 6 7 8 8 8 9 9 10 10 10 10 11 11 11 11 11 12 12
-4 -4 -4 -4 -4 -4 -5 -4 -5 -6 -6 -5 -5 -5 -4 -3 -2 -1 0 1 1 2 3 4 5 6 6 6 7 7 8 9 9 10 10 10 10 10 10 11 11 11 12
-5 -5 -5 -5 -6 -6 -5 -5 -6 -6 -6 -6 -6 -6 -6 -6 -5 -3 -2 -1 -1 0 1 3 4 5 5 6 6 7 7 8 9 9 9 9 9 9 9 10 10 11 11

GEFSSE_850_meantemp_012.txt.gz
Temperature
15 15 16 16 15 15 15 15 15 15 15 15 16 16 16 16 16 16 16 16 16 16 16 16 17 17 17 17 17 17 17 17 17 17 17 17 17 17 17 17 17 17 18
14 14 15 15 15 15 15 15 15 15 15 15 15 15 15 16 16 16 16 16 16 16 16 16 16 16 16 16 16 17 17 17 17 17 17 17 17 17 17 17 17 17 18
14 14 15 15 15 15 15 15 15 15 16 15 15 15 15 15 15 15 15 16 16 16 16 16 16 16 16 16 16 16 16 17 17 17 17 16 17 17 17 17 17 17 17
14 14 14 15 15 15 15 15 15 15 15 15 15 15 15 15 15 15 15 15 15 15 16 16 16 16 16 16 16 16 16 16 16 17 16 16 16 17 17 17 17 17 17
14 14 14 14 14 15 15 15 14 14 14 14 14 14 15 15 15 15 15 15 15 15 15 15 16 16 16 16 16 16 16 16 16 16 16 16 16 17 17 17 17 17 17
13 13 14 14 14 14 14 14 14 14 14 14 14 14 14 14 14 15 14 15 15 15 15 15 15 15 15 15 16 16 16 16 16 15 15 15 16 17 17 17 17 17 17
12 13 13 13 14 14 14 14 14 14 14 14 14 14 14 14 14 14 14 14 15 15 15 15 15 15 15 15 15 15 15 15 16 15 15 15 15 16 16 16 17 17 17
12 12 12 12 13 13 13 13 13 13 13 14 14 14 14 14 14 14 14 14 14 14 14 14 15 15 15 15 15 15 15 15 15 15 15 15 15 16 16 16 16 17 17
12 12 12 12 12 12 12 12 12 12 13 13 13 13 13 13 13 14 14 14 14 14 14 14 14 14 15 15 15 15 15 15 15 15 15 15 15 16 16 16 16 16 17
11 11 11 12 12 12 12 12 12 12 12 12 12 13 13 13 13 13 13 13 13 14 14 14 14 14 14 14 15 15 15 15 14 15 15 15 15 15 15 16 16 16 16
11 10 11 11 11 11 11 12 12 12 12 12 12 12 12 12 12 12 13 13 13 13 13 13 13 13 14 14 14 14 14 14 14 14 15 15 15 15 15 15 15 15 16
8 9 9 10 10 10 11 11 11 11 11 12 12 12 12 12 12 12 12 12 13 13 13 13 13 13 13 13 13 14 14 13 13 14 14 15 15 15 15 15 15 15 15
7 8 8 9 9 9 10 10 10 10 11 11 11 11 11 11 12 12 12 12 12 12 12 13 13 13 13 13 13 13 13 13 13 13 14 14 15 15 15 15 15 15 15
7 8 8 8 8 9 9 9 8 8 9 9 10 10 11 11 11 11 11 11 11 12 12 12 12 12 12 12 12 13 13 13 13 13 13 13 14 15 15 14 15 15 15
6 7 7 7 7 7 7 7 7 6 6 6 6 7 8 8 9 10 10 10 11 11 11 11 12 12 12 12 12 12 12 13 13 13 12 13 14 14 15 15 15 15 15
4 5 5 5 5 5 5 5 5 5 4 4 4 4 5 5 6 7 8 9 9 10 10 11 11 11 11 12 12 12 12 12 12 12 12 12 13 13 14 15 15 15 15
2 2 3 3 4 4 4 4 4 3 3 2 2 2 3 3 4 4 5 6 6 8 8 9 10 10 10 11 11 12 12 12 12 12 12 12 12 13 13 14 14 15 15
1 2 2 2 2 2 2 3 2 2 1 1 1 1 2 2 2 3 3 3 4 5 6 6 7 8 9 10 10 11 11 11 12 12 12 12 12 12 12 13 14 14 15
1 1 1 1 1 1 1 1 1 0 -0 -1 -1 -0 1 1 1 2 2 2 3 3 4 4 5 6 7 8 9 10 10 11 11 11 12 12 12 12 12 12 13 13 14
-0 -0 -0 -0 -0 -0 -0 0 -0 -1 -2 -2 -2 -1 -1 -0 0 0 0 1 2 2 3 3 3 4 5 6 7 9 10 10 10 11 11 12 12 12 12 12 12 13 13
-1 -1 -1 -1 -1 -2 -2 -2 -2 -2 -3 -3 -3 -3 -2 -2 -2 -2 -1 -1 -0 1 1 2 2 3 4 4 5 7 9 10 10 10 11 11 11 12 12 12 12 12 12
-3 -3 -3 -3 -3 -4 -4 -4 -4 -5 -4 -4 -4 -4 -3 -3 -3 -4 -3 -3 -3 -2 -1 0 1 1 2 2 3 5 8 10 11 10 10 11 11 11 11 12 12 12 12
-4 -4 -4 -4 -4 -5 -6 -6 -6 -5 -5 -5 -5 -5 -5 -4 -4 -5 -5 -5 -5 -4 -4 -3 -2 -2 -1 1 1 2 6 10 11 11 11 11 11 11 11 11 12 12 12
-5 -5 -5 -5 -5 -6 -6 -7 -7 -8 -7 -7 -7 -7 -6 -6 -5 -6 -6 -6 -6 -5 -5 -5 -4 -4 -3 -2 -0 1 3 5 7 10 10 10 10 11 11 11 11 12 12
-6 -6 -6 -6 -6 -6 -7 -8 -8 -8 -8 -8 -8 -8 -8 -7 -6 -6 -7 -7 -6 -6 -6 -5 -4 -4 -3 -3 -2 -1 1 3 5 6 9 10 10 10 10 11 11 11 11
-6 -7 -7 -7 -7 -7 -8 -8 -9 -9 -9 -9 -9 -9 -9 -8 -8 -7 -7 -7 -7 -6 -6 -5 -4 -4 -3 -3 -2 -2 -1 1 3 5 7 8 9 10 10 10 11 11 11

GEFSSE_850_meantemp_018.txt.gz
Temperature
12 12 13 14 14 15 15 15 15 15 15 15 15 15 15 15 15 15 15 15 15 15 16 16 16 16 16 16 17 17 17 17 17 17 17 17 17 18 17 17 17 17 17
9 11 13 13 14 14 15 15 15 15 15 15 15 15 15 15 15 15 15 15 15 15 15 16 16 16 16 16 16 16 17 17 17 17 17 17 17 17 17 17 17 17 17
9 10 12 13 13 14 14 14 15 15 15 15 15 15 15 15 15 15 15 15 15 15 15 15 15 15 16 16 16 16 16 17 17 17 17 17 17 17 17 17 17 17 17
9 10 11 12 13 13 14 14 14 14 14 14 15 15 15 15 15 15 15 15 15 15 15 15 15 15 15 16 16 16 16 16 17 17 17 17 16 17 17 17 17 17 17
9 10 11 12 12 13 13 13 13 13 14 14 14 14 14 14 14 14 14 14 14 14 14 15 15 15 15 15 15 16 16 16 16 16 17 16 16 16 17 17 17 17 17
9 10 10 11 12 12 12 12 12 13 13 13 13 13 13 14 14 14 14 14 14 14 14 14 14 15 15 15 15 15 15 16 16 16 16 16 16 16 17 17 17 17 17
10 10 11 11 11 12 12 12 12 12 12 12 13 13 13 13 13 13 13 13 14 14 14 14 14 14 14 15 15 15 15 15 15 16 16 16 16 16 17 17 17 17 17
9 10 10 11 11 11 11 11 11 12 12 12 12 12 12 12 12 12 12 13 13 13 13 14 14 14 14 14 14 15 15 15 15 15 16 16 15 16 16 16 17 17 17
9 10 10 10 11 11 11 11 11 11 11 11 11 12 12 12 12 12 12 12 12 12 13 13 13 13 14 14 14 14 15 15 15 15 15 15 15 16 16 16 16 17 17
9 9 10 10 10 10 10 10 10 10 10 10 10 11 11 11 12 12 12 12 11 12 12 12 12 13 13 13 14 14 14 15 15 15 15 15 15 15 16 16 16 16 17
8 8 9 9 9 9 9 9 9 8 8 8 8 9 9 10 10 11 11 11 11 11 11 11 12 12 12 13 13 13 14 14 15 15 15 15 15 15 16 16 16 16 16
7 7 7 8 8 8 8 8 8 7 6 6 6 6 6 7 8 8 9 10 10 11 11 11 11 11 12 12 12 13 13 13 14 14 14 15 15 15 15 15 16 16 16
5 6 6 6 6 6 6 6 5 5 5 5 4 4 4 4 5 6 7 8 9 9 10 11 11 11 11 11 12 12 12 13 13 13 14 14 15 15 15 15 15 15 16
5 5 5 4 4 4 4 4 3 3 3 3 3 2 2 2 3 4 4 5 5 6 7 8 9 10 11 11 11 11 12 12 13 13 13 14 14 14 14 15 15 15 15
4 3 3 3 3 3 3 2 2 1 1 1 1 1 0 1 1 1 2 3 3 3 4 6 7 8 9 10 10 10 11 12 12 13 13 13 14 14 14 14 14 15 15
2 2 2 2 3 2 2 1 1 1 0 -0 -0 -1 -1 -1 -1 -1 0 1 1 1 2 3 4 5 6 7 9 10 10 11 11 12 13 13 13 13 13 14 14 14 15
1 1 1 1 1 1 1 0 0 -0 -0 -1 -1 -2 -2 -2 -2 -2 -2 -1 -1 -1 0 1 2 3 4 5 7 9 10 10 10 11 12 12 13 13 13 13 13 14 14
1 1 0 -0 -0 -0 -0 -1 -1 -1 -1 -2 -2 -2 -3 -3 -3 -3 -3 -3 -3 -3 -2 -1 -0 1 2 3 5 7 8 9 10 11 11 12 12 12 13 13 13 13 13
0 -0 -1 -1 -1 -1 -1 -1 -2 -2 -2 -3 -3 -3 -4 -4 -4 -4 -4 -4 -4 -4 -3 -3 -2 -2 -0 1 3 4 6 8 9 10 10 11 11 12 12 12 12 12 13
-1 -1 -1 -2 -2 -2 -2 -2 -2 -2 -3 -4 -4 -4 -5 -5 -5 -5 -5 -5 -5 -5 -5 -4 -4 -3 -2 -1 1 2 4 6 8 9 10 10 11 11 12 12 12 12 12
-1 -2 -2 -3 -3 -4 -4 -4 -4 -4 -4 -5 -5 -5 -6 -6 -6 -6 -6 -6 -6 -6 -6 -6 -5 -5 -4 -3 -2 1 4 5 7 9 10 10 11 11 11 12 12 12 12
-2 -3 -3 -4 -4 -5 -5 -5 -6 -6 -6 -6 -6 -6 -7 -7 -7 -7 -7 -7 -7 -7 -7 -6 -6 -6 -5 -5 -4 -3 -1 2 6 7 8 9 10 10 11 11 12 12 12
-3 -3 -4 -4 -5 -5 -6 -6 -6 -6 -6 -6 -6 -7 -7 -8 -8 -8 -8 -8 -8 -8 -7 -7 -6 -6 -5 -5 -4 -3 -2 -0 0 6 8 9 9 10 10 11 11 11 12
-3 -4 -4 -5 -5 -6 -6 -7 -7 -8 -8 -8 -8 -8 -8 -8 -9 -9 -9 -9 -9 -9 -8 -8 -7 -6 -6 -5 -4 -4 -3 -3 -2 -0 6 8 8 9 10 11 11 11 11
-4 -4 -5 -5 -6 -6 -7 -7 -8 -8 -9 -9 -9 -9 -9 -9 -10 -10 -10 -10 -9 -9 -9 -8 -7 -7 -6 -5 -5 -4 -4 -3 -3 -2 -1 5 7 8 8 10 11 11 11
-4 -5 -5 -6 -6 -7 -7 -8 -8 -9 -9 -9 -9 -9 -10 -10 -10 -10 -10 -10 -10 -10 -9 -8 -8 -7 -6 -6 -5 -5 -4 -3 -3 -2 -2 -0 1 5 7 8 10 11 11

GEFSSE_850_meantemp_024.txt.gz
Temperature
9 9 9 9 10 11 12 12 13 13 13 13 13 14 14 14 14 14 14 14 14 15 15 15 16 16 16 16 16 16 16 17 17 17 17 17 17 17 17 17 17 17 17
8 9 9 10 10 10 11 12 12 13 13 13 13 13 13 13 13 13 14 14 14 14 14 15 15 15 16 16 16 16 16 16 17 17 17 17 17 17 17 17 17 17 17
9 9 10 10 10 10 11 11 12 12 12 13 13 13 13 13 13 13 13 13 13 13 14 14 14 15 15 16 16 16 16 16 16 17 17 17 17 17 17 17 17 17 17
9 10 10 10 10 10 10 11 11 11 11 12 12 12 12 12 12 12 13 13 13 13 13 13 14 14 14 15 15 16 16 16 16 16 16 16 17 17 16 16 17 17 17
9 9 10 10 10 10 10 11 11 10 11 11 11 12 12 12 12 12 12 12 12 12 12 13 13 13 13 14 14 15 15 16 16 16 16 16 16 16 16 16 16 17 17
9 9 9 10 10 10 10 10 10 10 10 10 10 11 11 11 11 11 11 12 12 12 12 12 12 12 13 13 14 14 14 15 15 15 16 16 16 16 16 16 16 16 16
9 9 9 9 9 9 9 10 10 9 9 9 9 9 9 10 11 10 11 11 11 11 11 11 11 12 12 13 13 13 14 14 14 15 15 16 16 16 16 16 16 16 16
8 8 9 9 9 9 9 9 9 8 8 8 8 8 8 8 8 8 9 10 10 10 11 11 11 11 12 12 12 13 13 13 14 14 15 15 15 15 15 16 16 16 16
8 8 8 8 8 8 8 7 7 7 6 6 6 6 6 6 6 6 7 8 8 9 9 9 10 11 11 11 12 12 12 13 13 14 14 15 15 15 15 16 16 16 16
7 7 7 7 7 7 6 6 5 5 5 4 4 4 4 5 5 5 6 6 6 7 7 8 9 10 10 11 11 11 12 12 13 13 14 14 15 15 15 15 16 16 16
7 6 6 6 5 5 4 4 4 3 3 3 3 2 3 3 4 4 4 4 4 5 5 6 7 8 9 10 10 11 11 12 12 12 13 14 14 14 15 15 16 16 16
5 5 5 4 3 3 3 2 2 2 2 2 1 1 1 1 2 2 3 3 3 3 4 5 5 6 7 8 10 10 10 11 11 12 12 13 13 14 14 14 15 15 15
4 3 2 2 2 2 2 1 1 1 1 1 0 -0 -0 -0 0 1 1 2 2 2 3 3 4 5 5 6 8 9 10 10 11 11 12 12 13 13 14 14 15 15 15
3 2 1 2 2 2 1 1 1 1 1 0 -0 -1 -1 -1 -1 -1 -1 -0 -0 -0 1 1 2 3 4 4 5 7 8 9 10 10 11 12 12 13 13 14 14 14 15
2 2 2 2 2 1 1 1 1 0 -0 -1 -1 -2 -2 -2 -2 -2 -2 -2 -2 -2 -1 -0 0 1 2 3 4 5 7 8 9 9 10 11 12 12 13 13 14 14 14
2 2 1 1 1 1 1 0 -0 -0 -1 -1 -2 -2 -3 -3 -3 -3 -3 -4 -4 -4 -3 -3 -2 -1 -0 1 2 3 5 6 8 9 10 10 11 12 12 13 13 14 14
2 1 1 1 0 0 0 -0 -1 -1 -2 -2 -2 -3 -3 -3 -4 -4 -4 -5 -5 -5 -5 -4 -4 -3 -2 -1 1 2 3 5 6 8 9 10 10 11 12 12 13 13 13
2 1 0 -0 0 -0 -0 -1 -1 -2 -2 -3 -3 -3 -4 -4 -5 -5 -5 -6 -6 -6 -6 -6 -6 -5 -4 -3 -1 1 2 3 5 6 7 9 9 10 11 11 12 12 13
1 0 -0 -0 -1 -1 -1 -1 -1 -2 -3 -3 -4 -4 -5 -5 -5 -6 -6 -7 -7 -7 -7 -7 -7 -7 -6 -5 -4 -2 0 2 4 5 6 7 8 9 10 10 11 12 12
1 -0 -1 -1 -1 -1 -1 -1 -2 -2 -3 -4 -4 -5 -5 -6 -6 -7 -7 -8 -8 -8 -8 -8 -8 -7 -7 -7 -6 -4 -2 1 2 3 5 6 7 8 9 9 10 11 11
0 -1 -2 -2 -2 -2 -2 -3 -3 -3 -4 -5 -5 -6 -6 -7 -7 -7 -8 -8 -9 -9 -9 -9 -9 -8 -8 -7 -7 -6 -2 -0 1 2 3 4 5 6 8 9 9 10 10
-1 -2 -2 -2 -3 -3 -4 -4 -5 -5 -5 -6 -6 -7 -7 -8 -8 -9 -9 -9 -10 -10 -10 -10 -9 -9 -9 -8 -7 -7 -5 -3 -1 1 2 2 3 4 6 8 8 9 10
-2 -2 -3 -3 -4 -4 -4 -5 -5 -5 -6 -6 -7 -8 -8 -9 -9 -9 -10 -10 -10 -10 -11 -10 -10 -10 -9 -8 -7 -7 -6 -5 -5 -2 -0 1 2 3 4 6 7 8 9
-2 -3 -3 -4 -4 -5 -5 -6 -6 -7 -8 -8 -9 -9 -9 -9 -9 -10 -10 -11 -11 -11 -11 -11 -11 -10 -10 -9 -8 -7 -7 -6 -6 -5 -3 -1 -0 1 3 4 6 7 8
-3 -3 -4 -4 -5 -5 -6 -7 -7 -8 -9 -9 -9 -10 -10 -10 -10 -11 -11 -11 -11 -11 -11 -11 -11 -10 -10 -9 -9 -8 -7 -6 -6 -6 -5 -4 -2 -0 1 3 5 7 8
-3 -4 -4 -5 -5 -6 -7 -7 -8 -9 -9 -10 -10 -11 -11 -11 -11 -11 -12 -12 -12 -12 -12 -12 -11 -11 -10 -9 -9 -8 -7 -7 -6 -6 -6 -5 -5 -2 -0 2 4 6 7

GEFSSE_850_meantemp_030.txt.gz
Temperature
7 8 9 9 10 10 10 10 10 11 11 12 12 12 12 12 13 13 13 13 13 14 14 14 14 14 14 14 14 14 15 15 15 16 16 16 16 16 16 17 17 17 17
7 9 9 9 10 10 10 10 10 10 10 11 11 11 11 12 12 12 12 13 13 13 13 13 14 14 14 14 14 14 14 15 15 15 16 16 16 16 16 16 16 17 17
8 9 9 9 10 10 10 10 10 10 10 10 10 10 10 11 11 12 12 12 12 12 13 13 13 13 13 14 14 14 14 14 14 15 15 15 16 16 16 16 16 16 16
8 9 9 9 9 9 9 9 9 9 9 9 9 9 9 9 10 10 11 11 11 11 12 12 12 12 13 13 13 14 14 14 14 14 15 15 15 15 16 16 16 16 16
8 9 9 9 9 9 9 9 9 8 8 7 7 7 7 7 8 7 8 9 9 10 10 10 10 11 12 12 13 13 13 13 14 14 14 14 15 15 15 15 16 16 16
8 8 9 9 9 9 8 8 7 7 6 6 6 5 5 6 6 6 6 7 7 7 8 8 9 9 10 11 12 12 13 13 13 13 14 14 14 15 15 15 15 16 16
8 8 9 8 8 8 7 7 6 6 5 5 5 5 5 5 5 5 5 5 5 6 6 6 7 8 8 9 10 11 12 13 13 13 13 13 13 14 14 15 15 15 16
8 8 8 8 7 7 6 5 5 5 5 5 5 5 5 5 5 5 5 5 5 5 5 5 6 6 7 7 9 10 11 12 12 13 13 13 13 13 14 14 15 15 15
7 7 7 7 6 6 5 5 4 4 4 4 4 4 4 4 4 4 4 4 4 4 4 4 4 5 5 6 7 8 9 10 11 12 12 12 13 13 13 14 14 15 15
7 7 6 5 5 5 4 4 3 3 3 3 3 3 3 3 3 3 3 3 3 3 3 4 4 4 4 5 6 7 8 9 9 10 11 12 12 12 13 13 14 14 15
6 6 5 4 4 3 3 3 3 3 2 2 2 2 2 3 3 3 3 3 3 3 3 3 3 3 4 4 5 6 6 7 8 9 10 10 11 12 12 13 13 14 14
5 4 4 3 3 3 3 2 2 2 2 2 2 2 2 2 2 2 2 2 2 2 2 2 2 2 3 3 4 4 5 6 7 8 9 9 10 11 11 12 13 13 14
4 3 3 3 3 2 2 2 2 2 2 1 1 1 1 1 1 1 1 1 1 1 1 1 1 2 2 2 3 3 4 4 5 6 8 8 9 10 11 11 12 13 13
3 3 2 2 2 2 2 1 1 1 1 1 0 0 -0 -0 -0 -0 -0 -1 -1 -1 -1 -1 -0 -0 0 1 1 2 2 3 4 5 6 7 8 9 10 11 11 12 12
2 2 2 2 2 1 1 1 1 0 0 -0 -1 -1 -1 -1 -2 -2 -2 -2 -3 -3 -3 -2 -2 -2 -1 -1 -0 0 1 2 3 3 4 6 7 8 9 9 10 11 12
2 2 1 1 1 1 1 1 0 -0 -1 -1 -2 -2 -2 -3 -3 -3 -4 -4 -4 -4 -4 -4 -4 -3 -3 -2 -1 -1 0 1 1 2 3 4 5 7 8 9 9 10 11
1 1 1 1 1 1 0 0 -1 -1 -2 -2 -3 -3 -4 -4 -5 -5 -5 -6 -6 -6 -6 -5 -5 -5 -4 -4 -3 -2 -1 -0 0 1 2 3 4 5 6 8 9 9 10
1 0 0 0 0 0 0 -0 -1 -2 -2 -3 -4 -4 -5 -5 -6 -6 -7 -7 -7 -7 -7 -7 -6 -6 -5 -5 -4 -3 -2 -2 -1 0 1 2 3 4 5 6 8 9 10
0 -0 -0 -0 -0 -0 -0 -1 -2 -2 -3 -4 -5 -5 -6 -6 -7 -7 -7 -8 -8 -8 -8 -8 -8 -8 -7 -6 -6 -5 -4 -3 -2 -1 -1 0 1 2 3 5 7 8 9
-1 -1 -1 -1 -1 -1 -1 -2 -2 -3 -4 -5 -5 -6 -7 -7 -8 -8 -8 -9 -9 -9 -9 -9 -9 -9 -9 -8 -8 -6 -5 -4 -3 -3 -3 -2 -1 -1 1 3 5 7 8
-1 -1 -1 -1 -1 -2 -2 -3 -3 -4 -5 -5 -6 -7 -8 -8 -9 -9 -10 -10 -10 -10 -11 -11 -10 -10 -10 -10 -9 -8 -6 -5 -4 -5 -4 -3 -3 -2 -1 1 3 5 7
-1 -1 -1 -1 -2 -3 -4 -4 -5 -5 -6 -6 -7 -7 -8 -9 -9 -10 -10 -11 -11 -12 -12 -11 -11 -11 -11 -11 -12 -11 -9 -8 -5 -5 -5 -4 -4 -3 -2 -0 1 3 5
-1 -1 -1 -2 -3 -3 -4 -5 -5 -5 -6 -6 -7 -8 -9 -10 -10 -11 -11 -12 -12 -13 -13 -13 -13 -13 -13 -12 -12 -12 -10 -9 -9 -7 -7 -6 -5 -4 -3 -1 0 2 4
-1 -1 -2 -2 -3 -4 -5 -5 -6 -7 -7 -8 -9 -9 -9 -10 -11 -11 -12 -12 -13 -13 -13 -13 -14 -13 -13 -13 -12 -12 -11 -11 -10 -9 -8 -7 -6 -5 -4 -2 -1 1 2
-1 -2 -2 -3 -4 -4 -5 -6 -6 -7 -8 -9 -9 -9 -10 -11 -11 -12 -13 -13 -13 -14 -14 -14 -14 -14 -14 -14 -13 -12 -11 -10 -10 -9 -8 -8 -7 -6 -4 -3 -2 -0 1
-2 -2 -2 -3 -4 -4 -5 -6 -7 -8 -8 -9 -9 -10 -11 -11 -12 -12 -13 -13 -13 -14 -14 -14 -14 -14 -14 -13 -13 -12 -12 -11 -10 -10 -9 -9 -8 -6 -5 -4 -3 -1 0

GEFSSE_850_meantemp_036.txt.gz
Temperature
7 8 8 7 7 8 8 8 9 9 8 8 8 8 8 8 8 9 9 10 10 11 11 12 12 13 13 14 14 14 14 14 14 15 15 15 15 16 16 16 16 16 16
7 7 8 7 7 7 7 8 8 8 8 8 7 7 7 7 7 7 8 8 8 9 9 10 10 11 12 12 13 13 14 14 14 15 15 15 15 15 16 16 16 16 16
7 7 7 7 7 7 7 7 7 7 7 7 7 7 7 7 7 6 7 7 7 7 8 8 9 9 10 11 11 12 13 13 14 14 15 14 14 15 15 15 16 16 16
7 7 7 7 7 7 7 7 6 6 6 6 6 5 6 6 5 5 6 6 5 6 6 6 7 8 8 9 10 10 11 12 13 14 14 14 14 14 14 15 15 15 16
7 7 7 7 7 7 6 6 5 5 5 5 5 5 5 5 5 5 5 5 5 5 5 5 5 6 7 7 8 9 10 10 12 12 13 13 14 14 14 14 15 15 15
7 7 7 8 7 6 6 5 5 4 4 4 4 4 5 5 4 4 4 4 4 4 4 4 4 4 5 6 7 7 8 9 10 11 12 12 13 13 13 14 14 15 15
7 7 7 7 7 6 6 5 5 5 4 5 4 4 4 4 4 4 4 4 4 4 4 4 4 4 4 4 5 6 7 8 9 9 10 11 12 12 12 13 13 14 14
7 7 7 7 6 6 5 5 4 4 4 4 4 4 4 4 4 4 4 3 3 3 3 3 3 3 3 4 4 4 5 6 7 8 9 10 10 11 11 12 13 13 14
6 6 6 6 6 5 5 4 4 4 4 4 4 4 4 4 4 3 3 3 3 2 2 3 3 3 3 3 3 4 4 5 6 6 7 8 9 10 10 11 11 12 13
6 6 6 5 5 4 4 4 4 4 4 4 4 4 3 3 3 3 3 3 2 2 2 2 2 2 2 3 3 3 3 4 4 5 6 6 7 8 9 10 10 11 12
5 5 5 5 5 4 3 4 3 3 3 3 3 3 3 3 2 2 2 2 2 2 2 1 1 1 2 2 2 2 2 2 3 4 5 5 6 7 8 9 9 10 11
4 5 5 5 4 3 3 3 3 3 2 2 2 2 2 2 1 1 1 1 1 1 1 1 1 0 0 1 1 1 1 1 1 2 3 4 5 6 7 7 8 9 10
4 4 4 4 3 3 2 2 2 2 2 1 1 1 0 0 0 -0 -0 -0 -1 -1 -1 -1 -1 -1 -1 -1 -1 -1 -1 -1 -0 0 1 3 4 5 5 6 7 8 9
4 4 4 3 2 2 2 1 1 1 0 0 -0 -1 -1 -1 -1 -2 -2 -2 -3 -3 -3 -3 -3 -3 -3 -3 -3 -2 -2 -2 -2 -1 -0 2 3 4 4 5 6 7 8
3 3 3 2 2 1 1 1 0 -0 -0 -1 -1 -2 -2 -3 -3 -3 -4 -4 -5 -5 -6 -5 -5 -5 -5 -5 -5 -4 -4 -3 -3 -2 -2 -0 2 3 4 4 4 5 7
3 3 2 2 1 1 0 0 -0 -1 -1 -1 -2 -3 -3 -4 -5 -5 -6 -6 -7 -7 -7 -8 -8 -7 -7 -7 -6 -6 -5 -4 -4 -3 -3 -2 0 2 2 3 4 4 5
3 2 2 1 1 0 0 -0 -1 -1 -2 -2 -3 -4 -4 -5 -6 -7 -7 -7 -8 -8 -9 -9 -9 -9 -9 -9 -8 -7 -7 -6 -5 -4 -3 -3 -2 -0 1 2 2 3 3
2 2 1 1 0 0 0 -0 -1 -1 -2 -3 -3 -4 -5 -6 -7 -7 -8 -9 -9 -10 -10 -10 -10 -10 -10 -10 -9 -9 -8 -7 -6 -5 -4 -3 -3 -2 -1 -0 0 1 2
2 1 1 1 0 0 -0 -0 -1 -2 -2 -3 -4 -5 -6 -6 -7 -8 -9 -10 -10 -10 -10 -11 -11 -11 -11 -11 -10 -10 -9 -8 -7 -6 -5 -4 -4 -3 -3 -2 -1 -0 1
2 1 1 0 -0 -0 -0 -1 -1 -2 -3 -4 -4 -6 -6 -7 -8 -9 -10 -10 -11 -11 -11 -11 -11 -11 -11 -11 -11 -11 -10 -9 -7 -6 -5 -5 -4 -3 -3 -3 -3 -2 -0
1 1 0 -0 -1 -1 -1 -1 -2 -3 -4 -5 -6 -7 -7 -8 -9 -9 -10 -10 -11 -11 -11 -12 -12 -12 -12 -12 -11 -11 -10 -9 -7 -6 -6 -5 -4 -4 -4 -4 -3 -2 -2
1 1 0 -1 -1 -2 -2 -2 -3 -4 -5 -6 -7 -7 -8 -9 -9 -10 -10 -11 -11 -12 -12 -12 -12 -12 -12 -12 -12 -12 -11 -9 -6 -7 -7 -6 -5 -4 -4 -4 -4 -3 -2
1 1 -0 -1 -1 -2 -2 -3 -4 -5 -6 -7 -7 -8 -8 -9 -10 -10 -11 -11 -11 -12 -12 -12 -12 -12 -12 -12 -12 -12 -12 -10 -10 -9 -7 -6 -6 -5 -5 -4 -4 -3 -3
1 1 -0 -1 -2 -2 -3 -3 -4 -5 -6 -7 -8 -8 -9 -9 -10 -10 -11 -11 -11 -12 -12 -12 -12 -13 -13 -13 -13 -12 -12 -12 -12 -11 -9 -7 -7 -6 -5 -5 -4 -4 -3
1 0 -1 -1 -2 -3 -3 -4 -4 -6 -6 -7 -8 -9 -9 -10 -10 -11 -11 -11 -11 -12 -12 -12 -12 -12 -13 -13 -13 -13 -13 -12 -12 -11 -10 -8 -7 -6 -6 -5 -5 -4 -3
1 -0 -1 -2 -2 -3 -3 -4 -5 -6 -7 -8 -9 -9 -10 -10 -10 -10 -11 -11 -11 -11 -11 -12 -12 -12 -12 -13 -13 -13 -13 -12 -12 -11 -10 -9 -8 -7 -6 -5 -5 -4 -4

GEFSSE_850_meantemp_042.txt.gz
Temperature
7 7 7 7 7 7 7 7 7 7 7 7 7 6 6 6 6 6 7 7 7 7 8 8 8 9 9 10 10 11 12 13 13 14 14 14 14 14 14 15 15 16 16
7 7 8 7 7 7 7 7 6 6 6 6 6 5 5 5 5 5 5 6 6 6 6 7 7 8 8 8 9 9 10 11 12 13 14 14 14 14 14 14 15 15 15
7 8 8 8 7 7 7 6 6 6 5 5 5 5 5 4 4 4 4 4 5 5 5 6 6 6 7 7 8 8 9 10 11 12 12 13 13 13 13 13 14 14 15
7 8 8 8 7 7 7 6 6 5 5 4 4 4 4 4 4 4 4 4 4 4 4 4 4 5 5 6 7 7 8 8 9 10 11 12 12 13 13 13 13 13 14
7 8 8 8 8 8 7 6 5 5 4 4 4 4 4 4 4 3 3 3 3 3 3 3 3 3 4 4 5 6 6 7 8 9 10 10 11 11 12 12 12 13 13
7 8 8 8 8 7 7 6 6 5 5 4 4 4 4 3 3 3 3 3 3 3 3 3 3 2 2 3 3 3 4 5 7 8 8 9 9 10 10 11 12 12 12
7 7 8 8 7 7 7 6 6 5 4 4 4 3 3 3 3 3 3 3 3 3 3 3 2 2 2 2 2 2 2 3 5 6 7 7 8 8 8 8 10 11 12
7 7 7 7 7 7 6 6 5 5 4 4 3 3 3 3 3 3 3 3 2 2 2 2 2 2 2 1 1 1 1 2 3 4 5 6 6 7 6 6 8 10 11
6 7 6 7 6 6 5 5 5 4 4 3 3 3 3 3 3 3 3 3 2 2 2 2 1 1 1 1 1 1 1 1 2 2 3 3 5 5 5 5 6 8 9
6 6 6 6 6 6 6 5 4 4 3 3 3 3 3 4 3 3 3 3 2 2 2 1 1 1 0 0 0 -0 -0 0 1 1 1 2 3 3 3 4 5 6 7
5 5 6 6 6 6 5 5 4 4 3 3 3 3 3 3 3 3 3 2 2 2 1 1 1 0 0 0 -0 -1 -1 -1 -1 -1 -0 0 1 1 2 3 3 4 5
5 5 5 6 6 5 5 4 4 3 3 3 3 3 3 2 2 2 2 1 1 1 1 1 0 0 -0 -0 -1 -2 -2 -3 -3 -3 -2 -2 -1 -0 1 2 2 3 4
5 4 5 5 5 5 5 4 3 3 2 2 2 2 1 1 1 1 0 -0 -1 -1 -1 -1 -1 -2 -2 -2 -2 -3 -3 -4 -4 -4 -4 -3 -3 -2 -1 -0 1 2 2
4 4 4 4 5 5 4 4 3 2 1 1 1 0 0 0 -0 -1 -1 -2 -3 -4 -4 -5 -5 -5 -5 -5 -5 -5 -5 -5 -5 -6 -5 -5 -4 -3 -2 -1 -0 1 1
4 4 4 4 4 4 4 3 2 1 1 0 -0 -1 -1 -1 -1 -2 -3 -4 -4 -5 -6 -6 -6 -6 -6 -6 -6 -6 -6 -6 -6 -7 -7 -6 -6 -5 -4 -3 -1 -1 0
4 3 3 4 4 4 3 2 2 1 0 -0 -1 -1 -1 -2 -2 -3 -4 -4 -6 -6 -7 -7 -7 -7 -8 -8 -8 -8 -8 -8 -7 -8 -8 -7 -7 -6 -5 -4 -2 -1 -0
4 3 3 3 3 3 3 2 1 1 -0 -0 -1 -1 -2 -2 -3 -4 -5 -5 -6 -7 -7 -8 -8 -8 -8 -9 -9 -9 -9 -9 -9 -9 -9 -8 -8 -7 -6 -4 -3 -2 -1
4 3 3 3 3 3 3 2 1 0 -0 -1 -1 -1 -2 -3 -4 -5 -5 -6 -7 -8 -8 -8 -9 -9 -9 -9 -10 -10 -10 -10 -9 -9 -9 -9 -9 -8 -7 -6 -4 -3 -2
4 3 3 3 3 3 2 1 0 0 -0 -1 -1 -2 -3 -4 -4 -5 -6 -7 -8 -8 -8 -9 -9 -9 -10 -10 -10 -10 -10 -10 -10 -10 -10 -10 -9 -8 -7 -6 -5 -4 -2
4 3 2 2 2 2 2 1 1 0 -0 -0 -1 -2 -3 -4 -5 -6 -7 -7 -8 -9 -9 -9 -9 -10 -10 -10 -10 -10 -10 -10 -10 -10 -10 -10 -9 -9 -7 -6 -5 -4 -3
4 3 2 2 2 2 2 2 1 1 0 -1 -1 -3 -4 -4 -6 -6 -7 -8 -9 -9 -9 -9 -10 -10 -10 -10 -10 -11 -11 -10 -10 -11 -10 -10 -10 -9 -8 -7 -6 -5 -4
4 3 2 2 2 2 2 1 1 0 -0 -1 -3 -4 -4 -5 -6 -7 -8 -8 -9 -9 -9 -10 -10 -10 -10 -10 -11 -11 -11 -11 -10 -10 -11 -11 -10 -10 -9 -8 -7 -6 -5
4 3 2 1 2 2 2 1 1 -0 -1 -2 -3 -3 -4 -6 -7 -7 -8 -9 -9 -10 -10 -10 -10 -10 -10 -10 -10 -11 -11 -11 -11 -11 -11 -11 -11 -10 -9 -8 -7 -6 -5
4 3 2 2 2 2 1 1 0 -1 -1 -2 -3 -4 -5 -6 -7 -8 -8 -9 -9 -10 -10 -10 -10 -10 -11 -11 -10 -11 -11 -11 -11 -11 -11 -10 -11 -10 -10 -9 -8 -7 -6
4 3 2 2 2 1 1 1 -0 -1 -2 -2 -3 -4 -5 -6 -7 -8 -9 -9 -10 -10 -10 -10 -10 -10 -10 -11 -11 -11 -11 -11 -11 -11 -11 -10 -10 -9 -9 -9 -8 -7 -6
4 3 2 2 1 1 1 0 -0 -1 -2 -3 -4 -5 -5 -6 -7 -8 -9 -9 -10 -10 -10 -11 -11 -10 -10 -11 -11 -11 -11 -11 -11 -11 -11 -11 -11 -10 -9 -9 -8 -7 -6

GEFSSE_850_meantemp_048.txt.gz
Temperature
8 8 7 7 7 7 7 7 7 6 6 6 6 6 6 6 6 6 6 6 6 6 6 7 7 8 8 9 9 9 9 9 9 10 11 12 13 13 13 13 13 14 14
8 8 7 7 7 7 7 7 6 6 6 5 5 5 5 5 5 5 5 5 5 5 5 5 5 6 6 7 8 8 9 9 9 9 10 11 12 12 12 12 12 13 13
8 8 8 7 7 7 7 7 6 6 5 5 5 5 4 4 4 4 4 4 4 4 4 4 4 4 5 5 6 6 7 8 8 9 10 10 11 11 11 12 12 12 13
8 8 8 8 7 7 7 7 6 6 5 5 4 4 4 4 4 3 3 3 3 3 3 3 3 3 3 4 4 4 5 6 7 8 9 9 10 10 10 10 10 11 12
8 8 8 8 8 7 7 7 6 6 5 5 4 4 4 3 3 3 3 3 2 2 2 2 2 2 2 3 3 3 3 3 4 7 8 8 8 8 8 9 8 9 10
8 8 8 8 8 8 7 7 6 6 5 4 4 3 3 3 3 3 2 2 2 2 2 1 1 1 1 1 2 2 2 2 3 5 6 6 7 7 7 6 6 6 7
8 8 8 8 8 7 7 7 6 5 4 4 3 3 3 3 2 2 2 2 1 1 1 1 1 1 1 1 1 1 1 1 3 4 4 5 5 5 5 4 4 4 5
8 8 8 8 7 7 7 7 6 5 5 4 4 3 4 3 3 2 2 2 1 1 1 1 1 1 1 1 0 0 -0 1 2 3 3 3 4 4 3 3 3 3 4
8 8 8 7 7 7 7 6 6 5 5 5 4 4 4 4 4 3 3 2 2 2 1 1 1 1 1 1 1 -0 -0 1 1 2 2 2 2 1 1 2 2 2 2
7 7 7 7 7 7 6 6 6 5 5 5 4 4 4 4 4 3 3 3 2 2 2 1 1 1 1 1 1 -0 0 1 1 1 1 0 -0 -1 -1 -0 0 1 1
7 7 7 6 6 6 6 6 6 5 5 5 4 4 4 3 3 3 3 3 2 2 1 1 0 0 0 0 -0 -0 -0 -0 -1 -1 -1 -1 -3 -3 -3 -2 -2 -1 0
7 7 7 6 6 6 6 6 5 5 5 4 4 4 3 3 3 3 2 2 1 1 1 0 -0 -1 -1 -1 -1 -1 -2 -2 -2 -2 -2 -3 -4 -5 -4 -4 -3 -2 -2
7 7 6 6 6 6 6 5 5 5 4 4 4 3 3 3 2 2 1 1 0 -0 -1 -1 -2 -2 -3 -3 -3 -3 -3 -3 -3 -3 -3 -4 -5 -6 -6 -5 -5 -4 -3
7 6 6 6 6 6 5 5 5 5 4 4 3 3 2 2 2 1 0 -0 -1 -2 -3 -3 -4 -4 -4 -5 -5 -5 -5 -5 -5 -5 -5 -5 -5 -6 -6 -6 -6 -5 -4
7 6 6 6 6 6 5 5 5 4 4 3 3 2 2 1 1 -0 -1 -2 -3 -3 -4 -5 -5 -5 -5 -6 -6 -6 -6 -6 -6 -6 -6 -6 -6 -7 -7 -7 -7 -6 -5
7 7 6 6 6 6 5 5 4 4 3 3 2 2 1 0 -0 -1 -2 -2 -3 -4 -5 -5 -6 -6 -6 -6 -7 -7 -7 -6 -6 -7 -7 -7 -7 -7 -8 -8 -7 -7 -6
8 7 7 6 6 6 5 5 4 4 3 3 2 1 0 -0 -1 -2 -2 -3 -4 -4 -5 -5 -6 -6 -7 -7 -7 -7 -7 -7 -7 -7 -7 -8 -8 -8 -8 -8 -8 -8 -7
8 7 7 7 6 6 5 4 4 4 3 2 1 1 -0 -1 -1 -2 -3 -3 -4 -4 -5 -6 -6 -7 -7 -7 -8 -8 -8 -8 -8 -8 -8 -8 -8 -8 -9 -9 -9 -9 -8
8 7 7 7 6 5 5 4 4 3 3 2 1 1 -0 -1 -2 -2 -3 -3 -4 -5 -5 -6 -7 -8 -8 -8 -9 -9 -9 -8 -8 -8 -8 -8 -9 -9 -9 -9 -10 -9 -9
8 7 7 7 6 5 5 4 4 3 2 2 1 0 -0 -1 -2 -2 -3 -3 -4 -5 -6 -7 -7 -8 -8 -9 -9 -9 -9 -9 -8 -9 -9 -9 -9 -9 -9 -10 -10 -10 -10
8 8 7 7 6 5 5 4 4 3 2 1 1 0 -0 -1 -2 -3 -3 -4 -5 -5 -6 -7 -8 -9 -9 -9 -10 -10 -10 -9 -9 -9 -10 -10 -9 -9 -10 -10 -10 -10 -10
9 9 8 7 6 6 5 4 4 3 2 2 1 0 -0 -1 -2 -3 -3 -4 -5 -6 -7 -8 -9 -9 -9 -10 -11 -11 -11 -11 -10 -10 -10 -10 -10 -10 -10 -10 -10 -10 -10
10 10 9 8 7 6 5 4 3 3 2 2 1 0 -1 -1 -2 -3 -4 -4 -5 -6 -7 -8 -9 -9 -10 -10 -11 -11 -12 -11 -11 -11 -10 -10 -10 -10 -10 -10 -10 -10 -10
12 11 10 8 7 6 5 4 3 3 2 2 1 0 -1 -1 -2 -3 -4 -5 -6 -7 -8 -8 -9 -10 -10 -11 -11 -11 -11 -12 -12 -12 -11 -11 -11 -11 -11 -11 -10 -10 -10
13 11 10 9 7 6 5 4 3 3 2 1 1 0 -1 -1 -2 -3 -4 -5 -6 -7 -8 -9 -9 -10 -10 -11 -11 -11 -11 -11 -12 -12 -12 -12 -11 -11 -11 -11 -10 -10 -10
13 12 10 9 7 6 5 4 3 3 2 1 1 -0 -1 -1 -2 -3 -4 -5 -6 -7 -8 -9 -9 -10 -10 -11 -11 -11 -11 -12 -12 -12 -13 -13 -12 -12 -11 -11 -11 -10 -10

GEFSSE_850_meantemp_054.txt.gz
Temperature
10 9 8 8 8 8 8 8 8 8 8 7 7 7 7 6 6 6 6 6 6 6 6 6 6 6 6 6 6 7 7 7 8 9 10 10 11 11 12 12 13 14 13
10 9 8 8 8 8 8 8 8 8 7 7 7 6 6 6 6 5 5 5 5 5 5 5 5 5 5 6 6 6 6 7 8 9 9 9 10 10 10 11 11 12 12
10 9 8 8 8 8 8 8 8 7 7 7 6 6 6 5 5 5 5 4 4 4 4 4 5 5 5 5 5 5 5 6 8 8 8 9 9 9 9 9 10 10 11
9 9 9 8 8 8 8 8 7 7 7 6 6 6 5 5 5 4 4 4 4 3 3 3 4 4 4 4 4 4 5 6 8 8 8 8 8 8 7 7 8 8 9
9 9 9 8 8 8 8 8 7 7 6 6 6 5 5 5 4 4 4 3 3 3 3 3 3 3 3 3 4 4 5 6 8 8 7 7 7 7 6 5 6 6 7
9 9 8 8 8 8 8 8 7 7 6 6 6 6 5 5 4 4 3 3 3 2 2 2 2 3 3 3 4 4 5 6 7 7 7 7 7 6 4 4 4 4 5
9 9 8 8 8 8 8 7 7 7 6 6 6 6 5 5 4 4 3 3 2 2 2 2 3 3 3 4 3 3 4 6 6 6 6 6 6 5 3 3 3 3 4
9 9 8 8 8 8 8 7 7 7 6 6 6 6 6 5 4 4 3 3 3 3 3 3 3 3 4 4 4 3 4 4 4 5 5 5 5 4 3 2 2 2 2
8 8 8 8 8 8 8 7 7 7 6 6 6 6 5 5 4 4 4 3 3 3 3 3 3 4 4 4 3 3 3 3 3 3 3 3 3 3 2 1 1 1 1
8 8 8 8 8 8 7 7 7 7 6 6 6 5 5 4 4 4 4 4 3 3 3 3 3 3 3 3 3 2 2 2 2 2 2 2 2 1 1 1 1 0 0
8 8 8 7 7 7 7 7 7 6 6 6 5 5 5 4 4 4 4 3 3 3 3 3 3 3 2 2 2 1 1 1 1 1 1 1 0 -1 -1 -1 -1 -1 -1
10 9 8 8 7 7 7 7 7 6 6 6 5 5 5 4 4 4 3 3 3 3 3 2 2 2 2 1 1 0 -0 -0 -1 -1 -1 -1 -2 -2 -2 -2 -2 -2 -2
11 9 9 8 8 7 7 7 6 6 6 6 5 5 4 4 4 3 3 3 3 2 2 2 1 1 1 0 -0 -1 -1 -2 -3 -3 -3 -3 -3 -4 -4 -4 -4 -3 -3
11 10 9 8 8 7 7 7 6 6 6 6 5 5 4 4 4 3 3 3 2 2 2 1 1 0 -0 -1 -2 -2 -3 -4 -4 -4 -5 -5 -5 -5 -5 -5 -5 -5 -4
11 10 9 8 8 7 7 7 6 6 6 5 5 5 4 4 3 3 2 2 2 1 1 1 -0 -1 -2 -2 -3 -4 -4 -5 -5 -5 -6 -6 -6 -6 -6 -6 -6 -6 -5
12 11 9 8 8 7 7 7 6 6 5 5 5 5 4 4 3 2 2 2 1 1 0 -0 -1 -2 -3 -4 -4 -5 -5 -5 -6 -6 -6 -6 -6 -7 -7 -7 -7 -7 -6
12 11 10 9 8 7 7 6 6 6 5 5 5 4 4 3 3 2 2 1 1 -0 -1 -1 -2 -3 -4 -5 -5 -5 -5 -5 -6 -6 -6 -7 -7 -7 -7 -8 -8 -8 -7
12 11 10 9 8 8 7 7 6 5 5 5 4 4 4 3 2 2 1 1 0 -1 -1 -2 -3 -3 -4 -5 -5 -5 -5 -5 -6 -6 -6 -7 -7 -8 -8 -8 -8 -8 -8
12 11 10 9 9 8 7 7 6 5 5 5 4 4 4 3 2 2 1 0 -0 -1 -2 -3 -3 -4 -5 -6 -6 -5 -5 -5 -5 -6 -7 -7 -8 -8 -8 -8 -9 -9 -9
12 11 11 10 9 8 7 6 5 5 5 5 4 4 3 3 2 1 1 0 -1 -1 -2 -3 -4 -4 -5 -6 -7 -6 -5 -5 -5 -6 -7 -7 -8 -8 -8 -9 -9 -9 -9
13 12 11 10 10 8 8 7 6 6 6 5 4 4 3 3 2 1 1 0 -1 -1 -2 -3 -4 -4 -4 -6 -7 -7 -6 -5 -6 -6 -7 -7 -8 -8 -9 -9 -9 -9 -9
14 13 13 12 11 10 9 8 7 6 5 5 4 3 3 3 2 1 1 0 -1 -2 -2 -3 -4 -5 -5 -6 -8 -9 -9 -8 -8 -8 -7 -8 -8 -8 -9 -9 -9 -9 -10
15 15 15 14 13 12 10 8 6 5 5 5 4 4 4 3 2 1 1 0 -1 -2 -2 -3 -4 -5 -6 -6 -7 -9 -10 -10 -11 -9 -8 -8 -8 -9 -9 -9 -9 -10 -10
17 17 16 15 14 13 11 9 8 7 7 7 6 4 3 2 2 1 1 -0 -1 -2 -2 -3 -4 -5 -6 -6 -7 -8 -9 -10 -11 -11 -10 -9 -9 -9 -9 -9 -10 -10 -10
18 17 16 15 14 13 12 11 9 8 7 6 5 4 3 3 2 1 0 -0 -1 -2 -2 -3 -4 -5 -6 -7 -8 -8 -9 -10 -10 -12 -12 -10 -10 -10 -10 -10 -10 -10 -10
18 18 17 16 15 14 13 12 10 9 8 6 5 4 3 3 2 1 0 -0 -1 -2 -2 -3 -4 -5 -6 -7 -7 -8 -9 -10 -10 -11 -12 -11 -11 -10 -10 -11 -11 -10 -10

GEFSSE_850_meantemp_060.txt.gz
Temperature
11 10 10 9 9 9 9 9 9 8 8 8 7 7 7 7 6 6 6 6 6 6 6 6 6 6 6 6 7 8 9 10 10 10 10 10 10 10 10 11 11 11 11
12 10 10 9 9 9 9 9 9 9 8 8 7 7 7 7 6 6 6 6 6 6 6 5 5 5 5 6 6 7 9 9 10 10 10 10 9 8 9 10 10 10 10
11 10 9 9 9 9 9 9 9 9 8 8 7 7 7 7 6 6 6 5 5 5 5 5 5 5 5 5 5 7 8 9 9 9 9 9 8 7 7 7 8 9 9
11 10 9 9 9 9 9 9 9 9 8 8 8 7 7 7 6 6 6 5 5 5 5 5 5 4 4 5 5 6 8 8 9 9 9 8 8 6 6 6 6 7 7
10 10 9 9 9 9 9 9 9 9 9 8 8 8 7 7 6 6 6 5 5 5 5 5 5 5 5 5 5 6 7 8 8 8 8 8 7 5 5 5 5 6 6
11 9 9 9 9 9 9 9 9 9 9 9 8 8 7 7 7 6 6 6 5 5 5 5 5 5 5 5 6 6 7 7 7 8 8 7 7 5 5 5 5 5 5
11 9 9 9 9 9 9 9 9 9 9 9 9 8 8 7 7 6 6 6 5 5 5 5 5 5 5 6 6 6 7 7 7 7 7 7 7 6 5 5 5 5 5
11 10 9 9 9 9 9 9 9 9 9 9 9 8 8 7 7 6 6 5 5 5 5 5 5 6 6 6 6 6 6 6 6 6 6 6 6 5 4 4 4 4 4
10 10 9 9 9 9 9 9 9 9 9 8 8 8 7 7 7 6 6 5 5 5 5 5 5 5 5 5 6 6 5 5 5 5 5 5 5 4 3 3 3 3 3
10 10 9 9 8 9 9 9 9 9 8 8 8 8 7 7 6 6 5 5 5 5 5 5 5 5 5 5 5 5 5 5 4 4 4 4 4 4 3 3 3 3 2
11 10 10 9 9 9 8 8 8 8 8 8 8 7 7 6 6 6 6 5 5 5 5 5 5 5 5 5 4 4 4 4 4 3 3 3 3 3 2 2 2 2 2
13 11 10 10 9 9 8 8 8 8 8 7 7 7 7 6 6 6 5 5 5 5 5 5 5 4 4 4 4 4 3 3 3 2 2 2 2 2 1 1 1 0 0
13 12 11 10 10 9 8 8 8 8 8 7 7 7 6 6 6 6 5 5 5 5 4 4 4 4 4 4 3 3 2 2 2 2 1 1 1 1 -0 -1 -1 -2 -2
13 13 12 11 10 9 8 8 8 8 7 7 7 7 6 6 6 6 5 5 5 4 4 4 4 3 3 3 3 2 2 1 1 1 1 0 -0 -1 -1 -2 -3 -3 -3
14 13 12 11 11 10 9 8 8 8 8 7 7 6 6 6 6 5 5 5 4 4 4 3 3 3 3 2 2 2 1 1 0 -0 -0 -1 -1 -2 -2 -3 -4 -4 -4
14 13 13 12 11 10 9 9 8 8 8 7 7 6 6 6 6 5 5 5 4 4 3 3 3 2 2 2 2 1 1 0 -0 -1 -1 -2 -2 -2 -3 -4 -5 -5 -5
15 14 13 12 11 10 10 9 8 8 7 7 7 6 6 6 6 5 5 4 4 4 3 3 2 2 2 2 1 1 1 0 -0 -1 -2 -2 -3 -3 -4 -4 -5 -6 -6
15 14 14 13 12 11 10 9 8 8 8 7 7 7 6 6 5 5 5 4 4 3 3 2 2 2 1 1 1 0 0 -0 -0 -1 -2 -3 -3 -4 -5 -5 -6 -6 -6
15 15 14 13 12 12 11 10 9 8 8 7 7 7 6 6 6 5 5 4 4 3 3 2 2 1 1 0 0 0 -0 -0 -1 -1 -2 -3 -3 -4 -5 -5 -6 -6 -7
16 15 14 13 13 12 11 10 9 9 8 8 7 7 7 6 6 5 5 4 4 3 3 2 1 1 1 -0 -1 -1 -1 -1 -1 -1 -2 -3 -3 -4 -5 -5 -6 -6 -7
16 15 15 14 13 12 11 11 10 10 10 9 8 8 7 7 6 5 5 4 4 3 3 2 1 1 0 -1 -2 -3 -3 -2 -1 -2 -2 -3 -3 -4 -4 -5 -6 -6 -7
17 16 16 15 14 13 13 13 12 11 10 10 9 9 8 7 6 5 5 4 4 3 2 2 1 1 -0 -1 -3 -5 -4 -4 -4 -3 -3 -3 -3 -4 -4 -5 -6 -6 -7
17 17 17 16 15 15 14 13 11 10 10 10 10 10 9 8 7 6 5 4 4 3 3 2 1 0 -0 -2 -2 -4 -5 -4 -4 -5 -5 -4 -4 -4 -5 -6 -6 -7 -7
18 17 17 16 16 15 14 13 13 13 13 13 12 11 10 9 8 7 6 5 4 3 3 2 1 0 -0 -1 -3 -3 -4 -5 -7 -6 -5 -6 -6 -6 -6 -7 -7 -7 -8
18 18 17 17 16 16 15 15 14 13 14 12 11 11 11 10 9 8 7 5 4 4 3 2 1 1 -0 -1 -2 -3 -4 -6 -7 -9 -7 -6 -6 -6 -6 -7 -7 -7 -8
18 18 17 17 17 16 16 15 15 15 14 13 12 12 11 11 10 9 7 6 5 4 3 2 1 1 -0 -1 -2 -3 -4 -6 -6 -7 -7 -7 -6 -6 -6 -7 -7 -7 -7

GEFSSE_850_meantemp_066.txt.gz
Temperature
13 14 13 12 11 11 10 10 9 9 9 8 8 8 8 8 7 7 7 7 7 7 7 7 7 7 7 8 10 10 10 10 10 10 9 9 8 8 9 9 10 10 10
15 14 13 12 12 11 10 10 10 9 9 8 8 8 7 7 7 7 7 7 7 6 6 6 6 6 7 7 9 9 10 10 10 10 9 9 7 7 8 8 8 8 9
14 14 13 12 12 11 11 10 10 9 9 8 8 8 7 7 7 7 7 7 6 6 6 6 6 6 6 7 8 8 9 9 9 9 9 8 7 6 6 7 7 7 8
14 14 13 12 12 11 11 11 10 10 9 9 8 8 8 7 7 7 7 6 6 6 6 6 6 6 7 7 7 8 8 8 8 8 9 8 7 6 6 6 6 6 7
14 13 13 12 12 11 11 11 10 10 10 9 9 8 8 7 7 7 7 7 6 6 6 6 6 6 7 7 7 8 8 8 8 8 8 8 7 5 5 5 5 5 6
14 13 13 12 12 12 11 11 10 10 10 9 9 9 8 8 8 8 7 7 7 7 6 6 7 7 7 7 8 8 8 8 8 8 8 8 7 5 5 5 6 5 5
13 13 13 13 12 12 11 11 10 10 10 10 9 9 9 9 8 8 8 8 7 7 7 7 7 7 7 8 8 8 8 8 8 8 8 8 7 6 6 6 6 6 6
13 12 13 12 12 11 11 11 10 10 10 10 10 9 9 9 9 8 8 8 8 7 7 7 7 7 7 7 7 7 8 8 8 7 8 7 7 6 6 6 6 6 6
12 12 13 12 12 11 11 11 10 10 10 10 10 9 9 9 9 8 8 8 8 8 7 7 7 7 7 7 7 7 7 7 7 7 7 7 7 6 6 6 6 5 6
12 12 12 12 12 11 11 11 10 10 10 10 10 9 9 9 9 8 8 8 8 8 7 7 7 7 7 7 7 7 7 7 7 7 7 7 7 6 6 5 5 5 5
12 11 11 12 12 11 11 11 10 10 10 10 10 10 9 9 9 8 8 8 8 8 7 7 7 7 7 7 7 7 7 6 6 7 7 6 6 6 5 5 5 5 4
13 12 12 11 11 11 11 10 10 10 10 10 10 10 9 9 9 9 8 8 8 8 8 7 7 7 7 7 7 6 6 6 6 6 6 6 6 6 5 5 5 4 4
15 14 13 11 10 10 10 10 10 10 10 10 10 10 9 9 9 9 9 8 8 8 8 7 7 7 7 6 6 6 6 6 6 6 6 5 5 5 5 5 4 4 4
15 15 14 13 11 10 10 10 10 10 11 11 10 10 10 9 9 9 9 8 8 8 8 7 7 7 7 6 6 6 6 6 5 5 5 5 5 5 5 4 4 4 3
15 15 15 13 12 11 10 10 10 10 11 11 11 10 10 10 9 9 8 8 8 8 8 7 7 6 6 6 6 6 5 5 5 5 5 5 4 4 4 4 3 3 2
15 15 15 14 13 12 11 11 11 11 11 11 11 10 10 10 9 9 9 8 8 8 7 7 7 6 6 6 6 5 5 5 5 4 4 4 4 4 4 3 3 2 2
15 15 15 15 14 13 12 12 11 11 11 11 11 11 10 10 10 9 9 8 8 8 7 7 6 6 6 6 5 5 5 5 4 4 4 4 4 4 3 3 2 2 1
15 14 14 14 13 13 13 12 12 11 11 11 11 11 11 10 9 9 9 8 8 7 7 7 6 6 6 5 5 5 5 4 4 4 4 3 3 3 3 2 2 2 1
15 14 14 13 14 13 13 12 12 11 11 11 11 11 11 10 10 9 9 8 8 7 7 7 6 6 6 5 5 5 4 4 4 4 3 3 3 3 3 2 2 1 1
16 14 14 13 13 12 12 11 11 10 11 10 11 11 11 11 10 9 9 8 8 7 7 7 6 6 6 5 4 4 4 4 4 3 3 3 3 3 2 2 1 1 1
16 15 14 13 12 12 11 11 11 12 12 11 11 11 10 10 10 10 9 9 8 8 8 7 6 6 5 5 4 3 4 4 4 3 3 3 3 2 2 1 1 1 0
16 15 14 13 13 12 12 13 13 12 12 12 11 10 10 10 10 10 10 9 9 8 8 7 7 6 5 5 4 3 2 2 3 3 3 3 3 2 2 1 1 0 -0
16 15 14 13 12 12 12 11 11 10 10 10 10 11 11 10 10 10 10 9 9 8 8 8 7 6 6 5 4 3 2 3 2 1 1 1 2 1 1 1 0 -0 -1
16 15 14 13 12 12 11 11 11 11 11 13 12 12 11 10 10 10 10 9 9 8 8 8 7 6 5 5 4 3 3 3 2 1 -0 -0 0 0 1 0 0 -0 -1
15 14 14 13 12 11 10 10 10 10 11 11 10 10 10 9 9 9 9 9 8 8 8 7 6 5 5 4 4 4 2 1 1 0 -1 -0 -1 -0 -0 -0 -1 -1 -1
14 14 13 12 12 11 10 9 9 9 9 9 8 8 8 8 8 8 8 8 8 7 7 6 5 4 4 3 3 3 3 2 2 1 0 0 -0 -0 -1 -1 -1 -1 -2

GEFSSE_850_meantemp_072.txt.gz
Temperature
15 14 14 13 13 13 13 12 11 11 11 10 10 9 9 9 9 8 8 8 8 8 8 8 8 8 9 9 9 10 10 10 10 10 9 9 8 9 9 10 11 11 11
17 15 14 14 13 13 13 12 12 11 11 10 10 9 9 9 9 8 8 8 8 8 8 8 8 8 8 9 9 9 10 10 10 10 10 9 8 8 8 9 9 9 10
17 16 14 14 14 13 13 13 12 11 11 10 10 9 9 9 8 8 8 8 8 8 7 7 7 8 8 9 9 9 10 10 10 10 9 9 8 7 8 8 8 8 9
17 16 15 14 14 13 13 13 12 12 11 10 10 9 9 9 8 8 8 8 8 8 7 7 7 7 8 8 8 9 9 10 9 9 9 9 8 7 7 7 7 8 8
17 16 15 14 14 13 13 13 13 12 11 10 10 9 9 9 8 8 8 8 8 8 8 8 7 8 8 8 8 8 9 9 9 9 9 8 7 6 6 6 7 7 7
18 16 15 14 13 13 13 13 13 12 11 11 10 10 9 9 9 9 9 9 9 8 8 8 8 8 8 8 8 8 9 9 9 9 8 8 7 6 6 6 6 6 6
18 17 15 14 13 13 13 13 12 12 12 11 10 10 9 9 9 9 9 9 9 9 9 9 8 8 8 8 8 8 9 9 8 8 8 8 7 6 6 6 6 6 6
18 17 16 14 13 12 12 12 12 12 12 11 11 10 10 10 10 10 10 9 9 9 9 9 9 9 9 9 9 8 9 9 8 8 8 8 7 6 6 6 6 6 6
17 17 16 14 13 12 12 12 12 12 12 11 11 11 10 10 10 10 10 10 10 9 9 9 9 9 9 9 9 8 9 8 8 8 8 8 7 6 6 6 6 6 6
16 16 15 15 13 12 12 12 12 12 12 12 11 11 11 11 10 10 10 10 10 10 9 9 9 9 9 9 9 8 8 8 8 8 8 8 7 7 6 7 7 6 6
15 15 15 14 14 13 12 12 11 11 11 11 11 11 11 11 11 10 10 10 10 10 9 9 9 9 9 9 8 8 8 8 8 8 8 8 7 7 7 7 7 7 7
17 16 15 14 14 13 12 12 12 12 11 12 12 11 11 11 11 10 10 10 10 10 9 9 9 9 9 9 9 8 8 8 8 8 8 8 8 7 7 7 7 6 6
18 17 16 15 14 13 12 12 12 12 12 12 12 11 11 11 11 11 10 10 10 10 10 9 9 9 9 9 9 8 8 8 8 8 8 8 7 7 7 7 7 6 6
17 17 16 15 14 13 13 12 12 12 12 12 12 12 11 11 11 11 11 10 10 10 9 9 9 9 9 9 8 8 8 8 8 8 8 8 7 7 7 7 7 6 6
17 17 16 16 15 14 13 12 12 12 12 12 12 12 11 11 11 11 10 10 10 9 9 9 9 9 9 8 8 8 8 8 8 8 8 7 7 7 7 7 6 6 6
17 17 16 16 15 14 13 13 13 12 12 11 11 11 11 11 11 11 10 10 10 9 9 9 8 8 8 8 8 8 8 8 8 8 7 7 7 7 7 7 6 6 6
18 17 16 16 15 14 14 13 13 12 12 12 12 11 11 11 11 10 10 10 10 9 9 8 8 8 8 8 8 8 8 8 8 7 7 7 7 7 7 6 6 6 6
18 18 17 15 15 14 14 13 13 12 12 12 11 11 11 11 10 10 10 10 9 9 8 8 8 8 8 8 8 8 8 7 7 7 7 7 7 7 6 6 6 6 5
19 18 17 16 15 15 14 13 12 12 11 11 11 11 11 10 10 10 10 10 9 9 8 8 8 8 8 8 8 7 7 7 7 7 7 7 7 7 6 6 6 5 5
18 18 17 16 15 14 13 12 11 11 10 10 10 10 10 10 9 9 9 9 9 8 8 8 8 8 7 7 7 7 7 7 7 7 7 7 7 7 6 6 6 5 5
18 17 17 16 15 14 13 12 12 11 11 11 10 10 9 9 9 9 8 8 8 8 8 8 7 7 7 6 6 6 6 7 7 7 7 7 7 7 7 6 6 5 5
17 17 16 16 15 14 14 13 13 12 11 11 10 9 9 9 8 8 8 7 7 7 7 7 7 6 6 6 5 5 4 6 7 8 8 8 8 7 7 6 6 6 5
16 16 15 15 15 14 14 13 12 11 11 10 10 10 10 9 8 8 7 7 7 6 6 6 6 6 6 5 5 4 4 4 6 7 7 7 7 7 7 6 6 5 5
15 15 15 14 14 13 13 12 12 11 11 11 11 10 10 9 8 8 7 7 6 6 6 6 5 5 5 4 4 4 4 4 3 4 5 5 5 5 5 5 5 5 5
15 15 14 14 13 13 12 12 11 11 11 10 10 9 9 9 8 8 7 7 6 6 6 5 5 5 4 4 4 4 3 3 2 1 2 3 3 4 4 4 4 4 4
14 14 13 13 13 12 11 11 11 10 10 9 9 9 9 8 8 7 7 6 6 6 6 5 5 5 4 4 3 3 2 2 1 1 -0 1 1 2 2 2 2 3 3

GEFSSE_850_meantemp_078.txt.gz
Temperature
18 17 16 15 15 14 14 13 12 12 11 11 11 10 10 10 10 9 9 9 9 9 9 9 9 9 9 9 10 10 10 10 10 10 10 9 9 9 10 11 11 11 12
19 18 17 16 15 14 14 13 12 12 11 11 11 10 10 10 9 9 9 9 9 9 9 9 9 9 9 9 10 10 10 10 10 10 10 10 9 9 9 9 9 10 10
19 18 17 16 15 14 14 13 12 12 12 11 10 10 10 10 9 9 9 9 9 9 9 9 9 9 9 9 10 10 10 10 10 10 10 10 9 8 8 8 9 9 9
19 18 17 16 15 14 13 13 12 12 12 11 10 10 10 9 9 9 9 9 9 9 9 9 9 9 9 10 10 10 10 10 10 10 10 9 8 7 8 8 8 8 8
19 18 17 16 15 14 13 13 12 12 12 11 10 10 10 9 9 9 9 9 9 9 9 9 9 9 9 10 10 10 10 10 10 10 10 9 8 7 7 7 8 8 8
19 18 17 16 15 14 13 12 12 12 11 11 10 10 10 9 9 9 9 9 9 9 9 9 9 9 9 9 10 10 10 10 10 10 9 9 8 7 7 7 7 7 7
19 18 17 16 14 13 12 12 12 12 11 11 10 10 10 9 9 9 10 10 9 9 9 9 9 9 9 9 9 10 10 10 9 9 9 9 8 7 7 7 7 7 7
19 18 17 15 14 13 12 12 11 11 11 11 10 10 10 9 9 9 10 10 9 9 9 9 9 9 9 9 9 9 9 9 9 9 9 9 8 7 7 7 7 7 7
18 17 17 16 13 12 12 11 11 11 11 10 10 10 10 9 9 9 9 9 9 9 9 9 9 9 9 9 9 9 9 9 9 9 9 9 8 7 7 7 7 7 7
18 17 16 15 14 12 11 11 11 10 10 10 10 10 10 9 9 9 9 9 9 9 9 9 9 9 9 9 9 9 9 9 9 9 9 8 8 8 7 8 8 7 7
18 17 16 15 15 13 12 11 10 10 10 10 10 10 10 10 10 9 9 9 9 9 9 9 9 9 9 9 9 9 9 9 9 9 8 8 8 8 8 8 8 8 8
19 18 17 16 15 14 12 11 10 10 10 9 10 10 10 10 10 10 10 9 9 9 9 9 9 9 9 9 9 9 9 8 8 8 8 8 8 8 7 7 8 8 8
18 18 17 16 15 14 13 12 11 10 10 10 10 10 10 10 10 10 10 10 9 9 9 9 9 9 9 8 8 8 8 8 8 8 8 8 8 8 7 7 7 7 7
18 18 17 16 15 14 13 12 12 11 11 11 10 10 10 10 10 10 10 10 9 9 9 9 9 8 8 8 8 8 8 8 8 8 8 8 8 8 7 7 6 6 6
17 17 17 16 15 14 13 13 12 12 11 11 10 10 10 10 10 10 10 9 9 9 9 9 8 8 8 8 8 8 8 8 8 8 8 8 8 8 7 7 6 6 5
18 17 17 16 15 14 14 13 13 12 11 11 10 10 10 10 10 10 9 9 9 9 9 8 8 8 8 8 8 8 8 8 8 8 8 8 7 7 7 7 6 5 5
17 17 16 16 15 14 14 13 12 12 11 11 10 10 10 9 9 9 9 9 9 8 8 8 8 8 8 8 8 8 8 8 8 8 7 7 7 7 7 7 7 6 5
18 17 16 16 15 15 14 13 12 12 11 11 10 10 10 9 9 9 9 9 8 8 8 7 7 7 7 7 7 7 7 7 7 7 7 7 7 7 7 7 7 7 6
18 17 16 16 15 15 14 13 12 12 11 11 10 10 10 9 9 9 8 8 8 8 7 7 7 7 7 7 7 7 7 7 7 7 7 7 7 7 7 7 7 7 7
17 17 16 15 15 14 13 13 12 11 11 11 10 10 10 9 9 9 8 8 8 7 7 7 7 7 7 6 6 6 6 7 7 7 7 7 7 8 8 8 7 7 7
17 16 16 15 14 14 13 13 12 12 11 11 11 10 10 9 9 9 8 8 8 7 7 7 6 6 6 6 5 5 6 6 6 7 7 8 8 8 8 8 8 7 7
16 16 15 15 14 13 13 12 11 11 11 11 10 10 10 9 9 9 8 8 8 7 7 6 6 6 6 5 5 5 4 5 6 7 7 8 8 8 8 8 8 8 7
15 15 14 14 13 13 12 11 11 11 11 10 10 10 10 9 9 8 8 8 7 7 7 6 6 6 5 5 5 4 3 4 5 5 5 5 5 6 6 6 6 7 7
14 13 13 13 13 12 12 11 11 11 10 10 10 9 9 9 8 8 8 7 7 7 6 6 6 5 5 4 4 4 4 4 3 3 4 4 4 4 4 5 5 5 5
13 13 12 12 12 12 11 11 11 10 10 10 9 9 9 9 8 8 8 7 7 6 6 6 5 5 5 4 4 4 3 3 2 1 1 2 3 4 4 4 4 4 4
12 12 12 12 11 11 11 10 10 10 10 9 9 9 9 8 8 8 7 7 7 6 6 6 5 5 4 4 3 3 3 2 2 2 0 1 2 3 3 3 3 3 3

GEFSSE_850_meantemp_084.txt.gz
Temperature
19 17 16 15 15 14 13 12 12 12 12 11 11 11 11 10 10 10 10 10 10 9 9 9 10 10 10 11 11 11 11 11 11 11 11 11 10 11 11 12 12 12 13
19 18 17 16 15 14 13 12 12 12 12 11 11 11 10 10 10 10 10 9 9 9 9 9 9 10 10 10 11 11 11 11 11 11 11 10 10 10 10 11 11 11 12
19 18 17 16 15 14 13 13 12 12 12 11 11 10 10 10 10 9 9 9 9 9 9 9 9 9 10 10 11 11 11 11 11 11 10 10 9 9 10 10 10 10 11
19 18 17 16 15 14 13 13 12 12 12 11 11 10 10 10 10 9 9 9 9 9 9 9 9 9 10 10 11 11 11 11 11 11 10 9 9 9 9 9 9 10 10
19 18 17 17 16 15 13 13 12 12 12 11 11 10 10 10 9 9 9 9 9 9 9 9 9 9 9 10 11 11 11 11 10 10 9 9 9 8 9 9 9 9 9
19 18 17 17 16 15 14 13 12 12 11 11 11 10 10 10 9 9 9 9 9 9 9 9 9 9 9 10 10 11 10 10 10 9 9 9 8 8 8 8 9 9 9
19 18 17 16 15 14 14 13 12 12 11 11 11 10 10 9 9 9 9 9 9 9 9 9 9 9 9 10 10 10 10 10 9 9 9 9 8 8 8 8 8 8 8
18 18 17 16 15 14 13 13 12 12 11 11 10 10 10 9 9 9 9 9 9 9 9 9 9 9 9 9 10 10 10 10 9 9 9 8 8 8 8 8 8 8 8
18 18 17 16 15 14 13 13 12 11 11 11 10 10 10 9 9 9 9 9 9 9 9 9 9 10 10 10 10 10 9 9 9 9 9 8 8 8 8 8 8 8 8
18 17 16 15 14 13 13 12 12 11 11 10 10 10 10 9 9 9 9 9 9 9 9 9 9 9 10 9 9 9 9 9 9 9 8 8 8 8 8 8 8 8 8
18 17 16 15 14 13 12 11 11 11 10 10 10 10 9 9 8 8 8 9 9 9 9 9 9 9 9 9 9 9 9 9 9 9 9 9 9 8 8 8 8 8 8
18 17 16 15 14 13 12 11 11 10 10 10 9 9 9 9 9 8 9 9 9 9 9 9 9 9 9 8 9 9 9 9 9 9 9 9 9 9 8 7 7 7 7
16 17 16 16 14 13 12 11 11 10 10 10 9 9 9 9 9 9 8 9 9 9 8 8 8 8 8 8 8 9 9 9 9 9 9 9 9 9 9 8 7 7 7
16 16 16 15 15 14 13 12 11 11 10 10 9 9 9 9 9 9 9 8 8 8 8 8 8 8 8 8 8 8 8 9 9 9 9 9 9 9 9 8 8 7 7
17 16 16 15 15 14 13 12 12 11 10 10 10 10 9 9 9 9 9 9 8 8 8 8 8 8 8 8 8 8 8 8 8 9 9 9 9 9 9 9 8 7 7
17 17 16 16 15 14 13 13 12 11 11 10 10 10 9 9 9 9 8 8 8 8 8 8 7 7 7 7 8 8 8 8 8 8 8 9 9 9 9 9 9 8 7
17 17 16 16 15 14 13 12 12 11 10 10 10 10 9 9 9 8 8 8 8 8 8 7 7 7 7 7 7 7 7 8 8 8 8 8 9 9 9 9 9 8 8
17 17 16 16 15 14 13 12 11 11 10 10 9 9 9 9 8 8 8 8 8 7 7 7 7 7 7 7 7 7 7 7 7 8 8 8 8 9 9 9 9 9 8
17 16 16 16 15 14 13 12 11 11 10 10 10 9 9 9 9 8 8 8 7 7 7 7 7 7 6 6 6 6 6 6 7 7 8 8 8 8 9 9 9 9 9
16 16 16 15 14 13 13 12 11 11 11 10 10 10 9 9 9 8 8 8 7 7 7 7 7 7 6 6 6 6 6 6 6 7 7 8 8 8 9 9 9 9 9
15 15 15 14 14 13 13 12 11 11 11 10 10 10 10 9 9 9 8 8 8 7 7 7 7 6 6 6 5 5 5 5 6 6 7 8 8 8 8 9 9 9 9
14 14 14 14 13 13 12 12 11 11 11 11 10 10 10 9 9 9 8 8 8 7 7 7 7 6 6 6 5 4 4 5 6 5 6 6 7 7 7 8 8 8 8
13 13 13 13 12 12 12 12 11 11 11 10 10 10 10 9 9 9 8 8 8 7 7 7 7 6 6 5 4 4 3 5 5 5 4 4 5 5 6 6 7 7 7
13 12 12 12 12 12 11 11 11 10 10 10 9 9 9 9 9 8 8 8 8 7 7 7 7 6 5 5 4 4 4 3 2 3 4 4 4 4 4 4 5 5 6
12 12 12 11 11 11 11 10 10 10 9 9 9 9 8 8 8 8 8 7 7 7 7 7 6 6 5 5 5 4 3 2 1 0 2 3 3 3 3 3 3 3 4
11 11 11 11 11 10 10 10 9 9 9 8 8 8 8 8 7 7 7 7 7 7 6 6 6 5 5 5 4 4 3 2 2 1 1 2 3 3 3 3 2 2 3

GEFSSE_850_meantemp_090.txt.gz
Temperature
18 18 17 16 16 15 14 13 13 12 12 12 12 11 11 11 11 10 10 10 10 10 10 10 10 10 10 11 11 11 11 11 11 11 11 11 11 11 12 12 13 13 13
19 18 17 17 16 15 14 14 13 13 12 12 11 11 11 11 10 10 10 10 10 9 9 10 10 10 10 11 11 11 11 11 11 10 10 10 10 10 11 11 12 12 12
19 19 17 17 16 15 14 14 13 13 12 12 11 11 11 10 10 10 10 10 9 9 10 10 10 10 11 11 11 11 11 11 10 9 10 10 10 10 10 10 11 11 11
19 19 18 17 16 15 14 14 13 13 12 12 11 11 10 10 10 10 10 10 10 10 10 10 10 10 11 11 12 12 12 11 10 9 10 10 10 9 10 10 10 11 11
18 18 18 17 16 15 14 14 13 13 12 11 11 11 10 10 10 10 10 10 10 10 10 10 10 11 11 12 12 12 11 11 10 9 10 10 10 9 9 10 10 10 10
18 18 18 17 16 15 14 14 13 12 12 11 11 10 10 10 10 10 10 10 11 11 11 11 11 11 11 12 12 12 11 11 10 10 10 10 10 9 10 10 10 10 10
18 17 18 17 16 15 14 13 13 12 12 11 11 10 10 10 10 10 10 11 11 11 11 11 11 11 11 11 11 11 11 11 10 10 10 10 10 10 10 10 10 10 10
17 17 17 16 16 15 14 13 12 12 11 11 10 10 10 10 10 10 10 11 11 11 11 11 11 11 11 11 11 11 11 11 10 10 10 10 10 10 10 10 10 11 11
17 16 17 16 15 14 13 13 12 11 11 10 10 10 10 9 9 10 10 10 10 10 11 11 11 11 11 11 11 11 11 11 11 10 10 11 11 10 10 11 11 11 11
17 16 16 16 15 14 13 12 12 11 11 10 10 10 10 9 9 9 9 10 10 10 10 10 11 11 11 11 11 11 11 10 10 10 10 11 11 10 10 11 11 11 11
16 16 15 15 14 13 12 12 11 11 11 10 10 10 9 9 9 9 9 9 9 10 10 10 10 10 10 10 10 10 10 10 10 10 10 10 10 10 10 10 11 11 11
16 15 15 14 14 13 12 12 11 11 10 10 10 10 9 9 9 9 9 9 9 9 9 10 10 10 10 10 10 10 10 10 10 10 10 11 10 10 11 11 11 10 10
16 15 15 14 13 13 12 11 11 11 10 10 10 9 9 9 9 8 8 8 9 9 9 9 9 9 9 9 9 9 10 10 10 10 10 10 10 10 10 11 11 11 10
16 16 15 14 13 12 12 11 11 11 10 10 10 9 9 9 9 9 8 8 8 8 8 8 8 8 8 8 8 9 9 9 10 10 10 10 10 10 10 10 11 11 10
16 15 15 14 13 13 12 11 11 11 11 10 10 9 9 9 9 9 9 8 8 8 8 8 8 8 8 7 7 8 8 9 9 9 10 10 10 10 10 10 10 10 10
15 15 14 14 13 13 12 12 11 11 10 10 10 9 9 9 9 9 8 8 8 8 7 7 7 7 7 7 7 7 8 8 8 9 9 9 10 10 10 10 10 10 10
15 14 14 14 13 13 12 12 11 11 10 10 10 9 9 9 9 9 8 8 8 8 7 7 7 7 7 7 7 7 7 7 8 8 8 8 9 9 10 10 10 10 10
15 14 14 14 13 12 12 11 11 10 10 10 10 9 9 9 9 9 8 8 8 8 8 7 7 7 7 7 7 7 7 7 7 7 8 8 8 9 9 9 10 10 9
14 14 14 14 13 12 12 11 11 10 10 10 10 9 9 9 8 8 8 8 8 8 7 7 7 7 7 7 7 7 7 7 7 7 8 8 8 8 9 9 9 9 9
14 14 14 14 13 12 12 11 11 10 10 10 10 9 9 9 9 8 8 8 8 8 7 7 7 7 7 6 6 6 6 7 7 7 8 8 8 8 8 8 8 8 8
14 14 13 13 13 12 12 11 11 10 10 10 10 9 9 9 9 8 8 8 8 8 7 7 7 6 6 6 5 6 6 7 7 8 8 8 7 7 7 7 7 7 7
13 13 13 13 12 12 12 11 11 10 10 10 9 9 9 9 9 8 8 8 8 7 7 7 7 6 6 6 5 4 4 5 6 6 7 7 7 7 6 6 6 6 6
13 13 13 13 12 12 12 12 11 10 10 9 9 9 9 9 8 8 8 8 8 7 7 7 6 6 6 6 5 4 4 4 4 5 6 6 6 6 6 5 5 5 5
13 13 12 12 12 12 12 11 11 10 9 9 9 8 8 8 8 8 8 7 7 7 7 7 6 6 5 5 5 5 4 4 3 3 3 4 5 5 5 5 5 5 5
12 12 12 12 12 12 11 11 10 10 9 9 8 8 8 7 7 7 7 7 7 7 6 6 6 6 5 5 5 4 4 4 3 2 2 3 4 4 4 4 4 4 4
12 12 12 11 11 11 11 10 10 9 9 8 8 7 7 7 7 6 6 6 6 6 6 6 5 5 5 5 4 4 4 3 3 3 2 2 2 3 3 3 3 3 4

GEFSSE_850_meantemp_096.txt.gz
Temperature
17 16 15 15 15 15 14 14 13 13 13 12 12 12 12 11 11 11 11 11 11 11 11 11 11 11 11 11 11 11 11 11 12 12 11 11 11 12 13 14 14 14 14
18 17 16 15 15 15 14 14 13 13 12 12 12 12 12 11 11 11 11 11 10 10 10 11 11 11 11 11 11 11 11 11 12 12 12 11 11 11 12 12 12 13 13
18 18 16 16 15 15 14 14 13 13 12 12 12 11 11 11 11 11 11 11 10 10 10 10 11 11 11 11 11 11 11 11 12 12 12 12 11 10 11 11 11 12 12
18 18 17 16 15 15 14 14 13 12 12 12 11 11 11 11 10 11 11 11 11 11 11 11 11 11 11 11 11 11 11 11 12 12 12 12 11 10 10 11 11 11 11
19 18 17 16 16 15 14 14 13 12 12 11 11 11 11 10 10 10 11 11 11 11 11 11 11 11 11 11 11 11 11 11 12 12 12 11 11 10 10 10 11 11 11
19 18 17 17 16 15 14 13 13 12 12 11 11 11 10 10 10 11 11 11 11 11 11 11 11 11 12 12 11 11 11 12 12 12 12 11 11 10 10 11 11 11 11
19 18 17 16 15 15 14 13 13 12 12 11 11 10 10 10 10 11 11 11 11 11 11 11 11 11 11 11 11 11 11 11 12 12 11 11 11 10 10 11 11 11 11
18 18 17 16 15 14 14 13 12 12 12 11 11 10 10 10 10 10 11 11 11 11 11 11 11 11 11 11 11 11 11 11 11 11 11 11 11 11 11 11 11 11 11
18 17 17 16 15 14 14 13 12 12 11 11 10 10 10 10 10 10 10 10 10 11 11 11 11 11 11 11 11 11 11 11 11 11 11 11 11 11 10 10 11 11 11
17 17 16 16 15 14 13 13 12 12 11 11 10 10 10 10 10 10 10 10 10 10 10 10 10 11 11 11 11 11 11 11 11 11 11 11 11 10 10 10 10 10 10
16 16 16 15 15 14 13 12 12 11 11 11 10 10 10 10 10 9 10 10 10 10 10 10 10 10 10 10 10 10 10 10 10 10 10 10 10 10 10 9 10 10 10
16 16 15 15 14 14 13 12 12 11 11 10 10 10 10 9 9 9 9 9 9 9 9 9 9 9 9 9 10 10 10 10 10 10 10 10 10 10 9 9 9 9 9
16 16 15 15 14 14 13 12 11 11 11 10 10 10 10 9 9 9 9 9 9 9 9 9 9 9 9 9 9 9 9 9 9 9 9 9 9 9 9 8 8 9 9
16 16 15 14 14 13 13 12 11 11 10 10 10 10 9 9 9 9 9 9 8 8 8 8 8 8 8 8 8 8 8 8 8 8 8 8 8 8 8 8 8 8 8
16 16 15 14 14 13 12 12 11 11 10 10 10 10 9 9 9 9 9 8 8 8 8 8 8 8 8 7 7 7 7 7 7 7 8 8 8 8 8 8 8 8 8
16 15 15 14 13 13 12 12 11 11 10 10 10 10 9 9 9 9 9 8 8 8 8 8 8 7 7 7 7 7 7 7 7 7 7 7 8 8 8 8 7 7 7
16 15 15 14 13 12 12 11 11 11 10 10 10 10 9 9 9 9 9 8 8 8 8 8 8 7 7 7 7 7 7 7 7 7 7 7 8 8 8 8 7 7 7
15 15 14 13 13 12 12 11 11 10 10 10 10 10 9 9 9 9 9 8 8 8 8 8 7 7 7 7 7 7 7 7 7 7 8 8 8 8 8 8 7 7 7
15 14 14 13 13 12 12 11 11 10 10 10 10 10 9 9 9 9 8 8 8 8 7 7 7 7 7 7 6 6 7 7 7 7 8 8 8 8 8 8 7 7 7
14 14 13 13 12 12 12 11 11 10 10 10 10 10 9 9 9 9 8 8 8 8 7 7 7 7 6 6 6 6 7 7 7 7 7 7 7 7 7 7 7 7 7
13 13 13 13 12 12 12 11 11 10 10 10 10 9 9 9 9 9 8 8 8 7 7 7 7 6 6 6 6 6 7 7 7 7 7 7 7 6 6 6 6 6 6
13 13 13 13 12 12 12 11 11 10 10 10 10 9 9 9 9 8 8 8 7 7 7 7 6 6 6 6 5 4 4 5 5 5 5 6 6 6 5 5 5 5 5
13 13 13 13 12 12 12 12 11 11 10 10 10 9 9 9 8 8 8 7 7 7 7 6 6 6 6 6 5 4 3 3 3 3 4 4 4 4 4 4 4 4 4
13 12 12 12 12 12 12 11 11 11 10 10 9 9 8 8 8 7 7 7 7 6 6 6 6 5 5 5 5 4 3 3 2 2 2 3 3 3 3 3 3 4 4
12 12 12 12 12 12 11 11 11 10 10 9 9 8 8 8 7 7 7 6 6 6 6 5 5 5 4 4 4 3 3 3 2 1 1 2 2 2 2 2 3 3 3
12 12 12 12 12 11 11 11 10 10 10 9 8 8 8 7 7 7 6 6 6 6 5 5 5 4 4 4 3 3 2 2 2 1 1 0 0 1 1 1 2 2 2

GEFSSE_850_meantemp_102.txt.gz
Temperature
17 16 14 14 14 14 13 13 12 12 12 12 11 11 11 11 10 10 10 11 11 11 11 11 11 11 11 11 11 11 11 12 12 12 12 11 11 11 12 13 13 13 13
18 17 15 14 14 13 13 13 12 12 12 12 11 11 11 10 10 10 10 10 10 10 10 11 11 10 10 10 11 11 11 12 12 12 12 12 11 11 11 11 12 12 12
18 17 15 14 14 13 13 12 12 12 12 12 11 11 11 10 10 10 10 10 10 10 10 10 10 11 10 10 11 11 11 12 12 12 12 11 11 10 10 11 11 11 11
18 17 16 15 14 14 13 12 12 12 12 11 11 11 11 10 10 10 10 10 10 10 10 10 10 11 11 10 10 11 11 12 12 12 11 11 11 10 10 10 10 10 11
18 17 16 15 14 13 13 13 12 12 12 11 11 11 10 10 10 10 10 10 10 10 10 10 10 11 11 11 11 11 11 12 11 11 11 11 11 10 10 10 10 10 10
18 17 16 15 14 13 13 12 12 12 12 11 11 10 10 10 10 10 10 10 10 10 10 10 10 11 11 11 11 11 11 11 11 11 11 11 10 9 9 10 10 10 10
18 17 16 15 14 13 13 12 12 12 11 11 11 10 10 10 10 10 10 10 10 10 10 10 10 10 10 10 10 11 11 11 11 11 11 11 10 10 9 9 10 10 10
17 17 16 14 14 13 13 12 12 11 11 11 10 10 10 10 10 10 10 10 10 10 10 10 10 10 10 10 10 10 10 10 10 10 10 10 10 10 9 9 9 9 9
17 16 16 14 13 13 12 12 12 11 11 10 10 10 10 10 9 9 9 9 9 9 10 10 10 10 9 10 10 10 10 10 10 10 10 10 10 10 9 8 9 9 9
16 16 15 14 13 12 12 12 11 11 11 10 10 10 10 9 9 9 9 9 9 9 9 9 9 9 9 9 9 9 9 9 9 9 9 9 9 9 8 8 8 8 8
16 15 15 14 13 12 12 11 11 11 10 10 10 10 9 9 9 9 9 8 8 8 8 8 8 8 8 9 9 9 9 9 9 9 9 9 9 9 8 8 7 7 8
16 16 15 14 13 12 12 11 11 11 10 10 10 10 9 9 9 9 8 8 8 8 8 8 8 8 8 8 8 8 8 8 8 8 8 8 8 8 8 7 7 7 7
17 16 15 14 13 12 12 11 11 11 10 10 10 9 9 9 9 9 8 8 8 8 8 8 8 8 8 8 8 8 8 8 8 8 8 8 8 8 8 7 7 7 7
16 16 15 14 13 12 12 11 11 11 10 10 10 9 9 9 9 9 8 8 8 8 8 8 8 7 7 7 7 7 7 7 7 7 8 8 8 8 8 7 7 7 7
16 16 15 14 13 12 12 11 11 11 10 10 10 9 9 9 9 9 9 8 8 8 8 8 8 8 7 7 7 7 7 7 7 7 7 7 7 7 8 7 7 7 7
16 16 15 14 13 12 12 11 11 10 10 10 10 10 9 9 9 9 9 9 8 8 8 8 8 8 7 7 7 7 7 7 7 7 7 8 8 8 8 8 8 7 7
16 15 15 14 13 12 12 11 11 10 10 10 10 9 9 9 9 9 9 9 9 8 8 8 8 7 7 7 7 7 7 7 7 7 8 8 8 8 7 7 7 7 7
16 15 15 14 13 12 12 11 11 10 10 10 10 9 9 9 9 9 9 9 8 8 8 8 8 7 7 7 7 7 7 7 8 8 8 8 7 7 7 7 7 7 7
16 15 15 14 13 12 12 11 11 10 10 10 10 10 9 9 9 9 9 8 8 8 8 8 7 7 7 7 7 7 7 8 8 8 8 7 7 7 7 7 7 7 7
15 15 14 14 13 12 11 11 11 10 10 10 10 9 9 9 9 9 9 8 8 8 8 7 7 7 7 7 7 7 8 8 8 8 8 7 7 7 7 7 6 6 6
15 14 14 13 13 12 11 11 11 10 10 10 10 9 9 9 9 9 8 8 8 8 7 7 7 7 7 6 7 7 8 7 8 7 7 7 7 6 6 6 6 6 6
14 14 13 13 12 12 11 11 11 10 10 10 9 9 9 9 9 8 8 8 8 7 7 7 7 6 6 6 5 5 5 6 5 6 6 6 6 6 5 5 5 5 5
14 13 13 13 12 12 11 11 11 10 10 10 9 9 9 9 8 8 8 8 7 7 7 6 6 6 6 5 5 4 3 3 3 4 4 5 5 4 4 5 5 5 5
13 13 13 12 12 12 11 11 11 11 10 10 10 9 9 9 8 8 7 7 7 7 6 6 6 5 5 5 4 4 3 2 2 2 3 3 3 4 4 4 4 4 4
13 12 12 12 12 12 11 11 11 11 10 10 9 9 9 8 8 7 7 7 6 6 6 5 5 5 5 4 4 4 3 3 2 1 1 2 3 3 3 3 3 3 3
12 12 12 12 12 11 11 11 11 11 10 10 9 9 8 8 8 7 7 6 6 6 5 5 5 4 4 4 4 3 3 2 1 0 -0 0 1 2 2 2 2 2 2

GEFSSE_850_meantemp_108.txt.gz
Temperature
16 15 15 14 14 14 13 13 13 13 12 12 12 11 11 11 11 11 11 11 11 11 11 11 11 11 11 12 12 12 13 13 13 12 12 12 11 12 12 13 13 13 14
17 15 15 14 14 14 13 13 13 12 12 12 12 11 11 11 11 11 11 11 11 11 11 11 11 11 11 11 11 12 13 13 13 12 12 12 11 11 11 12 12 12 13
17 16 15 14 14 14 13 13 13 12 12 12 11 11 11 11 10 10 11 11 11 11 11 11 11 11 11 11 12 12 12 13 12 12 12 11 11 10 11 11 11 12 12
17 16 15 15 14 14 13 13 12 12 12 11 11 11 10 10 10 10 10 10 10 11 11 11 11 11 11 11 11 12 12 12 12 12 11 11 10 10 10 10 11 11 11
17 16 15 15 14 14 13 13 12 12 11 11 11 10 10 10 10 10 10 10 10 10 10 11 11 10 10 11 11 12 12 12 12 11 11 10 10 10 10 10 10 10 11
17 15 15 15 14 13 13 12 12 12 11 11 10 10 10 10 10 10 10 10 10 10 10 10 10 10 10 10 11 11 11 12 11 11 11 11 10 10 9 10 10 10 10
17 15 15 15 14 13 13 12 12 12 11 11 10 10 10 10 10 10 10 10 10 10 10 10 10 10 10 10 10 11 11 11 11 11 11 11 11 10 9 9 9 9 10
16 15 15 15 14 13 12 12 12 11 11 11 10 10 10 10 10 10 10 10 10 10 10 10 10 10 10 10 10 10 10 11 10 10 10 10 11 10 9 9 9 9 9
16 15 15 14 13 13 12 12 12 11 11 11 10 10 10 9 9 9 9 10 10 10 10 9 9 9 9 9 10 10 10 10 9 10 10 10 10 10 9 8 9 9 9
16 15 14 14 13 12 12 12 11 11 11 10 10 10 10 9 9 9 9 9 9 9 9 9 9 9 9 9 9 10 10 9 9 9 9 9 10 10 9 8 8 8 8
16 15 14 13 13 12 12 11 11 11 11 10 10 10 10 9 9 9 9 9 9 9 9 9 9 9 9 9 9 9 9 8 8 8 8 9 9 9 9 8 8 8 8
17 15 14 13 13 12 12 11 11 11 10 10 10 10 9 9 9 9 9 9 9 9 9 9 9 9 8 8 8 8 8 8 8 8 8 9 9 9 8 8 8 8 8
17 16 15 14 13 12 12 11 11 10 10 10 10 9 9 9 9 9 9 9 9 9 8 8 8 8 8 8 8 8 8 8 8 8 8 8 8 8 8 8 8 8 8
17 16 15 14 13 12 12 11 11 11 10 10 10 10 9 9 9 9 9 9 8 8 8 8 8 8 8 8 8 8 7 7 7 7 8 8 8 8 8 8 8 8 8
17 16 15 14 13 12 12 11 11 11 11 10 10 10 9 9 9 9 9 9 9 9 8 8 8 8 8 8 8 8 8 8 7 7 7 8 8 8 8 8 8 8 8
16 16 15 14 13 12 12 11 11 11 11 10 10 10 10 9 9 9 9 9 9 9 8 8 8 8 8 8 8 8 7 7 7 7 7 8 8 8 8 8 8 8 7
16 16 15 14 13 12 12 11 11 11 10 10 10 10 10 9 9 9 9 9 9 9 9 8 8 8 8 8 8 7 8 8 8 7 7 8 8 8 8 8 8 8 8
16 15 15 14 13 13 12 11 11 11 10 10 10 10 10 9 9 9 9 9 9 9 9 8 8 8 8 7 7 7 8 8 8 8 8 8 8 8 7 7 7 7 7
16 15 15 14 14 13 12 11 11 11 10 10 10 10 10 9 9 9 9 9 9 9 8 8 8 8 7 7 8 8 8 8 8 8 8 7 7 7 7 7 7 7 7
16 15 15 14 14 13 12 11 11 11 10 10 10 10 10 10 9 9 9 9 9 8 8 8 8 8 7 7 8 8 8 8 8 8 7 7 7 7 7 6 6 6 6
16 15 15 14 13 12 12 11 11 10 10 10 10 10 10 9 9 9 9 9 9 8 8 8 8 7 7 7 7 7 7 7 7 7 7 6 6 6 6 6 6 6 6
16 15 15 14 13 13 12 11 11 11 10 10 10 10 10 9 9 9 9 9 8 8 8 8 7 7 7 7 6 5 6 6 6 6 6 6 5 5 5 5 5 5 5
15 15 14 14 13 12 12 11 11 10 10 10 10 10 10 9 9 9 9 9 8 8 8 7 7 7 6 6 5 5 4 5 5 5 5 5 4 4 4 4 5 5 5
15 15 14 14 13 12 12 11 11 11 10 10 10 10 10 9 9 9 9 8 8 8 7 7 7 6 6 5 5 5 4 3 3 3 4 3 3 3 3 4 4 4 4
15 14 14 13 13 12 12 11 11 11 10 10 10 10 10 9 9 9 9 8 8 8 7 7 6 6 6 5 5 4 3 3 2 1 2 3 3 2 2 2 3 3 3
14 13 13 13 12 12 12 11 11 11 11 10 10 10 9 9 9 9 8 8 8 7 7 6 6 6 5 5 4 4 3 2 2 1 1 1 1 2 1 2 2 2 2

GEFSSE_850_meantemp_114.txt.gz
Temperature
16 16 16 15 15 14 14 14 13 13 13 12 12 12 11 11 11 11 12 12 12 12 12 12 12 12 13 13 13 13 13 13 13 12 13 13 13 13 13 13 14 14 14
17 17 16 15 15 14 14 14 13 13 13 12 12 11 11 11 11 11 11 11 12 12 12 12 12 12 12 13 13 13 13 13 12 12 12 12 12 12 12 13 13 13 13
17 17 16 15 15 14 14 13 13 13 12 12 12 11 11 11 11 11 11 11 12 12 12 12 12 12 13 13 13 13 13 12 12 11 11 11 11 11 11 12 12 12 12
17 17 16 15 15 14 14 13 13 12 12 12 11 11 10 10 11 11 11 11 11 12 12 12 12 12 13 13 13 13 13 12 12 11 11 11 11 10 10 11 11 11 12
16 16 16 15 15 14 13 13 13 12 12 11 11 11 10 10 10 10 11 11 11 11 12 12 12 12 12 12 13 13 12 12 11 11 11 11 11 10 10 10 10 10 11
16 16 16 15 15 14 13 13 12 12 12 11 11 11 10 10 10 10 11 11 11 11 11 11 11 11 12 12 12 12 12 12 11 11 11 11 11 10 10 10 10 10 10
16 16 16 15 14 14 13 13 13 12 12 11 11 11 10 10 10 10 11 11 11 11 11 11 11 11 11 12 12 12 11 11 11 11 11 11 11 10 10 10 9 9 9
16 16 16 15 14 14 13 13 13 12 11 11 11 11 11 11 11 11 11 11 11 11 11 11 11 11 11 11 11 11 11 11 10 10 10 11 11 10 9 9 9 9 9
16 16 16 15 14 14 13 13 12 12 11 11 11 11 11 11 10 10 11 11 11 10 10 10 10 10 11 10 10 11 10 10 10 9 9 10 10 10 9 9 9 9 9
16 16 16 15 14 14 13 12 12 12 11 11 11 11 11 11 10 10 10 10 10 10 10 10 10 10 10 10 10 10 10 10 9 9 9 9 9 10 9 9 9 9 9
16 15 15 15 14 14 13 12 12 12 11 11 11 11 11 10 10 10 10 10 10 10 10 10 10 9 9 9 9 9 9 9 8 9 9 9 9 9 9 9 9 9 8
16 15 15 15 14 13 12 12 12 12 11 11 11 11 10 10 10 9 10 9 9 9 9 9 9 9 9 8 8 8 8 8 8 8 8 8 9 9 9 9 9 8 8
16 15 15 14 14 13 12 12 12 12 11 11 11 10 10 10 10 9 9 9 9 9 9 9 9 8 8 8 8 8 8 8 8 8 8 8 8 9 9 9 8 8 8
16 16 15 14 14 13 13 12 12 11 11 11 11 10 10 10 10 10 9 9 9 9 9 9 9 8 8 8 8 8 8 8 8 8 8 8 8 8 9 9 8 8 7
16 16 15 14 14 13 13 12 12 11 11 11 11 10 10 10 10 10 10 9 9 9 9 9 9 9 9 9 8 8 8 8 8 8 8 8 8 8 8 8 8 7 7
17 16 15 14 14 13 13 12 12 12 11 11 11 10 10 10 10 10 10 9 9 9 9 9 9 9 9 9 8 8 8 8 8 8 8 8 8 8 8 8 8 7 7
17 16 15 14 13 13 13 12 12 11 11 11 11 10 10 10 10 10 10 10 9 9 9 9 9 9 9 8 8 8 8 8 8 8 8 8 8 8 8 8 7 7 7
17 16 15 14 14 13 13 12 12 11 11 11 11 10 10 10 10 10 10 10 9 9 9 9 9 9 8 8 8 9 9 9 8 8 8 8 7 7 7 7 7 7 7
17 16 15 15 14 13 13 12 12 11 11 11 11 10 10 10 10 10 10 10 9 9 9 9 9 9 8 9 9 9 9 9 8 8 8 7 7 7 7 7 6 7 7
17 16 15 15 14 13 12 12 11 11 11 11 11 10 10 10 10 10 10 10 9 9 9 9 8 8 8 8 9 9 9 9 8 8 7 7 7 6 6 6 6 6 6
17 16 15 15 14 13 12 12 12 11 11 11 11 10 10 10 10 10 10 10 9 9 9 9 8 8 8 8 8 9 9 8 7 7 7 7 6 6 6 5 5 5 5
17 16 15 15 14 13 13 12 12 12 11 11 11 10 10 10 10 10 10 10 9 9 9 9 9 8 8 8 7 7 7 7 7 7 7 6 6 6 5 5 5 5 5
16 16 15 15 14 13 13 12 11 11 11 11 10 10 10 10 10 10 10 10 9 9 9 9 9 8 8 7 7 6 6 5 6 6 6 5 5 5 5 5 5 4 4
16 16 15 15 14 13 12 12 12 12 11 11 11 11 10 10 10 10 10 10 9 9 9 9 8 8 8 7 7 6 5 5 4 4 6 5 5 5 4 4 4 4 4
16 15 14 14 13 13 12 12 12 12 11 11 11 11 10 10 10 10 10 10 9 9 9 9 8 8 7 7 6 6 5 5 4 3 3 5 5 5 4 4 4 4 3
15 14 14 13 13 12 12 12 11 11 11 11 11 11 10 10 10 10 10 9 9 9 9 8 8 7 7 6 6 5 5 4 4 3 2 3 4 5 4 4 4 3 2

GEFSSE_850_meantemp_120.txt.gz
Temperature
15 15 15 14 14 14 14 14 13 13 13 13 12 12 12 12 12 12 12 12 12 12 12 12 13 13 13 13 13 12 12 13 13 13 13 12 12 12 12 13 13 13 13
17 15 15 15 14 14 14 13 13 13 13 12 12 11 11 11 11 11 11 11 11 12 12 12 12 13 13 13 12 12 12 12 13 13 13 13 12 11 11 12 12 12 12
16 16 15 15 14 14 14 13 13 13 13 12 12 11 11 11 11 11 11 11 11 11 12 12 12 12 13 12 12 12 11 12 12 12 12 12 11 10 10 11 11 11 11
17 16 15 15 14 14 14 13 13 13 12 12 12 11 11 11 11 11 11 11 11 12 12 12 12 12 12 12 12 12 12 12 12 12 12 11 11 10 10 10 10 10 10
17 16 15 15 14 14 14 13 13 13 12 12 12 12 11 11 11 11 11 11 11 12 12 12 12 12 12 12 12 12 11 12 12 11 11 11 10 9 9 9 10 10 10
17 16 15 15 14 14 14 13 13 13 12 12 11 11 11 11 11 11 11 11 11 11 11 12 12 12 12 12 12 11 11 11 11 11 11 10 10 9 9 9 9 9 9
17 16 16 15 14 14 14 13 13 13 12 12 11 11 11 11 11 11 11 11 11 11 11 11 11 11 11 11 11 11 11 11 11 11 10 10 10 9 9 9 9 9 9
18 17 16 15 15 14 14 13 13 13 12 12 11 11 11 11 11 11 11 11 11 11 11 11 11 11 11 11 11 10 10 10 10 10 10 10 9 9 8 8 9 9 9
17 17 16 15 15 14 14 13 13 13 12 12 12 11 11 11 11 11 11 11 11 11 11 11 10 10 10 10 10 10 9 9 9 9 9 9 9 8 8 8 8 8 8
17 17 16 16 15 14 14 13 13 13 12 12 12 11 11 11 11 11 11 11 11 11 10 10 10 10 10 10 9 9 9 9 9 9 9 8 8 8 8 8 8 8 8
16 16 16 16 15 14 14 13 13 12 12 12 12 11 11 11 11 11 11 10 10 10 10 10 10 9 9 9 9 9 9 9 8 8 8 8 8 8 8 8 8 8 8
17 16 16 16 15 15 14 13 13 12 12 12 12 11 11 11 11 10 10 10 10 10 10 9 9 9 9 9 9 9 8 8 8 8 8 8 8 8 8 7 7 7 7
18 17 16 16 15 15 14 13 13 12 12 12 11 11 11 11 10 10 10 10 10 9 9 9 9 9 9 9 9 8 8 8 8 8 8 8 8 8 7 7 7 7 7
18 17 17 16 15 15 14 14 13 12 12 12 11 11 11 11 10 10 10 10 9 9 9 9 9 9 9 9 9 8 8 8 8 8 8 8 8 8 7 7 7 7 6
18 17 17 16 16 15 14 14 13 13 12 12 12 11 11 11 10 10 10 10 10 9 9 9 9 9 9 9 9 9 9 9 8 8 8 8 8 8 7 7 7 6 6
18 18 17 16 16 15 15 14 14 13 12 12 12 11 11 11 10 10 10 10 10 9 9 9 9 9 9 9 9 9 9 9 9 8 8 8 8 8 7 7 7 6 6
18 18 17 17 16 15 15 14 13 13 12 12 12 11 11 11 10 10 10 10 10 9 9 9 9 9 9 9 9 9 9 9 9 8 8 8 8 7 7 7 7 6 6
18 18 17 16 16 15 15 14 13 13 12 12 11 11 11 10 10 10 10 10 10 9 9 9 9 9 9 9 9 9 9 9 9 8 8 8 7 7 7 7 6 6 6
19 18 17 16 16 15 15 14 13 13 12 12 11 11 11 10 10 10 10 10 10 10 9 9 10 9 9 9 9 9 9 9 9 8 8 7 7 7 6 6 6 6 6
19 18 17 17 16 15 14 13 12 12 12 11 11 11 11 10 10 10 10 10 10 10 10 10 10 10 9 9 9 9 9 9 8 8 7 7 7 6 6 6 6 6 5
19 18 18 17 16 15 14 13 12 12 12 11 11 11 11 10 10 10 10 10 10 10 10 10 10 9 9 9 9 9 9 8 8 7 7 7 6 6 6 5 5 5 5
19 19 18 17 16 15 15 14 13 13 12 11 11 11 10 10 10 10 10 10 10 10 10 10 10 9 9 9 9 9 8 8 7 7 7 6 6 6 5 5 5 5 5
19 19 18 18 17 16 15 14 13 12 11 11 11 11 10 10 10 10 10 10 10 10 10 10 10 9 9 9 9 8 8 8 7 7 7 6 6 6 5 5 5 5 5
19 19 18 18 17 16 15 14 13 12 12 11 11 11 11 10 10 10 10 10 10 10 10 10 9 9 9 9 8 8 8 7 7 6 6 6 6 5 5 5 5 5 4
19 19 18 18 17 16 15 14 13 13 12 12 11 11 10 10 10 10 10 10 10 10 10 9 9 9 9 9 8 8 7 7 6 5 6 6 6 6 5 5 5 4 4
19 18 18 17 16 16 15 14 13 13 12 12 11 11 10 10 10 10 10 10 10 10 9 9 9 9 9 8 8 7 7 6 6 5 5 5 5 6 5 5 4 4 3

GEFSSE_850_meantemp_126.txt.gz
Temperature
17 16 15 14 14 14 14 14 13 13 13 13 13 12 12 12 12 12 12 12 12 12 12 12 12 12 12 12 12 12 13 13 13 13 13 12 11 11 12 12 12 12 12
18 16 15 14 14 14 14 14 13 13 13 13 12 12 12 12 12 12 11 12 12 12 12 12 12 11 11 11 12 12 12 13 13 13 12 12 11 11 11 11 11 11 11
17 16 15 14 14 14 14 13 13 13 13 12 12 12 11 11 11 11 11 11 11 11 11 12 12 11 11 11 11 12 12 12 12 12 12 11 11 10 10 10 10 10 10
17 16 15 14 14 14 14 13 13 13 13 12 12 11 11 11 11 11 11 11 11 11 11 11 11 11 11 11 11 11 12 12 12 11 11 11 10 9 9 9 9 10 10
17 16 15 14 14 14 14 13 13 12 12 12 12 11 11 11 11 10 11 11 11 11 11 11 11 11 11 11 11 11 11 11 11 11 11 10 10 9 9 9 9 9 9
16 16 15 14 14 14 13 13 13 12 12 12 11 11 11 10 10 10 11 11 11 11 11 11 11 11 11 11 11 11 11 11 11 10 10 10 10 9 9 9 9 9 9
17 15 15 14 14 14 13 13 13 12 12 12 11 11 11 11 11 11 11 11 11 11 11 11 11 10 10 10 10 11 10 10 10 10 10 10 9 9 8 9 9 9 9
17 16 15 14 14 14 13 13 13 12 12 12 11 11 11 11 11 11 11 11 11 10 10 10 10 10 10 10 10 10 10 10 10 9 9 9 9 8 8 8 8 8 8
16 15 15 14 14 13 13 13 13 12 12 11 11 11 11 11 11 11 11 11 10 10 10 10 10 10 10 10 10 10 10 9 9 9 9 9 8 8 8 8 8 8 8
16 15 15 14 14 13 13 13 13 12 12 12 11 11 11 11 11 11 11 11 10 10 10 10 10 10 10 9 9 9 9 9 9 9 9 8 8 8 8 8 8 8 8
15 15 15 14 14 14 13 13 13 12 12 12 11 11 11 11 11 11 11 10 10 10 10 9 9 9 9 9 9 9 9 9 9 9 8 8 8 7 7 7 7 8 8
16 15 15 14 14 14 13 13 12 12 12 12 12 11 11 11 11 11 10 10 10 10 9 9 9 9 9 9 9 9 9 9 8 8 8 8 7 7 7 7 7 7 7
18 16 15 15 14 14 13 13 13 12 12 12 12 11 11 11 11 10 10 10 10 10 9 9 9 9 9 9 9 9 9 9 8 8 8 8 8 7 7 7 7 7 7
17 17 16 15 14 14 14 13 13 12 12 12 12 11 11 11 11 10 10 10 10 9 9 9 9 9 9 9 9 9 9 9 9 9 8 8 8 7 7 7 7 7 6
18 17 16 15 15 14 14 13 13 13 12 12 12 11 11 11 11 10 10 10 10 9 9 9 9 9 9 9 9 9 9 9 9 9 8 8 8 8 7 7 6 6 6
18 18 17 16 15 14 14 14 13 13 12 12 12 11 11 11 11 10 10 10 10 9 9 9 9 9 9 9 9 9 9 9 9 9 8 8 8 8 7 7 6 6 6
19 18 17 17 16 15 14 14 13 13 12 12 12 11 11 11 11 10 10 10 10 9 9 9 9 9 9 9 9 9 9 9 9 9 8 8 8 7 7 7 7 6 6
19 18 18 17 16 15 15 14 14 13 13 12 12 11 11 11 10 10 10 10 10 9 9 9 9 9 9 9 9 9 9 9 9 8 8 8 8 7 7 7 7 7 6
19 19 18 17 17 16 15 14 14 13 13 12 12 11 11 11 10 10 10 10 9 9 9 9 9 9 9 9 9 9 9 9 9 8 8 8 7 7 7 7 7 7 6
19 18 18 17 17 16 15 13 13 13 12 12 12 11 11 11 10 10 10 10 9 9 9 9 9 9 9 9 9 9 9 9 8 8 8 7 7 7 7 7 6 6 6
18 18 18 17 17 16 14 14 13 13 13 12 12 11 11 11 11 10 10 10 9 9 9 9 9 9 9 9 9 9 9 9 8 8 8 7 7 7 6 6 6 6 6
19 18 18 18 17 16 16 16 15 14 13 13 12 11 11 11 11 10 10 10 10 9 9 9 9 9 9 9 9 9 9 8 8 8 7 7 7 6 6 6 6 6 6
19 19 18 18 18 17 17 15 14 13 12 12 11 11 11 11 11 10 10 10 9 9 9 9 9 9 9 9 9 9 8 8 8 8 7 7 7 6 6 6 6 5 5
20 19 19 19 18 18 17 15 14 13 13 13 13 12 12 11 11 10 10 10 10 9 9 9 9 9 9 9 9 8 8 8 8 7 7 7 7 6 6 6 5 5 5
20 19 19 19 18 18 17 16 15 15 14 14 13 12 12 11 11 10 10 10 9 9 9 9 9 9 9 9 9 8 8 8 7 7 7 7 7 6 6 6 5 5 4
19 19 19 19 18 18 17 16 16 15 15 14 13 12 12 11 11 10 10 10 9 9 9 9 9 9 9 9 8 8 8 8 7 7 6 6 6 6 6 6 5 5 4

GEFSSE_850_meantemp_132.txt.gz
Temperature
17 17 16 15 15 15 15 14 14 14 14 14 13 13 13 13 13 13 13 13 13 13 13 12 12 12 13 13 13 14 14 14 14 13 13 12 12 12 13 13 12 12 13
18 17 16 15 15 15 14 14 14 14 14 13 13 13 13 12 12 13 12 13 12 12 12 12 12 12 12 13 13 13 13 14 13 13 13 12 11 11 11 12 12 12 12
18 17 16 15 15 15 14 14 14 14 14 13 13 12 12 12 12 12 12 12 12 12 12 11 11 12 12 12 13 13 13 13 13 13 12 11 10 10 10 11 11 11 11
17 16 15 15 15 14 14 14 14 14 13 13 13 12 12 12 12 12 12 12 12 11 12 11 11 12 12 12 12 13 13 13 12 12 11 10 10 10 10 10 10 10 10
17 16 15 15 15 14 14 14 14 13 13 13 12 12 12 11 11 11 11 11 11 11 11 11 11 11 11 12 12 12 12 12 12 11 10 10 10 10 10 10 10 10 10
16 15 15 15 14 14 14 14 13 13 13 12 12 12 11 11 11 11 11 11 11 11 11 11 11 11 11 11 12 12 12 12 10 10 10 10 9 9 9 9 10 10 10
16 15 14 14 14 14 14 13 13 13 13 12 12 11 11 11 11 11 11 11 11 11 11 11 11 11 11 11 11 11 11 11 10 10 9 9 9 9 9 9 9 9 9
15 14 14 14 14 14 14 13 13 13 13 12 11 11 11 11 11 11 11 11 11 11 10 10 10 10 10 10 11 11 11 10 9 9 9 9 9 9 9 9 9 9 9
15 14 14 14 14 14 13 13 13 13 12 12 11 11 11 11 11 11 11 11 11 10 10 10 10 10 10 10 10 10 10 10 9 9 8 8 8 8 8 8 8 9 9
14 14 14 13 13 13 13 13 13 12 12 11 11 11 11 11 10 10 10 10 10 10 10 10 10 10 10 10 10 10 10 9 9 8 8 8 8 8 8 8 8 8 8
14 14 14 13 13 13 13 12 12 12 11 11 11 11 11 10 10 10 10 10 10 10 10 10 10 10 10 9 9 10 9 9 8 8 8 8 8 8 8 8 8 8 8
15 14 14 13 13 13 12 12 12 11 11 11 10 11 10 10 10 10 10 10 10 10 10 10 10 10 9 9 9 9 9 9 8 8 8 9 8 8 8 8 8 8 8
15 14 14 13 13 13 12 12 12 11 11 11 10 10 10 10 10 10 10 10 10 10 9 9 9 9 9 9 9 9 9 9 9 8 8 9 8 8 7 7 7 7 7
15 15 14 14 13 13 12 12 12 11 11 11 11 10 10 10 10 10 10 9 9 9 9 9 9 9 9 9 9 9 9 9 9 9 9 9 8 8 7 7 7 7 7
16 15 15 14 13 13 13 12 12 12 11 11 11 11 11 11 10 10 10 10 10 9 9 9 9 9 9 9 9 9 9 9 9 8 8 9 8 8 7 7 7 7 7
17 16 15 15 14 13 13 13 12 12 12 11 11 11 11 11 10 10 10 10 10 9 9 9 9 9 9 9 9 9 9 9 9 8 8 8 8 8 8 7 7 7 7
17 16 16 15 14 14 13 13 13 12 12 12 12 11 11 11 10 10 10 10 10 9 9 9 9 9 9 9 9 9 9 9 9 8 8 8 8 8 8 8 7 7 7
16 16 16 15 15 14 14 13 13 13 12 12 11 11 11 11 11 10 10 10 10 10 9 9 9 9 9 9 9 9 9 9 9 9 8 8 8 8 7 8 7 7 7
16 16 16 16 15 15 14 13 13 12 12 12 12 11 11 11 11 10 10 10 10 10 9 9 9 9 9 9 9 9 9 9 9 9 8 8 8 8 7 7 7 7 7
16 16 15 15 15 14 13 12 12 12 12 12 12 12 11 11 11 10 10 10 10 10 9 9 9 9 9 9 9 9 9 9 9 9 8 8 8 8 7 7 7 7 7
16 15 15 15 15 14 13 13 12 13 13 12 12 12 11 11 11 10 10 10 10 9 9 9 9 9 9 9 9 9 9 9 9 9 8 8 8 8 7 7 7 7 7
16 16 16 15 15 15 15 15 14 13 12 12 12 12 11 11 11 10 10 10 10 10 9 9 9 9 9 9 9 8 8 8 9 9 8 8 8 7 7 7 7 7 6
17 17 17 17 16 16 16 14 13 12 11 11 12 12 12 11 11 11 10 10 10 10 9 9 9 9 9 9 9 9 8 9 8 8 9 8 8 7 7 7 7 6 6
18 18 17 17 17 16 15 14 13 13 13 14 14 13 13 12 11 11 11 10 10 10 9 9 9 9 9 9 9 9 9 8 8 8 8 8 8 7 7 7 6 6 6
18 18 18 17 17 16 15 15 14 14 14 13 13 13 12 12 12 11 11 10 10 10 9 9 9 9 9 9 9 9 9 8 8 7 7 7 7 7 7 7 6 6 6
18 18 18 17 16 16 15 15 15 15 14 13 13 13 12 12 12 11 11 10 10 10 10 9 9 9 9 9 9 9 8 8 8 8 7 7 6 7 7 7 6 6 5

GEFSSE_850_meantemp_138.txt.gz
Temperature
18 19 18 17 17 16 16 15 15 15 15 14 14 14 14 14 14 14 14 13 13 13 13 13 13 13 13 14 14 14 14 13 13 13 13 13 12 12 13 13 13 13 13
20 19 18 17 16 16 15 15 15 15 14 14 14 13 13 13 13 13 13 13 13 12 12 12 12 13 13 14 14 14 14 13 12 12 12 11 11 11 11 12 11 11 11
19 19 18 17 16 16 15 15 15 14 14 14 13 13 13 13 13 12 12 12 12 12 12 12 12 12 13 13 14 13 13 12 11 11 11 11 11 11 11 11 11 11 11
19 18 17 17 16 16 15 15 15 14 14 14 13 13 12 12 12 12 12 12 12 12 12 12 12 12 13 13 13 13 12 12 11 11 10 10 10 10 10 10 10 10 10
17 18 17 16 16 15 15 15 14 14 14 13 13 12 12 12 12 12 12 12 12 12 12 12 12 12 13 13 13 13 12 11 10 10 10 10 10 10 10 10 10 10 10
17 17 16 16 16 15 15 14 14 14 13 13 12 12 12 11 11 11 11 12 12 12 12 12 12 12 12 13 13 12 11 11 10 10 10 10 10 10 10 9 10 10 10
16 16 16 15 15 15 15 14 14 13 13 12 12 12 11 11 11 11 11 11 11 11 11 11 11 11 12 12 12 12 11 10 10 10 10 10 10 9 9 9 9 9 10
16 15 15 15 15 14 14 14 13 13 13 12 12 11 11 11 11 11 11 11 11 11 11 11 11 11 12 12 12 11 11 10 10 9 10 10 9 9 9 9 9 9 9
15 15 15 14 14 14 14 14 13 13 12 12 12 11 11 11 11 11 11 11 11 11 10 11 11 11 11 11 11 11 10 10 9 9 9 9 9 9 9 9 9 9 9
15 15 15 14 14 14 13 13 13 13 12 12 12 11 11 11 11 11 11 11 11 11 11 11 11 11 11 11 11 10 10 9 9 9 9 9 9 9 9 9 9 9 9
15 14 14 14 14 14 13 13 13 12 12 11 11 11 11 11 11 11 11 11 11 10 10 11 11 11 11 11 10 10 10 9 9 10 10 9 9 8 8 8 8 8 8
15 14 14 14 14 13 13 13 12 12 11 11 11 11 11 10 10 10 11 11 11 10 11 11 10 10 10 10 10 10 9 9 9 10 10 9 9 8 8 8 8 8 8
15 14 14 14 14 13 13 13 12 12 12 11 11 11 10 10 10 10 10 10 10 10 10 10 10 10 10 10 10 9 9 9 9 10 10 9 9 8 8 8 8 8 8
15 15 14 14 14 13 13 13 12 12 12 11 11 11 10 10 10 10 10 10 10 10 10 10 10 10 10 10 10 9 9 9 9 10 10 9 9 9 8 8 8 8 8
15 15 15 14 14 13 13 13 12 12 12 11 11 11 10 10 10 10 10 10 10 10 10 10 10 10 10 10 10 10 9 9 9 10 10 9 9 9 9 8 8 8 8
16 15 15 14 14 13 13 13 12 12 12 11 11 11 11 10 10 10 10 10 10 10 10 10 10 10 10 10 10 10 9 9 9 9 10 9 9 9 9 8 8 8 8
16 16 15 14 14 14 13 13 12 12 12 12 11 11 11 11 11 10 10 10 10 10 10 10 10 10 10 10 10 10 10 9 9 9 9 9 9 9 9 9 8 8 8
17 16 15 14 14 14 13 13 13 12 12 12 12 11 11 11 11 10 10 10 10 10 10 10 10 10 10 10 10 10 10 9 9 9 9 9 9 9 9 9 9 8 8
17 16 15 15 14 14 14 13 13 12 12 12 12 12 11 11 11 11 10 10 10 10 10 10 10 10 10 10 10 10 10 10 10 9 9 9 9 9 9 9 9 9 8
17 16 16 15 15 14 13 13 12 12 12 12 12 12 12 11 11 11 11 10 10 10 10 10 10 10 10 10 10 9 10 10 9 9 9 9 9 9 9 9 9 9 8
18 17 16 15 15 14 13 13 13 12 12 12 12 12 12 12 11 11 11 11 10 10 10 10 10 10 10 10 9 9 9 9 9 9 9 9 9 9 9 9 8 8 8
18 17 16 15 15 14 14 14 14 13 13 12 12 12 12 12 11 11 11 11 11 11 10 10 10 10 10 10 10 9 9 9 9 9 9 9 9 9 9 9 8 8 8
18 17 16 16 15 15 14 13 12 12 12 12 12 12 12 12 12 11 11 11 11 11 11 10 10 10 10 10 9 9 9 9 9 9 9 9 9 9 9 8 8 8 8
18 18 17 16 15 15 14 13 13 13 13 13 13 13 12 12 12 12 11 11 11 11 11 10 10 10 10 10 9 9 9 9 9 9 9 9 9 9 8 8 8 8 7
19 18 17 16 15 15 14 14 13 14 14 14 13 13 12 12 12 12 11 11 11 11 11 10 10 10 10 10 10 9 9 9 9 9 9 9 8 8 8 8 8 8 7
19 18 17 16 15 15 14 14 13 14 14 13 13 13 12 12 12 12 11 11 11 11 11 10 10 10 10 10 9 9 9 9 9 9 8 8 8 8 8 8 8 7 7

GEFSSE_850_meantemp_144.txt.gz
Temperature
18 17 16 16 16 16 16 16 16 16 16 16 15 15 15 15 15 15 15 14 14 14 14 14 13 13 14 13 13 13 13 13 13 12 12 12 12 12 12 12 12 12 12
20 17 16 16 16 16 16 16 15 15 15 15 15 15 15 15 15 14 14 13 13 13 13 13 13 13 13 13 12 12 12 12 12 12 12 12 11 11 11 12 12 11 11
19 17 16 16 16 16 15 15 15 15 15 15 14 14 14 14 14 13 13 13 13 13 13 13 13 13 13 12 12 12 12 12 12 12 12 11 11 11 11 11 11 11 11
19 17 16 16 15 15 15 15 15 15 14 14 14 14 14 13 13 13 13 13 13 13 13 13 13 13 12 12 12 11 12 12 12 11 11 11 11 11 11 11 11 11 11
18 17 16 15 15 15 15 15 15 14 14 14 14 14 13 13 13 12 12 12 12 12 13 13 13 13 12 12 11 11 11 11 11 11 11 11 10 10 10 11 11 11 11
18 17 16 15 15 15 15 15 15 14 14 13 13 13 13 12 12 12 12 12 12 12 12 13 12 12 12 12 11 11 11 11 11 11 11 10 10 10 10 10 10 10 10
18 17 16 15 15 15 15 14 14 14 14 13 13 12 12 12 12 12 12 12 12 12 12 12 12 12 12 12 11 11 11 11 11 11 10 10 10 10 10 10 10 10 10
18 16 15 15 15 15 14 14 14 14 13 13 12 12 12 12 12 12 12 12 12 12 12 12 12 12 12 11 11 11 11 11 10 10 10 10 10 10 10 10 10 10 10
17 16 15 14 14 14 14 14 14 13 13 13 12 12 12 12 12 12 12 11 11 11 12 12 12 12 11 11 11 11 10 10 10 10 10 10 10 9 9 10 10 10 10
16 15 15 14 14 14 14 13 13 13 13 12 12 12 12 12 12 12 12 11 11 11 11 12 12 11 11 11 10 10 10 10 10 10 10 10 9 9 9 9 9 9 9
15 15 15 14 14 14 14 13 13 12 12 12 12 12 12 12 12 12 11 11 11 11 11 11 11 11 11 10 10 10 10 10 10 10 10 9 9 9 9 9 9 9 9
14 14 14 14 14 14 13 13 13 12 12 12 12 12 12 12 12 11 11 11 11 11 11 11 11 11 11 10 10 10 10 10 10 10 10 10 9 9 9 9 9 9 8
15 14 14 14 14 13 13 13 12 12 12 12 12 12 12 11 11 11 11 11 11 11 11 11 11 11 10 10 10 10 10 10 10 10 10 9 9 9 9 9 9 9 8
15 14 14 14 14 13 13 13 13 12 12 12 12 12 12 12 11 11 11 11 11 11 11 11 11 10 10 10 10 10 10 10 10 10 10 10 9 9 9 9 8 8 8
15 14 14 14 14 13 13 13 13 13 12 12 12 12 12 12 11 11 11 11 11 11 11 11 10 10 10 10 10 10 10 10 10 10 10 10 9 9 9 9 8 8 8
15 15 14 14 14 13 13 13 13 13 12 12 12 12 12 12 12 11 11 11 11 11 11 10 10 10 10 10 10 10 10 10 10 10 10 10 10 9 9 9 9 8 8
16 15 15 14 14 14 13 13 13 13 12 12 12 12 12 12 11 11 11 11 11 11 10 10 10 10 10 10 10 10 10 10 10 10 10 10 10 9 9 9 9 8 8
16 15 15 14 14 14 14 13 13 13 13 12 12 12 12 11 11 11 11 11 11 10 10 10 10 10 10 10 10 10 10 10 10 10 10 10 9 9 9 9 9 9 8
16 16 15 14 14 14 14 13 13 13 13 12 12 12 12 11 11 11 11 11 11 10 10 10 10 10 10 10 10 10 10 10 10 10 10 10 9 9 9 9 9 9 9
16 16 15 15 14 14 14 13 13 13 13 12 12 12 12 11 11 11 11 11 11 10 10 10 10 10 10 10 10 9 9 9 9 10 9 9 9 9 9 9 9 9 8
16 16 15 15 14 14 13 13 13 13 13 12 12 12 12 12 11 11 11 11 11 10 10 10 10 10 9 9 9 9 9 9 9 9 9 9 9 9 9 9 9 9 8
16 16 16 15 15 14 14 14 14 14 13 13 12 12 12 12 12 11 11 11 11 10 10 10 10 10 10 9 9 9 9 9 9 9 9 9 9 9 9 9 8 8 8
16 16 16 16 15 15 15 14 13 12 12 12 12 12 12 12 12 12 12 11 11 11 11 10 10 10 10 10 9 9 10 10 10 10 10 9 9 9 9 9 8 8 8
17 17 17 16 16 16 15 14 13 13 13 13 13 13 12 12 12 12 12 11 11 11 11 11 10 10 10 10 9 9 10 10 10 9 9 9 9 9 9 8 8 8 8
17 17 17 17 16 16 15 14 14 14 14 14 13 13 12 12 12 12 12 11 11 11 11 11 10 10 10 10 10 10 9 9 9 9 9 10 9 9 9 8 8 8 7
17 17 17 16 16 16 15 15 14 14 14 13 13 13 12 12 12 12 12 11 11 11 11 11 11 10 10 10 10 10 10 9 9 9 9 9 9 9 9 8 8 8 7

GEFSSE_850_meantemp_150.txt.gz
Temperature
20 19 18 17 16 16 16 16 16 16 16 16 16 16 16 16 15 15 15 15 15 15 14 14 14 14 14 14 14 14 13 13 13 13 13 12 12 12 12 12 12 12 12
21 19 18 17 16 16 16 16 16 16 16 16 16 16 15 15 15 15 15 14 14 14 14 13 13 13 13 13 13 13 13 13 13 13 12 12 12 12 12 12 12 12 12
20 19 17 17 16 16 16 16 16 16 16 16 15 15 15 15 14 14 14 14 13 13 13 13 12 12 12 13 13 13 13 13 13 12 12 12 12 11 12 12 11 11 11
20 18 17 16 16 16 15 15 15 15 15 15 15 15 14 14 14 13 13 13 13 13 13 12 12 12 12 12 12 13 13 13 12 12 12 11 11 11 11 11 11 11 11
19 18 16 16 16 15 15 15 15 15 15 15 15 14 14 14 13 13 13 13 13 13 12 12 12 12 12 12 12 13 13 12 12 12 11 11 11 11 11 11 11 11 11
19 17 16 16 16 15 15 15 15 15 15 14 14 14 14 13 13 13 12 12 13 12 12 12 12 12 12 12 12 12 12 12 12 11 11 11 11 10 10 10 11 11 10
18 17 16 16 15 15 15 15 15 15 14 14 13 13 13 13 12 12 12 12 12 12 12 12 12 12 12 11 12 12 12 12 11 11 11 11 10 10 10 10 10 10 10
17 16 16 15 15 15 15 15 14 14 14 13 13 13 13 12 12 12 12 12 12 12 12 12 12 11 11 11 12 12 11 11 11 11 10 10 10 10 10 10 10 10 10
16 16 15 15 15 15 15 14 14 14 13 13 13 12 12 12 12 11 12 12 12 12 12 12 11 11 11 11 11 11 11 11 11 10 10 10 10 10 10 10 10 10 10
15 15 15 15 15 14 14 14 14 13 13 13 12 12 12 12 11 11 11 11 11 11 11 11 11 11 11 11 11 11 11 11 10 10 10 10 10 9 9 9 10 9 9
14 14 14 14 14 14 14 14 14 13 13 12 12 12 12 11 11 11 11 11 11 11 11 11 11 11 11 11 11 11 10 10 10 10 10 10 9 9 9 9 9 9 9
14 14 14 14 14 14 14 14 13 13 12 12 12 12 12 11 11 11 11 11 11 11 11 11 11 11 11 11 11 10 10 10 10 10 10 9 9 9 9 9 9 9 9
15 14 14 14 14 14 14 13 13 13 12 12 12 12 11 11 11 11 11 11 11 11 11 11 11 11 11 11 11 10 10 10 10 10 10 9 9 9 9 9 9 9 9
14 14 14 14 14 14 14 13 13 13 12 12 12 11 11 11 11 11 11 11 11 11 11 11 11 11 11 10 10 10 10 10 10 10 10 9 9 9 9 9 8 8 8
14 14 14 14 14 14 13 13 13 13 12 12 12 11 11 11 11 11 11 11 11 11 11 11 11 11 10 10 10 10 10 10 10 10 10 9 9 9 8 8 8 8 8
14 14 14 13 13 13 13 13 13 13 12 12 12 11 11 11 11 11 11 11 11 10 10 11 10 10 10 10 10 10 10 10 9 9 9 9 9 9 9 8 8 8 8
14 14 14 13 13 13 13 13 13 13 12 12 12 11 11 11 11 11 11 11 10 10 10 10 10 10 10 10 10 10 9 9 9 9 9 9 9 9 9 9 8 8 8
14 14 13 13 13 13 13 13 13 12 12 12 12 11 11 11 11 11 11 10 10 10 10 10 10 10 10 10 10 9 9 9 9 9 9 9 9 9 9 9 9 8 8
14 14 13 13 13 13 13 13 12 12 12 12 12 12 11 11 11 11 11 10 10 10 10 10 10 10 10 9 9 9 9 9 9 9 9 9 9 9 9 9 9 9 8
14 14 14 13 13 13 13 12 12 12 12 12 12 12 11 11 11 11 10 10 10 10 10 10 9 9 9 9 9 9 9 9 9 9 9 9 9 9 9 9 9 9 8
14 14 13 13 13 13 12 12 12 12 12 12 12 12 12 11 11 11 10 10 10 10 10 10 9 9 9 9 9 9 9 9 9 9 9 9 9 9 9 9 9 8 8
14 14 14 13 13 13 13 13 13 12 12 12 12 12 12 11 11 11 10 10 10 10 10 9 9 9 9 9 9 9 9 9 10 10 10 9 9 9 9 9 9 8 8
14 14 14 14 13 13 13 13 12 12 12 12 12 12 12 12 11 11 11 10 10 10 10 10 10 9 9 9 9 9 9 10 10 10 10 10 10 9 9 9 9 8 8
14 14 14 14 14 13 13 13 12 12 12 13 13 13 12 12 11 11 11 11 10 10 10 10 10 9 9 9 9 9 9 9 9 10 10 10 10 9 9 9 9 8 8
14 14 14 14 14 13 13 13 13 13 13 13 13 12 12 12 12 11 11 11 11 10 10 10 10 10 9 9 9 9 9 9 9 9 9 10 10 9 9 9 9 8 8
14 14 14 14 14 14 13 13 13 13 13 13 13 13 12 12 12 12 11 11 11 11 10 10 10 10 10 9 9 9 9 9 9 9 9 9 9 9 9 9 9 8 8

GEFSSE_850_meantemp_156.txt.gz
Temperature
21 20 19 18 18 18 17 17 17 17 16 16 16 16 16 16 16 15 15 15 15 15 15 15 15 15 14 14 14 14 14 14 14 14 13 13 13 13 13 13 13 13 13
21 20 19 18 17 17 17 17 16 16 16 16 16 16 16 16 15 15 15 15 15 15 15 14 14 14 14 13 14 14 14 14 13 13 13 13 13 13 13 13 12 12 12
20 19 18 18 17 17 17 16 16 16 16 16 16 16 15 15 15 15 15 15 14 14 14 14 13 13 14 13 14 14 14 13 13 13 12 12 12 12 12 12 12 12 12
19 18 18 17 17 16 16 16 16 16 16 16 15 15 15 15 15 15 14 14 14 14 13 13 13 13 13 13 13 13 13 13 13 12 12 11 11 12 12 12 12 12 12
18 17 17 17 16 16 16 16 16 16 15 15 15 15 15 15 15 14 14 14 13 13 13 13 13 13 13 13 13 13 13 13 13 12 11 11 11 11 11 11 11 11 11
18 17 16 16 16 16 16 16 16 15 15 15 15 15 15 14 14 14 14 13 13 13 13 13 13 13 13 13 13 13 13 12 12 11 11 11 11 11 11 11 11 11 11
17 16 16 16 16 16 16 16 16 15 15 15 14 14 14 14 14 13 13 13 13 12 12 12 12 12 12 12 13 13 13 12 11 11 10 10 11 11 11 11 11 11 11
16 16 15 16 16 16 16 15 15 15 15 14 14 14 14 13 13 13 13 13 12 12 12 12 12 12 12 12 12 12 12 11 11 10 10 10 10 10 10 10 11 10 10
15 15 15 15 15 15 15 15 15 15 14 14 14 14 13 13 13 13 12 12 12 12 12 12 11 11 11 12 12 12 12 11 10 10 10 10 10 10 10 10 10 10 10
15 15 15 15 15 15 15 15 15 14 14 14 13 13 13 13 12 12 12 12 12 12 11 11 11 11 11 11 12 12 11 11 10 10 10 10 10 10 10 10 10 10 10
14 14 15 15 15 15 15 14 14 14 14 13 13 13 13 12 12 11 11 11 11 11 11 11 11 11 11 11 11 11 11 10 10 10 10 10 10 10 10 10 10 9 9
14 14 14 15 15 15 14 14 14 14 13 13 13 12 12 12 11 11 11 11 11 11 11 11 11 11 10 10 11 10 10 10 10 9 9 10 10 9 9 9 9 9 9
14 14 14 14 14 14 14 14 14 13 13 13 12 12 12 11 11 11 11 11 10 10 10 11 10 10 10 10 10 10 10 10 9 9 9 10 9 9 9 9 9 9 9
14 14 14 14 14 14 14 14 13 13 13 12 12 12 12 11 11 11 11 10 10 10 10 10 10 10 10 10 10 10 10 10 9 9 9 10 9 9 9 9 9 9 9
13 13 13 14 14 14 14 14 13 13 13 12 12 12 11 11 11 11 10 10 10 10 10 10 10 10 10 10 10 10 10 10 10 9 9 9 9 9 9 9 9 8 8
13 13 13 13 13 14 14 14 13 13 13 12 12 12 11 11 11 11 10 10 10 10 10 10 10 10 10 10 10 9 9 9 9 9 9 9 9 9 9 9 8 8 8
13 13 13 13 13 13 13 13 13 13 13 12 12 12 11 11 11 11 10 10 10 10 10 9 9 9 9 9 9 9 9 9 9 9 9 9 9 9 9 9 9 8 8
12 12 13 13 13 13 13 13 13 13 13 12 12 12 11 11 11 11 10 10 10 10 9 9 9 9 9 9 9 9 9 9 9 9 9 9 9 9 9 9 9 8 8
12 12 12 13 13 13 13 13 13 13 13 12 12 12 11 11 11 11 10 10 10 10 9 9 9 9 9 9 9 9 9 9 9 9 9 9 9 9 9 9 9 9 8
12 12 12 12 13 13 13 13 13 13 13 12 12 12 11 11 11 10 10 10 10 10 9 9 9 9 9 9 9 9 9 9 9 9 9 9 9 9 9 9 9 9 9
11 12 12 12 12 12 13 13 12 12 12 12 12 12 11 11 11 10 10 10 10 10 10 9 9 9 9 9 9 9 9 9 9 9 9 9 9 9 9 9 9 9 9
11 11 12 12 12 12 12 12 12 12 12 12 12 11 11 11 11 11 10 10 10 10 9 9 9 9 9 9 8 8 9 9 9 9 9 9 9 9 9 9 9 9 9
11 11 12 12 12 12 12 12 12 12 12 12 12 12 11 11 11 11 11 10 10 10 10 9 9 9 9 9 9 9 9 10 9 9 9 9 9 9 9 9 9 9 9
11 11 11 11 12 12 12 12 12 11 11 12 12 12 11 11 11 11 11 10 10 10 10 10 10 9 9 9 9 9 9 9 9 9 9 9 9 9 9 9 9 9 8
11 11 11 11 11 12 12 12 12 12 11 11 11 11 11 11 11 11 11 10 10 10 10 10 10 9 9 9 9 9 9 9 9 9 9 9 9 9 9 9 9 8 8
10 10 11 11 11 11 12 12 12 12 11 11 11 11 11 11 11 11 11 11 11 10 10 10 10 10 9 9 9 9 9 9 9 9 9 9 9 9 9 9 9 8 8

GEFSSE_850_meantemp_162.txt.gz
Temperature
21 22 21 20 19 19 19 18 18 18 18 18 18 18 17 17 17 17 16 16 16 16 16 16 15 15 15 15 15 15 15 14 14 14 14 13 13 13 13 13 13 13 13
21 21 20 19 19 18 18 18 18 18 18 18 17 17 17 17 16 16 16 16 16 16 15 15 15 15 14 14 14 14 14 14 13 13 13 13 13 13 13 13 13 13 13
20 20 20 19 18 17 17 17 17 17 17 17 17 17 16 16 16 16 16 15 15 15 15 15 14 14 14 14 14 14 14 13 13 13 13 13 13 13 13 12 12 12 12
20 19 19 18 17 17 17 17 17 17 17 17 16 16 16 16 16 15 15 15 15 15 15 14 14 14 14 14 14 14 13 13 12 12 12 12 12 12 12 12 12 12 12
19 19 18 18 17 17 16 16 16 17 16 16 16 16 16 15 15 15 15 14 14 14 14 14 14 14 14 14 14 13 13 12 12 12 12 12 12 12 12 12 12 12 12
19 18 18 17 17 16 16 16 16 16 16 16 16 16 15 15 15 15 14 14 14 14 14 14 14 14 14 14 13 13 12 12 12 12 12 12 12 11 12 12 12 12 12
18 18 17 17 17 16 16 16 16 16 16 16 15 15 15 15 15 14 14 14 14 14 13 13 14 14 14 13 13 13 12 12 11 11 12 11 11 11 11 11 11 11 11
18 17 17 17 16 16 16 16 16 16 15 15 15 15 15 14 14 14 14 14 13 13 13 13 13 13 13 13 13 12 12 11 11 11 11 11 11 11 11 11 11 11 11
17 17 17 16 16 16 16 16 16 15 15 15 15 15 15 14 14 14 13 13 13 13 12 12 13 13 13 13 13 12 12 11 11 11 11 11 11 11 11 11 11 11 11
17 17 16 16 16 16 16 15 15 15 15 15 15 15 14 14 14 13 13 13 13 12 12 12 12 12 12 13 12 12 11 11 11 11 11 11 11 11 10 10 10 10 10
16 16 16 16 16 15 15 15 15 15 15 15 14 14 14 14 13 13 13 13 12 12 12 12 12 12 12 12 12 11 11 11 11 11 11 11 10 10 10 10 10 10 10
16 16 16 16 15 15 15 15 15 15 14 14 14 14 14 13 13 13 12 12 12 12 11 11 11 11 12 12 12 11 11 11 11 11 11 10 10 10 10 10 10 10 10
15 15 15 15 15 15 15 15 14 14 14 14 14 14 13 13 13 12 12 12 11 11 11 11 11 11 11 11 11 11 11 10 10 10 10 10 10 10 10 10 10 10 10
15 15 15 15 15 15 14 14 14 14 14 14 14 13 13 13 12 12 12 11 11 11 11 11 11 11 10 11 11 11 11 10 10 10 10 10 10 10 10 10 10 10 10
15 15 15 15 14 14 14 14 14 14 14 13 13 13 13 13 12 12 12 11 11 11 11 11 10 10 10 10 10 10 10 10 10 10 10 10 10 10 10 9 9 9 10
14 14 14 14 14 14 14 14 14 14 13 13 13 13 13 13 12 12 11 11 11 11 11 10 10 10 10 10 10 10 10 10 10 10 10 10 10 10 10 9 9 9 9
14 14 14 14 14 14 14 14 13 13 13 13 13 13 13 12 12 12 11 11 11 11 10 10 10 10 10 10 10 10 10 10 10 10 10 10 10 10 10 10 9 9 9
14 14 14 13 13 13 13 13 13 13 13 13 13 12 12 12 12 12 11 11 11 10 10 10 10 10 10 10 10 10 10 10 10 10 10 10 10 10 10 10 9 9 9
13 13 13 13 13 13 13 13 13 13 13 13 13 12 12 12 12 12 11 11 11 10 10 10 10 10 10 10 10 10 10 10 10 10 10 9 9 10 10 10 9 9 9
13 13 13 13 13 13 13 13 13 13 12 12 12 12 12 12 12 11 11 11 11 10 10 10 10 10 10 10 10 9 9 9 10 10 10 10 9 9 10 10 10 9 9
12 12 12 12 12 12 12 12 12 12 12 12 12 12 12 12 12 11 11 11 10 10 10 10 10 10 10 9 9 9 9 9 9 9 9 9 9 9 9 9 9 9 9
12 12 11 12 12 12 12 12 12 12 12 12 12 12 12 12 11 11 11 11 10 10 10 10 10 9 9 9 9 9 9 9 9 9 9 9 9 9 9 9 9 9 9
11 11 11 11 11 11 11 11 11 11 11 11 11 12 12 12 11 11 11 11 10 10 10 10 10 9 9 9 9 10 9 9 9 9 9 9 9 9 9 10 9 9 9
11 11 11 10 11 11 11 11 11 11 11 11 11 11 11 11 11 11 11 11 10 10 10 10 10 10 10 9 9 10 10 10 10 9 9 9 9 9 9 9 9 9 9
10 10 10 10 10 10 11 11 11 11 11 11 11 11 11 11 11 11 11 11 10 10 10 10 10 10 10 10 10 10 10 10 10 10 9 9 9 9 9 9 9 9 9
10 10 9 10 10 10 10 10 10 10 10 10 11 11 11 11 11 11 11 11 11 10 10 10 10 10 10 10 10 10 10 10 10 10 10 10 9 9 9 9 9 9 9

GEFSSE_850_meantemp_168.txt.gz
Temperature
20 20 19 19 19 19 19 19 19 19 19 19 18 18 18 17 17 17 17 17 17 17 16 16 16 16 15 15 15 15 14 14 14 14 14 14 13 13 13 13 13 13 13
21 20 19 19 18 18 18 18 18 18 18 18 18 18 17 17 17 17 17 17 16 16 16 16 16 15 15 15 15 15 14 14 14 14 13 13 13 13 13 13 13 13 13
20 20 19 19 18 18 18 18 18 18 18 18 18 17 17 17 17 17 16 16 16 16 16 16 15 15 15 15 14 14 14 14 14 13 13 13 13 13 13 13 13 13 13
20 19 19 18 18 17 17 17 17 17 17 17 17 17 17 17 16 16 16 16 16 16 15 15 15 15 15 14 14 13 13 13 13 13 13 13 12 12 12 12 12 12 12
19 19 18 18 18 17 17 17 17 17 17 17 17 17 17 16 16 16 16 16 15 15 15 15 15 14 14 14 14 13 13 13 13 13 13 13 12 12 12 12 12 12 12
19 18 18 18 17 17 17 17 16 16 16 16 16 16 16 16 16 15 15 15 15 15 15 15 14 14 14 14 13 13 13 13 13 13 13 12 12 12 12 12 12 12 11
18 18 18 17 17 17 17 16 16 16 16 16 16 16 16 16 16 15 15 15 14 15 14 14 14 14 14 13 13 13 13 13 13 12 12 12 12 12 11 11 11 11 11
18 17 17 17 17 17 16 16 16 16 16 16 16 16 16 15 15 15 15 14 14 14 14 14 14 13 13 13 13 13 13 12 12 12 12 12 12 11 11 11 11 11 11
17 17 17 16 16 16 16 16 16 16 16 16 16 15 15 15 15 15 15 14 14 14 14 14 14 13 13 13 13 12 12 12 12 12 12 12 11 11 11 11 11 11 11
16 16 16 16 16 16 16 16 15 15 15 15 15 15 15 15 15 15 15 14 14 14 14 13 13 13 13 13 12 12 12 12 12 12 11 11 11 11 11 11 11 11 11
15 15 15 15 15 15 15 15 15 15 15 15 15 15 15 15 15 14 14 14 14 14 13 13 13 13 13 12 12 12 12 12 11 11 11 11 11 11 11 11 11 11 11
14 15 15 15 15 15 15 15 15 15 15 15 15 15 14 14 14 14 14 14 14 13 13 13 12 12 12 12 12 11 11 11 11 11 11 11 11 11 11 11 11 10 10
14 14 14 14 14 14 14 15 15 14 14 14 14 14 14 14 14 14 14 13 13 13 12 12 12 12 12 12 12 11 11 11 11 11 11 11 11 10 10 10 10 10 10
13 13 13 14 14 14 14 14 14 14 14 14 14 14 14 14 14 14 14 13 13 13 12 12 12 12 12 12 11 11 11 11 11 11 11 11 10 10 10 10 10 10 10
13 13 13 13 13 14 14 13 13 14 14 14 13 13 14 14 13 13 13 13 13 13 12 12 12 12 11 11 11 11 11 11 11 11 11 10 10 10 10 10 10 10 10
13 13 13 13 13 13 13 13 13 13 13 13 13 13 13 13 13 13 13 13 13 13 12 12 12 11 11 11 11 11 11 11 11 10 10 10 10 10 10 10 10 10 9
12 12 12 12 13 13 13 13 13 13 13 13 13 13 13 13 13 13 13 13 13 12 12 12 11 11 11 11 10 10 10 10 10 10 10 10 10 10 10 10 10 10 9
12 12 12 12 12 12 12 12 12 12 12 12 12 12 13 13 12 12 12 13 12 12 12 11 11 11 10 10 10 10 10 10 10 10 10 10 10 10 10 10 10 10 10
11 11 12 12 12 12 12 12 12 12 12 12 12 12 12 12 12 12 12 12 12 12 11 11 11 11 10 10 10 10 10 10 10 10 10 10 10 10 10 10 10 10 10
11 11 11 11 11 11 11 11 12 12 12 12 12 12 12 12 12 12 12 12 12 11 11 11 11 10 10 10 10 10 10 10 10 10 10 10 10 10 10 10 10 9 9
11 11 11 11 11 11 11 11 11 11 11 11 11 12 12 12 12 11 11 11 11 11 11 11 10 10 10 10 10 9 9 9 9 10 10 10 10 10 10 10 10 9 9
10 10 10 10 10 10 10 10 10 11 11 11 11 11 11 11 11 11 11 11 11 11 11 10 10 10 10 10 9 9 9 9 9 9 9 10 10 10 10 9 9 9 9
9 10 10 10 10 10 10 10 10 10 10 10 11 10 11 11 11 11 11 11 11 11 11 11 10 10 10 9 10 9 9 9 9 9 9 9 10 10 9 9 9 9 9
9 9 9 9 9 9 9 9 9 9 9 10 10 10 10 10 11 11 11 11 11 10 11 11 10 10 10 10 9 10 10 10 9 9 9 9 9 9 9 9 9 9 9
8 8 9 9 9 9 9 9 9 9 9 9 10 10 10 10 10 10 10 10 10 10 10 10 10 10 10 10 10 10 10 10 10 10 9 9 9 10 10 9 9 9 9
8 8 8 8 8 8 8 9 9 9 9 9 9 9 9 9 10 10 10 10 10 10 10 10 10 10 10 10 10 10 10 10 10 10 10 10 10 10 10 10 9 9 9

GEFSSE_850_meantemp_174.txt.gz
Temperature
19 19 19 18 18 17 17 17 17 17 17 18 18 18 18 18 17 17 17 17 17 17 17 16 16 16 16 16 15 15 15 15 14 14 14 14 13 13 13 13 13 14 13
19 19 19 18 18 17 17 17 17 17 17 17 17 17 17 17 17 17 17 17 17 17 16 16 16 16 16 15 15 15 15 15 14 14 14 14 13 13 13 13 13 13 13
19 19 18 18 17 17 17 17 17 17 17 17 17 17 17 17 17 17 17 17 16 16 16 16 16 16 15 15 15 15 15 14 14 14 14 13 13 13 13 13 13 13 13
18 18 18 18 17 17 17 17 17 17 17 17 17 17 17 17 17 17 16 16 16 16 16 16 16 15 15 15 15 15 14 14 14 14 13 13 13 13 13 12 12 12 12
18 18 17 17 17 17 17 17 17 17 17 17 16 16 16 16 16 16 16 16 16 16 15 15 15 15 15 15 15 14 14 14 14 13 13 13 13 12 12 12 12 12 12
17 17 17 16 16 17 17 17 16 16 16 16 16 16 16 16 16 16 16 16 16 15 15 15 15 15 15 14 14 14 14 14 14 13 13 13 12 12 12 12 12 12 12
16 16 16 16 16 16 16 16 16 16 16 16 16 16 16 16 16 16 16 15 15 15 15 15 14 14 14 14 14 14 14 14 13 13 13 12 12 12 12 11 12 11 11
16 16 16 16 16 16 16 16 16 16 16 16 16 16 16 16 16 15 15 15 15 15 15 14 14 14 14 14 14 14 13 13 13 13 12 12 12 12 11 11 11 11 11
15 15 15 15 15 15 15 15 16 15 15 15 15 15 16 15 15 15 15 15 15 15 15 14 14 14 14 14 14 13 13 13 13 12 12 12 12 11 11 11 11 11 11
14 15 15 15 15 15 15 15 15 15 15 15 15 15 15 15 15 15 15 15 15 15 14 14 14 14 14 14 13 13 13 13 12 12 12 12 11 11 11 11 11 11 11
14 14 14 14 14 15 15 15 15 15 15 15 15 15 15 15 15 15 14 14 14 14 14 14 14 13 13 13 13 13 13 12 12 12 12 11 11 11 11 11 11 11 11
13 13 13 14 14 14 14 14 14 15 15 14 14 14 14 14 14 14 14 14 14 14 14 14 13 13 13 13 13 12 12 12 12 12 11 11 11 11 11 11 11 10 10
12 13 13 13 13 13 14 14 14 14 14 14 14 14 14 14 14 14 14 14 14 14 13 13 13 13 13 13 13 12 12 12 12 11 11 11 11 11 11 11 10 10 10
12 12 13 13 13 13 13 13 13 13 13 14 14 14 14 14 14 14 14 13 14 14 13 13 13 13 13 13 12 12 12 12 11 11 11 11 11 11 10 10 10 10 10
11 12 12 12 12 12 12 13 13 13 13 13 13 13 13 13 13 13 13 13 13 13 13 13 13 13 12 12 12 12 12 11 11 11 11 11 11 10 10 10 10 10 10
11 11 11 12 12 12 12 12 12 12 12 12 13 13 13 13 13 13 13 13 13 13 13 13 13 12 12 12 12 12 11 11 11 11 11 10 10 10 10 10 10 10 10
11 11 11 11 11 11 11 11 11 12 12 12 12 12 12 12 12 13 13 13 13 13 12 12 12 12 12 12 11 11 11 11 11 11 10 10 10 10 10 10 10 10 9
10 10 10 11 11 11 11 11 11 11 11 11 12 12 12 12 12 12 12 12 12 12 12 12 12 11 11 11 11 11 11 11 11 10 10 10 10 10 10 10 10 10 9
10 10 10 10 10 10 10 10 11 11 11 11 11 11 11 11 12 12 12 12 12 12 12 11 11 11 11 11 11 11 10 10 10 10 10 10 10 10 10 10 10 9 9
9 9 9 9 10 10 10 10 10 10 10 10 11 11 11 11 11 11 11 11 11 11 11 11 11 11 11 11 10 10 10 10 10 10 10 10 10 10 10 10 9 9 9
9 9 9 9 9 9 9 9 9 10 10 10 10 10 10 11 11 11 11 11 11 11 11 11 11 10 10 10 10 9 9 9 10 10 10 10 10 10 10 9 9 9 9
9 9 9 8 8 8 9 9 9 9 9 9 10 10 10 10 10 10 10 10 11 10 10 10 10 10 10 10 10 9 9 9 9 10 10 10 10 10 10 9 9 9 9
8 8 8 8 8 8 8 8 8 8 8 8 9 9 10 10 10 10 10 10 10 10 10 10 10 10 10 9 9 9 9 9 9 9 10 10 10 10 10 9 9 9 9
8 8 8 8 8 8 8 8 8 8 8 8 8 9 9 9 9 9 9 9 10 10 10 10 10 10 10 9 9 9 10 10 9 9 9 9 10 10 10 9 9 9 9
8 8 7 7 7 7 7 7 7 7 7 8 8 8 8 9 9 9 9 9 9 9 9 9 9 10 10 10 9 9 9 9 10 9 9 9 9 10 10 9 9 9 9
7 7 7 7 7 7 7 7 7 7 7 7 7 8 8 8 8 8 8 8 9 9 9 9 9 9 9 9 9 9 9 10 10 10 10 9 9 9 9 9 9 9 9

GEFSSE_850_meantemp_180.txt.gz
Temperature
17 17 17 17 17 17 17 17 17 17 17 17 17 17 17 17 17 17 17 17 17 17 17 17 17 16 16 16 16 16 16 15 15 15 15 15 14 14 14 14 14 14 14
16 16 17 17 17 17 17 17 17 17 17 17 17 17 17 17 17 17 17 17 17 17 17 17 17 16 16 16 16 16 16 15 15 15 15 14 14 14 14 14 14 13 14
16 16 16 17 17 17 17 17 17 17 17 17 17 17 17 17 17 17 17 17 17 17 17 17 16 16 16 16 16 16 15 15 15 15 14 13 13 14 14 14 14 13 13
16 16 16 17 17 17 17 17 17 17 17 17 17 17 17 17 17 17 17 17 17 17 16 16 16 16 16 16 16 15 15 15 15 14 14 13 13 13 13 13 13 13 13
15 16 16 16 16 16 16 17 17 16 16 16 16 16 16 16 16 16 16 16 16 16 16 16 16 16 16 15 15 15 15 15 15 14 13 13 13 13 13 13 13 13 13
15 15 16 16 16 16 16 16 16 16 16 16 16 16 16 16 16 16 16 16 16 16 16 16 16 15 15 15 15 15 15 15 14 13 13 13 13 13 13 13 12 12 12
15 15 15 16 16 16 16 16 16 16 16 16 16 16 16 16 16 16 16 16 16 16 16 16 15 15 15 15 15 15 15 15 14 13 13 13 13 13 13 12 12 12 12
14 15 15 15 16 16 16 16 16 16 16 16 16 16 15 15 15 15 15 16 15 15 15 15 15 15 15 15 15 15 14 14 13 13 13 12 13 12 12 12 12 12 12
14 14 15 15 15 15 16 16 16 16 16 16 15 15 15 15 15 15 15 15 15 15 15 15 15 15 15 14 14 14 14 14 13 13 12 12 12 12 12 12 12 12 11
13 14 14 14 14 15 15 15 15 15 15 15 15 15 15 15 15 15 15 15 15 15 15 15 15 15 15 14 14 14 14 13 13 12 12 12 12 12 12 12 12 11 11
13 13 13 14 14 14 14 14 15 15 15 15 15 15 15 15 15 14 14 15 14 14 14 14 14 14 14 14 14 14 13 13 12 12 12 12 12 12 12 12 11 11 11
12 13 13 13 13 13 14 14 14 14 14 14 14 14 14 14 14 14 14 14 14 14 14 14 14 14 14 13 13 13 13 13 12 12 12 12 12 12 12 11 11 11 11
11 12 12 12 13 13 13 13 13 13 14 14 14 14 14 14 14 14 14 14 14 14 13 13 13 13 13 13 13 13 13 12 12 12 12 12 12 12 12 11 11 11 11
11 11 11 12 12 12 12 12 13 13 13 13 13 13 13 13 13 13 13 13 13 13 13 13 13 13 13 13 13 13 13 12 12 12 12 12 12 12 11 11 11 11 11
11 11 11 11 12 12 12 12 12 12 12 12 12 12 12 12 12 13 13 13 13 13 13 13 13 13 12 12 13 13 12 12 12 12 12 12 12 12 11 11 11 11 11
10 11 11 11 11 11 11 11 11 11 12 11 12 12 12 12 12 12 12 12 12 12 12 12 12 12 12 12 12 12 12 12 12 12 11 11 11 11 11 11 11 11 11
10 10 10 10 11 11 11 11 11 11 11 11 11 11 11 11 11 11 11 11 12 12 12 12 12 12 12 12 12 12 12 12 12 11 11 11 11 11 11 11 11 11 10
9 10 10 10 10 10 10 10 10 10 10 10 10 11 11 11 11 11 11 11 11 11 11 11 11 11 11 12 12 11 11 11 11 11 11 11 11 10 11 11 11 11 10
9 9 9 9 10 9 10 10 10 10 10 10 10 10 10 10 10 10 10 10 11 11 11 11 11 11 11 11 11 11 11 11 11 11 11 11 10 10 10 10 10 10 10
9 9 9 9 9 9 9 9 9 9 9 9 9 9 10 10 10 10 10 10 10 10 10 10 11 11 10 10 11 10 11 10 11 10 10 10 10 10 10 10 10 10 10
9 9 9 9 9 8 8 8 9 9 9 9 9 9 9 9 9 9 9 9 10 10 10 10 10 10 10 10 10 10 10 10 10 10 10 10 10 10 10 10 10 10 10
8 8 8 8 8 8 8 8 8 8 8 8 8 8 8 8 9 9 9 9 9 9 9 9 9 9 9 9 9 9 9 9 10 10 10 10 10 10 10 10 10 10 10
8 8 8 8 8 8 7 7 8 8 8 8 8 8 8 8 8 8 8 8 8 8 9 9 9 9 9 9 9 9 9 10 9 9 10 10 10 10 10 10 9 9 9
8 8 8 8 8 7 7 7 7 7 7 7 7 7 7 8 7 8 8 8 8 8 8 8 8 8 8 8 9 9 9 9 9 9 9 9 9 10 10 9 9 9 9
7 8 8 7 7 7 7 7 7 7 7 7 7 7 7 7 7 7 7 7 7 7 8 8 8 8 8 8 8 8 9 9 9 9 9 9 9 9 9 9 9 9 9
7 7 7 7 7 7 6 6 6 6 6 6 6 6 6 7 7 7 7 7 7 7 7 8 8 8 8 8 8 8 8 9 9 9 9 8 8 8 9 9 9 9 9

GEFSSE_850_meantemp_186.txt.gz
Temperature
16 17 17 17 17 17 17 17 17 17 17 17 17 17 17 17 17 17 17 17 17 17 17 17 17 17 17 17 17 16 16 16 16 15 15 15 15 15 14 14 14 14 14
16 17 17 17 17 17 17 17 17 17 17 17 17 17 17 17 17 17 17 17 17 17 17 17 17 16 16 16 16 16 16 16 15 15 15 15 14 14 14 14 14 14 14
16 16 17 17 17 17 17 17 17 17 17 17 17 17 17 17 17 17 17 17 17 17 17 16 16 16 16 16 16 16 16 15 15 15 15 14 14 14 14 14 14 14 14
16 16 17 17 17 17 17 17 17 17 17 17 17 17 17 17 17 17 17 17 17 17 16 16 16 16 16 16 16 16 16 15 15 15 14 14 14 14 14 14 14 14 13
16 16 16 17 17 17 17 17 17 17 17 17 17 17 17 17 16 16 17 17 16 16 16 16 16 16 16 16 16 16 15 15 15 14 14 14 14 14 14 14 14 13 13
16 16 16 16 17 17 17 17 17 17 17 16 16 16 16 16 16 16 16 16 16 16 16 16 16 16 16 16 16 16 15 15 14 14 14 14 13 13 13 13 13 13 13
16 16 16 16 16 16 16 17 17 16 16 16 16 16 16 16 16 16 16 16 16 16 16 16 16 16 16 16 16 15 15 15 14 14 13 14 13 13 13 13 13 13 13
15 15 15 15 16 16 16 16 16 16 16 16 16 16 16 16 16 16 16 16 16 16 16 16 15 15 15 15 15 15 15 14 14 14 13 13 13 13 13 13 13 13 13
15 15 15 15 15 15 15 16 16 16 16 16 16 16 16 16 16 15 16 16 16 15 15 15 15 15 15 15 15 15 15 14 14 13 13 13 13 13 13 13 13 13 13
14 14 14 14 14 15 15 15 15 15 15 16 16 16 15 15 15 15 15 15 15 15 15 15 15 15 15 15 15 15 14 14 14 13 13 13 13 13 13 13 13 13 13
14 14 13 13 14 14 14 14 14 14 15 15 15 15 15 15 15 15 15 15 15 15 15 15 14 15 15 14 14 14 14 14 14 13 13 13 13 13 13 13 13 13 12
13 13 13 13 13 13 13 14 14 14 14 14 14 14 14 14 14 14 14 14 14 14 14 14 14 14 14 14 14 14 14 14 13 13 13 13 13 13 13 13 13 12 12
13 13 12 12 12 13 13 13 13 13 13 14 14 14 14 14 14 14 14 14 14 14 14 14 14 14 14 14 14 14 14 14 13 13 13 13 13 13 13 13 13 12 12
12 12 12 12 12 12 12 12 12 13 13 13 13 13 13 13 13 13 13 13 13 13 13 13 13 14 14 14 13 13 13 13 13 13 13 13 13 13 13 12 12 12 12
12 12 11 11 11 11 12 12 12 12 12 12 12 12 12 12 12 12 12 12 13 13 13 13 13 13 13 13 13 13 13 13 13 13 13 13 13 13 13 12 12 12 12
12 11 11 11 11 11 11 11 11 11 11 11 12 12 12 12 12 12 12 12 12 12 12 12 12 12 12 12 12 12 13 13 13 13 13 13 13 13 12 12 12 12 12
11 11 11 10 10 10 10 11 11 11 11 11 11 11 11 11 11 11 11 11 11 11 11 12 12 12 12 12 12 12 12 12 13 13 12 12 12 12 12 12 12 12 12
11 11 10 10 10 10 10 10 10 10 10 10 10 10 10 10 10 10 11 11 11 11 11 11 11 11 11 12 12 12 12 12 12 12 12 12 12 12 12 12 12 12 12
11 10 10 10 10 10 10 10 10 9 9 10 10 10 10 10 10 10 10 10 10 10 10 10 10 10 11 11 11 11 11 12 12 12 12 12 12 12 12 12 11 12 11
10 10 10 9 9 9 9 9 9 9 9 9 9 9 9 9 9 9 9 9 9 9 9 9 10 10 10 10 10 11 11 11 11 11 11 11 12 11 11 11 11 11 11
10 10 9 9 9 9 9 9 9 9 9 9 9 9 9 9 9 8 8 8 8 8 9 9 9 9 9 9 9 10 10 10 11 11 11 11 11 11 11 11 11 11 11
10 9 9 9 8 8 8 8 8 8 8 8 8 8 8 8 8 8 8 8 8 8 8 8 8 8 9 9 9 9 9 9 10 10 10 10 11 11 11 11 11 11 11
9 9 9 8 8 8 8 8 7 7 7 7 8 8 8 8 8 8 7 7 7 7 7 8 7 8 8 8 8 8 8 9 9 9 10 10 10 10 10 10 10 10 10
9 9 8 8 8 8 7 7 7 7 7 7 7 7 7 7 7 7 7 7 7 7 7 7 7 7 7 8 8 8 8 8 8 9 9 9 10 10 10 10 10 10 10
9 9 8 8 8 7 7 7 7 7 7 7 7 7 7 7 7 7 7 7 6 6 6 7 7 7 7 7 7 7 8 8 8 8 8 9 9 9 9 9 10 10 10
9 8 8 8 7 7 7 7 7 7 7 6 6 6 6 6 6 6 6 6 6 6 6 6 6 6 7 7 7 7 7 7 8 8 8 8 8 9 9 9 9 9 9

GEFSSE_850_meantemp_192.txt.gz
Temperature
16 16 16 17 17 17 17 17 17 17 17 17 18 17 17 17 17 17 17 17 17 17 17 17 17 17 17 16 16 16 16 16 15 15 15 15 15 15 15 15 15 14 14
16 16 16 17 17 17 17 17 17 17 17 17 17 17 17 17 17 17 17 17 17 17 17 17 17 17 17 16 16 16 16 15 15 15 15 15 15 14 14 14 14 14 14
16 16 16 17 17 17 17 17 17 17 17 17 17 17 17 17 17 17 17 17 17 17 17 17 17 17 16 16 16 16 16 15 15 15 15 15 14 14 14 14 14 14 14
16 16 16 17 17 17 17 17 17 17 17 17 17 17 17 17 17 17 17 17 17 17 17 16 16 16 16 16 16 16 15 15 15 15 15 15 14 14 14 14 14 14 14
16 16 16 16 17 17 17 17 17 17 17 17 17 17 16 16 16 16 16 16 16 16 16 16 16 16 16 16 16 15 15 15 15 15 15 15 14 14 14 14 14 14 13
16 16 16 16 16 16 16 16 16 16 16 16 16 16 16 16 16 16 16 16 16 16 16 16 16 16 16 16 15 15 15 15 15 15 14 14 14 14 14 14 14 14 13
16 16 16 16 16 16 16 16 16 16 16 16 16 16 16 16 16 16 16 16 16 16 16 16 16 16 15 15 15 15 15 15 15 14 14 14 14 14 14 14 14 13 13
16 16 16 16 16 16 16 16 16 16 16 16 16 16 16 16 16 16 16 16 16 16 16 16 15 15 15 15 15 15 15 15 14 14 14 14 14 14 14 14 14 13 13
15 15 15 15 15 15 15 15 15 16 16 16 16 16 16 16 15 16 15 15 15 15 15 15 15 15 15 15 15 15 15 14 14 14 14 14 14 14 14 14 14 13 13
15 15 15 15 15 15 15 15 15 15 15 15 15 15 15 15 15 15 15 15 15 15 15 15 15 15 15 15 14 14 14 14 14 14 14 14 14 13 13 13 13 13 13
14 14 14 14 14 14 14 14 14 14 14 14 14 14 14 14 14 15 15 15 15 15 15 15 15 15 14 14 14 14 14 14 14 14 14 14 13 13 13 13 13 13 13
14 13 13 13 14 13 13 14 14 14 14 14 14 14 14 14 14 14 14 14 14 14 14 14 14 14 14 14 14 14 14 14 14 13 13 14 13 13 13 13 13 13 13
13 13 13 13 13 13 13 13 13 13 13 13 13 13 13 13 13 14 14 14 14 14 14 14 14 14 14 14 14 14 13 13 13 13 13 13 13 13 13 13 13 13 13
13 13 13 13 13 12 12 12 12 13 13 13 13 13 13 13 13 13 13 13 13 13 13 13 13 13 13 13 13 13 13 13 13 13 13 13 13 13 13 13 13 13 13
13 12 12 12 12 12 12 12 12 12 12 12 12 12 12 12 12 12 12 12 12 12 12 13 13 13 13 13 13 13 13 13 13 13 13 13 13 13 13 13 13 13 13
12 12 12 12 12 12 12 12 11 11 12 12 12 12 11 11 12 12 12 12 12 12 12 12 12 12 12 12 12 12 12 12 12 12 12 12 12 12 12 12 12 12 12
12 12 12 11 11 11 11 11 11 11 11 11 11 11 11 11 11 11 11 11 11 11 11 11 11 11 11 11 11 12 12 12 12 12 12 12 12 12 12 12 12 12 12
12 11 11 11 11 11 11 11 11 10 10 10 10 10 10 10 10 10 10 10 10 10 10 10 10 10 11 11 11 11 11 11 12 12 12 12 12 12 12 12 12 12 12
12 11 11 11 11 10 10 10 10 10 10 10 10 9 9 9 9 9 9 9 9 9 9 9 9 9 10 10 10 10 10 10 11 11 11 11 12 12 12 12 12 12 12
11 11 11 10 10 10 10 10 9 9 9 9 9 9 9 9 9 9 9 9 9 9 9 9 8 8 9 9 9 9 10 10 10 10 11 11 11 11 11 11 11 11 11
11 11 10 10 10 10 9 9 9 9 9 9 9 8 8 8 8 8 8 8 8 8 8 8 8 8 8 8 8 8 9 9 10 10 10 10 10 11 11 11 11 11 11
11 11 10 10 10 9 9 9 9 8 8 8 8 8 8 8 8 8 8 8 8 8 7 7 7 7 7 7 7 6 7 8 9 9 9 10 10 10 10 10 10 11 11
10 10 10 10 9 9 9 8 8 8 8 8 8 8 8 8 8 7 7 7 7 7 7 7 7 6 6 6 6 6 6 6 7 8 9 9 9 9 10 10 10 10 10
10 10 10 9 9 9 8 8 8 8 7 7 7 7 7 7 7 7 7 7 7 7 7 7 6 6 6 6 6 6 6 6 6 6 7 8 8 9 9 9 9 10 10
10 10 9 9 9 9 8 8 7 7 7 7 7 7 7 7 7 7 7 6 6 6 6 6 6 6 6 5 5 5 5 5 5 5 6 7 8 8 8 9 9 9 9
10 9 9 9 9 8 8 8 7 7 7 6 6 6 6 6 6 6 6 6 6 6 6 6 6 6 5 5 5 5 5 5 5 5 5 6 6 7 8 8 8 9 9

GEFSSE_850_meantemp_198.txt.gz
Temperature
16 16 16 16 16 16 16 17 17 17 17 17 17 17 17 17 17 17 17 17 17 17 17 17 17 17 16 16 16 16 16 16 16 15 15 15 15 15 15 15 14 14 14
16 16 16 16 16 16 16 17 17 17 17 17 17 17 17 17 17 17 17 17 17 17 17 16 17 16 16 16 16 16 16 16 15 15 15 15 15 14 14 14 14 14 14
16 16 16 16 16 16 16 16 16 16 17 17 17 17 17 17 17 17 17 17 17 16 16 16 16 16 16 16 16 16 15 15 15 15 15 15 14 14 14 14 14 14 14
16 16 16 16 16 16 16 16 16 16 16 16 16 16 16 16 16 16 16 16 16 16 16 16 16 16 16 16 16 15 15 15 15 15 15 15 14 14 14 14 14 14 14
16 16 16 16 16 16 16 16 16 16 16 16 16 16 16 16 16 16 16 16 16 16 16 16 16 16 16 15 15 15 15 15 15 15 15 14 14 14 14 14 14 14 14
15 16 16 16 16 16 16 16 16 16 16 16 16 16 16 16 16 16 16 16 16 16 16 16 15 15 15 15 15 15 15 15 15 15 14 14 14 14 14 14 14 14 14
15 15 15 16 16 16 16 16 16 16 16 16 16 16 16 16 16 16 16 16 16 16 15 15 15 15 15 15 15 15 15 15 15 14 14 14 14 14 14 14 14 14 13
15 15 15 15 15 15 15 15 15 15 15 15 15 15 15 15 15 15 15 15 15 15 15 15 15 15 15 15 15 15 15 15 14 14 14 14 14 14 14 13 13 13 13
15 15 15 15 15 15 15 15 15 15 15 15 15 15 15 15 15 15 15 15 15 15 15 15 15 15 15 15 15 15 14 14 14 14 14 14 14 14 13 13 13 13 13
14 15 15 15 14 14 14 14 14 14 14 14 14 14 14 14 14 14 14 14 14 14 14 14 14 14 14 14 14 14 14 14 14 14 14 14 13 13 13 13 13 13 13
14 14 14 14 14 14 14 14 14 14 14 14 14 14 14 14 14 14 14 14 14 14 14 14 14 14 14 14 14 14 14 14 14 14 14 14 13 13 13 13 13 13 13
14 14 13 13 13 13 13 13 13 13 13 13 14 14 14 14 14 14 14 14 14 14 14 14 14 14 14 14 14 14 14 14 13 13 13 13 13 13 13 13 13 13 13
13 13 13 13 13 13 13 13 13 13 13 13 13 13 13 13 13 13 13 13 13 13 13 13 13 13 13 13 13 13 13 13 13 13 13 13 13 13 13 13 13 13 13
13 13 13 13 12 12 12 12 12 13 13 13 13 13 13 13 13 13 13 13 13 13 13 13 13 13 13 13 13 13 13 13 13 13 13 13 12 12 12 13 12 12 12
13 12 12 12 12 12 12 12 12 12 12 12 12 12 12 12 12 12 12 12 12 12 12 12 12 12 12 12 12 12 12 12 12 12 12 12 12 12 12 12 12 12 12
12 12 12 12 12 12 12 12 12 12 12 11 11 11 11 11 11 11 11 11 11 11 11 11 11 11 11 11 12 12 12 12 12 12 12 12 12 12 12 12 12 12 12
12 12 12 12 11 11 11 11 11 11 11 11 11 11 11 11 11 11 11 11 11 11 10 10 10 11 11 11 11 11 11 11 11 11 11 11 11 11 11 11 11 11 11
12 12 12 11 11 11 11 11 11 11 11 11 11 10 10 10 10 10 10 10 10 10 10 10 10 10 10 10 10 10 10 10 10 10 10 11 11 11 11 11 11 11 11
12 12 11 11 11 11 11 10 10 10 10 10 10 10 10 10 10 10 9 9 9 9 9 9 9 9 9 9 9 9 10 10 10 10 10 10 10 10 10 10 10 10 11
12 11 11 11 11 10 10 10 10 10 10 10 10 9 9 9 9 9 9 9 9 8 8 8 8 8 8 8 8 8 9 9 9 9 9 9 9 10 10 10 10 10 10
11 11 11 11 10 10 10 10 10 9 9 9 9 9 9 9 9 8 8 8 8 8 8 7 7 7 8 7 7 7 8 8 8 9 9 9 9 9 9 9 9 9 9
11 11 10 10 10 10 10 9 9 9 9 9 9 9 8 8 8 8 8 8 7 7 7 7 7 7 7 7 6 6 6 6 7 7 8 8 8 8 8 8 9 9 9
11 10 10 10 10 9 9 9 9 9 9 8 8 8 8 8 8 7 7 7 7 7 6 6 6 6 6 6 6 5 5 5 5 6 7 7 7 7 7 8 8 8 8
10 10 10 10 10 9 9 9 8 8 8 8 8 8 7 7 7 7 7 7 6 6 6 6 6 6 5 5 5 5 5 5 4 4 5 6 6 7 7 7 7 7 8
10 10 10 10 9 9 9 8 8 8 8 7 7 7 7 7 7 6 6 6 6 6 6 5 5 5 5 5 5 4 4 4 4 4 4 5 5 6 6 6 6 7 7
10 10 9 9 9 9 8 8 8 8 7 7 7 7 6 6 6 6 6 6 5 5 5 5 5 5 5 5 4 4 4 4 4 4 3 4 4 5 5 6 6 6 6

GEFSSE_850_meantemp_204.txt.gz
Temperature
16 16 16 16 16 16 16 16 17 17 17 17 17 17 17 17 17 17 17 17 17 17 17 17 16 16 16 16 16 16 16 16 16 16 16 16 15 15 15 15 15 15 15
15 16 16 16 16 16 16 16 16 16 16 17 17 17 17 16 16 17 17 17 17 17 16 16 16 16 16 16 16 16 16 16 16 16 15 15 15 15 15 15 15 14 15
15 15 16 16 16 16 16 16 16 16 16 16 16 16 16 16 16 16 16 17 16 16 16 16 16 16 16 16 16 16 16 16 16 15 15 14 15 15 15 15 15 15 15
15 15 15 16 16 16 16 16 16 16 16 16 16 16 16 16 16 16 16 16 16 16 16 16 16 16 16 16 16 16 16 16 16 15 15 14 14 15 15 15 15 15 14
15 15 15 16 16 16 16 16 16 16 16 16 16 16 16 16 16 16 16 16 16 16 16 16 16 16 16 16 16 15 16 16 15 15 14 14 14 14 15 15 14 14 14
15 15 15 15 15 16 16 16 16 16 16 16 16 16 16 16 16 16 16 16 16 16 16 15 15 15 15 15 15 15 15 15 15 14 14 14 14 14 14 14 14 14 14
14 15 15 15 15 15 15 15 15 16 16 16 16 16 15 16 16 16 16 16 16 15 15 15 15 15 15 15 15 15 15 15 15 14 14 14 14 14 14 14 14 14 14
14 14 15 15 15 15 15 15 15 15 15 15 15 15 15 15 15 15 15 15 15 15 15 15 15 15 15 15 15 15 15 15 14 14 14 14 14 14 14 14 14 14 14
14 14 14 15 15 15 15 15 15 15 15 15 15 15 15 15 15 15 15 15 15 15 15 15 15 15 15 15 15 15 15 14 14 14 14 14 14 14 14 14 14 14 13
14 14 14 14 14 14 14 14 14 14 14 14 14 14 14 14 14 14 14 14 14 14 14 14 14 14 14 14 14 14 14 14 14 14 14 13 14 13 13 13 13 13 13
14 14 14 14 14 14 14 14 14 14 14 14 14 14 14 14 14 14 14 14 14 14 14 14 14 14 14 14 14 14 14 14 13 13 13 13 13 13 13 13 13 13 13
14 14 14 13 13 13 13 13 14 14 14 14 14 14 14 14 14 14 14 14 14 14 14 14 14 14 13 13 13 13 13 13 13 13 13 13 13 13 13 13 13 13 13
13 13 13 13 13 13 13 13 13 13 13 13 13 13 13 13 13 13 13 13 13 13 13 13 13 13 13 13 13 13 13 13 13 13 13 13 13 13 13 13 13 13 12
13 13 13 13 13 13 13 13 13 13 13 13 13 13 13 13 13 13 12 12 12 12 13 12 12 12 12 12 12 12 12 12 12 12 12 12 12 12 12 12 12 12 12
13 13 13 13 12 12 12 12 12 12 12 12 12 12 12 12 12 12 12 12 12 12 12 12 12 12 12 12 12 12 12 12 12 11 12 12 12 12 12 12 12 12 12
12 12 12 12 12 12 12 12 12 12 12 12 12 12 12 12 12 11 11 11 11 11 11 11 11 11 11 11 11 11 11 11 11 11 11 11 11 11 11 11 11 11 11
12 12 12 12 12 12 12 12 11 11 11 11 11 11 11 11 11 11 11 11 10 10 10 10 10 10 10 10 10 10 10 10 10 10 10 10 10 11 11 11 11 11 11
12 12 12 12 11 11 11 11 11 11 11 11 11 11 11 11 10 10 10 10 10 10 10 10 9 9 9 9 9 9 9 10 10 10 10 10 10 10 10 10 10 10 10
12 12 12 11 11 11 11 11 11 11 10 10 10 10 10 10 10 10 10 9 9 9 9 9 8 8 8 8 8 8 8 9 9 9 9 9 9 9 9 9 9 9 9
11 11 11 11 11 11 10 10 10 10 10 10 10 10 10 10 9 9 9 9 9 8 8 8 8 8 8 7 7 7 8 8 8 8 8 8 8 8 8 8 8 8 9
11 11 11 11 11 10 10 10 10 10 10 9 9 9 9 9 9 9 9 8 8 8 8 7 7 7 7 7 7 7 7 7 7 7 7 7 7 8 8 8 8 8 8
11 11 11 10 10 10 10 10 10 9 9 9 9 9 9 9 8 8 8 8 8 7 7 7 7 7 6 6 6 6 6 7 7 7 7 7 7 7 7 7 7 7 7
11 11 11 10 10 10 10 9 9 9 9 9 9 9 8 8 8 8 8 8 7 7 7 7 6 6 6 6 5 5 5 6 6 6 6 6 6 6 6 6 6 6 6
11 11 10 10 10 9 9 9 9 9 8 8 8 8 8 8 8 7 7 7 7 7 6 6 6 6 5 5 5 5 5 5 5 5 5 6 6 6 6 6 6 6 6
10 10 10 10 9 9 9 9 9 8 8 8 8 8 7 7 7 7 7 7 6 6 6 6 6 5 5 5 4 4 4 4 4 4 5 5 5 5 5 5 5 5 5
10 10 10 9 9 9 9 8 8 8 8 8 7 7 7 7 7 7 6 6 6 6 5 5 5 5 5 4 4 4 4 4 4 4 4 4 4 5 5 4 4 5 5

GEFSSE_850_meantemp_210.txt.gz
Temperature
17 17 17 17 17 17 17 17 17 17 17 17 17 17 17 17 17 17 17 17 17 17 16 16 16 16 17 16 16 16 16 16 16 16 16 16 16 16 16 15 15 15 15
17 17 17 17 17 17 17 17 17 17 17 17 17 17 17 17 17 16 16 16 16 16 16 16 16 16 16 16 16 16 16 16 16 16 15 15 15 16 16 15 15 15 15
16 17 17 16 17 17 17 17 17 17 16 16 16 16 16 16 16 16 16 16 16 16 16 16 16 16 16 16 16 16 16 16 16 15 15 15 15 15 15 15 15 15 15
16 16 16 16 16 16 16 16 16 16 16 16 16 16 16 16 16 16 16 16 16 16 16 16 16 16 16 16 16 16 16 16 15 15 15 15 15 15 15 15 15 15 15
15 16 16 16 16 16 16 16 16 16 16 16 16 16 16 16 16 16 16 16 16 16 16 16 16 16 16 16 16 16 16 15 15 15 15 15 15 15 15 15 15 15 15
15 16 16 16 16 16 16 16 16 16 16 16 16 16 16 16 16 16 16 16 16 16 16 16 16 15 15 15 15 15 15 15 15 15 15 15 14 15 15 15 15 15 14
15 15 16 16 16 16 16 16 16 16 16 16 16 16 16 16 16 16 16 16 15 15 15 15 15 15 15 15 15 15 15 15 15 14 14 14 14 14 14 14 14 14 14
15 15 15 15 15 15 15 16 16 16 16 16 15 15 15 15 15 15 15 15 15 15 15 15 15 15 15 15 15 15 15 15 14 14 14 14 14 14 14 14 14 14 14
15 15 15 15 15 15 15 15 15 15 15 15 15 15 15 15 15 15 15 15 15 15 15 15 15 15 15 15 15 15 14 14 14 14 14 14 14 14 14 14 14 14 14
14 14 14 15 15 15 15 15 15 15 15 15 15 15 15 14 14 14 14 14 14 14 14 14 14 14 14 14 14 14 14 14 14 14 13 13 14 14 14 14 14 14 13
14 14 14 14 14 15 15 15 15 15 15 14 14 14 14 14 14 14 14 14 14 14 14 14 14 14 14 14 14 14 14 14 13 13 13 13 13 13 13 13 13 13 13
14 14 14 14 14 14 14 14 14 14 14 14 14 14 14 14 14 14 14 14 14 14 14 14 13 13 13 13 13 13 13 13 13 13 13 13 13 13 13 13 13 13 13
14 14 14 14 14 14 14 14 14 14 14 14 13 13 13 13 13 13 13 13 13 13 13 13 13 13 13 13 13 13 13 13 13 13 13 13 13 13 12 12 13 13 13
14 14 14 14 14 14 13 13 13 13 13 13 13 13 13 13 13 13 13 13 13 13 13 12 12 12 12 12 12 12 12 12 12 12 12 12 12 12 12 12 12 12 12
13 13 13 13 13 13 13 13 13 13 13 13 13 13 13 13 12 12 12 12 12 12 12 12 12 12 12 12 12 12 12 12 12 12 12 12 12 12 11 11 11 11 11
13 13 13 13 13 13 13 13 12 12 12 12 12 12 12 12 12 12 12 12 12 12 11 11 11 11 11 11 11 11 11 11 11 11 11 11 11 11 11 11 11 11 11
13 13 13 13 13 13 12 12 12 12 12 12 12 12 12 12 12 11 11 11 11 11 11 11 11 11 10 10 10 10 10 10 10 10 10 10 10 10 10 10 10 10 10
13 13 13 13 12 12 12 12 12 12 12 12 12 12 12 11 11 11 11 11 11 11 11 10 10 10 10 10 10 10 10 10 10 10 10 10 10 10 10 9 9 9 9
13 13 12 12 12 12 12 12 11 11 11 11 11 11 11 11 11 11 11 10 10 10 10 10 9 9 9 9 9 9 9 9 9 9 9 9 9 9 9 9 9 9 9
13 12 12 12 12 12 11 11 11 11 11 11 11 11 10 10 10 10 10 10 10 10 9 9 9 9 8 8 8 8 8 8 8 8 8 8 8 8 8 8 8 8 8
12 12 12 12 11 11 11 11 11 11 10 10 10 10 10 10 10 10 10 9 9 9 9 9 8 8 8 8 8 7 8 8 8 8 8 8 7 7 8 7 7 7 7
12 12 12 11 11 11 11 11 10 10 10 10 10 10 10 9 9 9 9 9 9 9 9 8 8 8 7 7 7 6 6 6 7 7 7 7 7 7 7 7 7 7 7
12 11 11 11 11 11 10 10 10 10 9 9 9 9 9 9 9 9 8 8 8 8 8 8 7 7 7 7 6 6 5 5 5 6 6 6 6 6 6 6 6 6 6
11 11 11 11 10 10 10 10 10 9 9 9 9 9 9 8 8 8 8 8 8 7 7 7 7 6 6 6 6 5 5 5 5 5 5 5 5 5 6 6 6 6 6
11 10 10 10 10 10 10 10 9 9 9 9 8 8 8 8 8 8 8 7 7 7 7 7 6 6 6 5 5 5 5 5 4 4 4 5 5 5 5 5 5 5 5
10 10 10 9 9 9 9 9 9 9 8 8 8 8 8 8 8 7 7 7 7 6 6 6 6 6 5 5 5 5 4 4 4 4 4 4 4 4 5 5 5 5 5

GEFSSE_850_meantemp_216.txt.gz
Temperature
16 16 16 17 17 17 17 17 17 17 17 17 17 17 17 17 17 17 17 16 17 17 17 17 16 16 16 16 16 16 16 16 16 16 16 15 15 15 15 15 15 15 15
16 16 16 16 17 17 17 17 17 17 17 17 17 17 17 17 17 16 16 16 16 16 16 16 16 16 16 16 16 16 16 16 16 15 15 15 15 15 15 15 15 15 15
16 16 16 16 17 17 17 17 17 17 17 17 17 17 17 16 16 16 16 16 16 16 16 16 16 16 16 16 16 16 16 16 15 15 15 15 15 15 15 15 15 15 15
16 16 16 16 17 17 17 17 17 16 16 16 16 16 16 16 16 16 16 16 16 16 16 16 16 16 16 16 16 15 15 15 15 15 15 15 15 15 15 15 15 14 14
16 16 16 16 16 16 16 16 16 16 16 16 16 16 16 16 16 16 16 16 16 16 16 16 16 16 16 15 15 15 15 15 15 15 15 15 14 14 14 14 14 14 14
16 16 16 16 16 16 16 16 16 16 16 16 16 16 16 16 16 16 16 16 16 15 15 15 15 15 15 15 15 15 15 15 15 15 14 14 14 14 14 14 14 14 14
16 16 16 16 16 16 16 16 16 16 16 16 16 16 16 16 16 16 16 15 15 15 15 15 15 15 15 15 15 15 15 14 14 14 14 14 14 14 14 14 14 14 14
16 16 16 16 16 16 16 16 16 16 16 16 16 16 16 16 16 16 15 15 15 15 15 15 15 15 15 15 15 15 14 14 14 14 14 14 14 14 14 14 14 14 14
15 15 15 15 15 15 16 16 16 16 16 15 15 15 15 15 15 15 15 15 15 15 15 15 15 15 15 15 14 14 14 14 14 14 14 13 13 13 13 13 13 13 13
15 15 15 15 15 15 15 15 15 15 15 15 15 15 15 15 15 15 15 15 15 15 14 14 14 14 14 14 14 14 14 14 14 13 13 13 13 13 13 13 13 13 13
14 15 15 15 15 15 15 15 15 15 15 15 15 15 15 15 15 15 15 14 14 14 14 14 14 14 14 13 13 13 13 13 13 13 13 13 13 13 12 12 12 12 12
14 14 14 15 15 15 15 15 15 15 15 15 15 15 14 14 14 14 14 14 14 14 14 14 13 13 13 13 13 13 13 13 13 13 13 13 13 12 12 12 12 12 12
15 14 14 14 14 14 15 15 15 15 15 14 14 14 14 14 14 14 14 14 14 13 13 13 13 13 13 13 13 13 13 12 12 12 12 12 12 12 11 11 11 11 11
14 14 14 14 14 14 14 14 14 14 14 14 14 14 14 14 14 14 13 13 13 13 13 13 13 13 12 12 12 12 12 12 12 12 12 12 11 11 11 11 11 11 11
14 14 14 14 14 14 14 14 14 14 14 14 14 14 13 13 13 13 13 13 13 13 12 12 12 12 12 12 12 12 12 12 12 11 11 11 11 11 10 10 10 10 10
14 14 14 14 14 14 14 14 14 13 13 13 13 13 13 13 13 13 13 12 12 12 12 12 12 12 12 12 12 12 11 11 11 11 11 10 10 10 10 9 9 9 9
14 14 13 13 13 13 13 13 13 13 13 13 13 13 13 12 12 12 12 12 12 12 12 11 11 11 11 11 11 11 11 11 11 10 10 10 10 9 9 9 9 9 9
14 13 13 13 13 13 13 13 13 13 13 12 12 12 12 12 12 12 12 12 11 11 11 11 11 11 11 11 11 11 10 10 10 10 9 9 9 9 9 8 8 8 8
14 13 13 13 13 13 13 13 12 12 12 12 12 12 12 12 12 11 11 11 11 11 11 11 11 10 10 10 10 10 10 10 9 9 9 9 8 8 8 8 8 8 7
14 13 13 13 13 12 12 12 12 12 12 11 11 11 11 11 11 11 11 11 10 10 10 10 10 10 10 10 10 9 9 9 9 8 8 8 8 8 7 7 7 7 7
13 13 13 12 12 12 12 12 12 12 11 11 11 11 11 11 10 10 10 10 10 10 10 10 9 9 9 9 9 9 8 8 8 8 7 7 7 7 7 7 7 6 6
13 13 12 12 12 12 12 12 12 11 11 11 11 10 10 10 10 10 10 10 9 9 9 9 9 8 8 8 7 7 7 7 7 7 7 7 6 6 6 6 6 6 6
13 13 12 12 12 12 11 11 11 11 10 10 10 10 10 10 9 9 9 9 9 9 9 8 8 8 7 7 7 6 5 5 5 6 6 6 6 6 6 6 6 5 5
12 12 12 12 11 11 11 11 11 11 10 10 10 10 9 9 9 9 9 8 8 8 8 8 7 7 7 6 6 6 5 5 4 4 5 5 5 5 5 5 5 5 5
12 12 12 11 11 11 11 11 10 10 10 10 10 9 9 9 9 8 8 8 8 7 7 7 7 6 6 6 5 5 5 5 4 3 3 4 5 5 5 5 5 5 4
12 11 11 11 11 11 10 10 10 10 10 9 9 9 9 8 8 8 8 7 7 7 7 6 6 6 6 5 5 5 4 4 4 3 3 3 4 4 4 5 4 4 4

GEFSSE_850_meantemp_222.txt.gz
Temperature
17 16 16 16 17 17 17 17 17 17 17 17 17 17 17 17 17 16 16 16 16 16 16 16 16 16 16 16 16 16 16 15 15 15 15 15 15 15 15 15 15 15 15
17 16 16 16 17 17 17 17 17 17 17 17 17 17 17 16 16 16 16 16 16 16 16 16 16 16 16 16 16 16 16 15 15 15 15 15 15 15 15 15 15 14 15
17 16 16 16 16 17 17 17 17 17 17 17 16 16 16 16 16 16 16 16 16 16 16 16 16 16 16 16 16 16 15 15 15 15 15 15 15 14 14 14 14 14 14
16 16 16 16 16 16 16 16 16 16 16 16 16 16 16 16 16 16 16 16 16 16 16 16 16 16 16 16 15 15 15 15 15 15 15 15 15 14 14 14 14 14 14
16 16 16 16 16 16 16 16 16 16 16 16 16 16 16 16 16 15 15 15 16 16 16 15 15 15 15 15 15 15 15 15 15 15 15 14 14 14 14 14 14 14 14
16 16 16 16 16 16 16 16 16 16 16 16 16 16 16 16 15 15 15 15 15 15 15 15 15 15 15 15 15 15 15 15 15 15 14 14 14 14 14 14 14 14 13
16 15 16 15 16 16 16 16 16 16 16 16 16 16 15 15 15 15 15 15 15 15 15 15 15 15 15 15 15 15 15 14 14 14 14 14 14 14 13 13 13 13 13
15 15 15 15 15 15 15 15 15 15 15 15 15 15 15 15 15 15 15 15 15 15 15 15 15 15 15 15 14 14 14 14 14 14 14 14 13 13 13 13 13 13 13
15 15 15 15 15 15 15 15 15 15 15 15 15 15 15 15 15 15 15 15 15 15 15 15 15 14 14 14 14 14 14 14 14 14 14 13 13 13 13 13 13 13 13
15 15 15 15 15 15 15 15 15 15 15 15 15 15 15 15 15 15 15 15 15 14 14 14 14 14 14 14 14 13 13 13 13 13 13 13 13 13 12 12 12 12 12
14 14 15 15 15 15 15 15 15 15 15 15 15 15 15 15 15 15 15 14 14 14 14 14 14 14 13 13 13 13 13 13 13 13 13 13 12 12 12 12 12 12 12
14 14 14 14 15 15 15 15 15 15 15 15 15 15 15 15 14 14 14 14 14 14 14 14 13 13 13 13 13 13 13 13 13 13 12 12 12 12 12 12 11 11 11
14 14 14 14 14 14 14 14 14 14 14 14 14 14 14 14 14 14 14 14 14 13 13 13 13 13 13 13 13 13 12 12 12 12 12 12 12 11 11 11 11 11 11
14 14 14 14 14 14 14 14 14 14 14 14 14 14 14 14 14 13 13 13 13 13 13 13 13 13 12 12 12 12 12 12 12 12 12 11 11 11 11 11 10 10 10
14 14 14 14 14 14 14 14 14 14 14 14 14 13 13 13 13 13 13 13 13 13 13 12 12 12 12 12 12 12 12 12 11 11 11 11 11 10 10 10 10 10 10
14 14 14 14 14 13 13 13 13 13 13 13 13 13 13 13 13 13 13 13 13 12 12 12 12 12 12 12 12 12 11 11 11 11 10 10 10 10 10 10 9 9 9
14 14 13 13 13 13 13 13 13 13 13 13 13 13 13 12 12 12 12 12 12 12 12 12 12 11 11 11 11 11 11 11 10 10 10 10 9 9 9 9 9 9 8
14 13 13 13 13 13 13 13 13 13 12 12 12 12 12 12 12 12 12 12 12 12 11 11 11 11 11 11 11 11 10 10 10 10 9 9 9 9 9 8 8 8 8
14 13 13 13 13 13 13 12 12 12 12 12 12 12 12 12 12 12 11 11 11 11 11 11 11 11 11 10 10 10 10 10 9 9 9 8 8 8 8 8 8 8 7
13 13 13 13 12 12 12 12 12 12 11 11 11 11 11 11 11 11 11 11 11 11 11 10 10 10 10 10 10 10 9 9 9 9 8 8 8 8 7 7 7 7 7
13 13 13 12 12 12 12 12 12 12 11 11 11 11 11 11 11 10 10 10 10 10 10 10 10 10 10 9 9 9 9 9 8 8 8 7 7 7 7 7 7 6 6
13 13 12 12 12 12 12 12 12 11 11 11 11 10 10 10 10 10 10 10 10 10 10 9 9 9 9 8 8 7 7 7 7 7 7 7 7 7 6 6 6 6 6
12 12 12 12 12 12 12 11 11 11 11 10 10 10 10 10 10 10 10 9 9 9 9 9 8 8 8 7 7 6 6 6 6 6 6 6 6 6 6 6 6 5 5
12 12 12 12 12 12 11 11 11 11 11 11 10 10 10 9 9 9 9 9 9 9 8 8 8 7 7 7 6 6 5 5 4 5 6 6 6 6 5 5 5 5 5
12 12 12 12 11 11 11 11 11 11 11 10 10 10 9 9 9 9 9 8 8 8 8 7 7 7 6 6 6 5 5 5 4 4 4 5 5 5 5 5 5 4 4
12 12 11 11 11 11 11 11 11 10 10 10 10 9 9 9 9 8 8 8 8 7 7 7 6 6 6 6 5 5 5 4 4 3 3 3 4 5 5 4 4 4 4

GEFSSE_850_meantemp_228.txt.gz
Temperature
17 17 17 17 17 17 17 17 17 17 17 17 17 17 17 17 17 16 16 16 16 16 16 16 16 16 16 16 16 16 16 16 16 16 16 15 15 15 15 15 15 15 15
17 17 17 17 17 17 17 17 17 17 17 17 17 17 17 16 16 16 16 16 16 16 16 16 16 16 16 16 16 16 16 16 16 16 15 15 15 15 15 15 15 15 15
16 16 17 17 17 17 17 17 17 17 17 16 16 16 16 16 16 16 16 16 16 16 16 16 16 16 16 16 16 16 16 16 15 15 15 14 14 15 15 15 15 15 15
16 16 16 16 16 16 16 17 17 16 16 16 16 16 16 16 16 16 16 16 16 16 16 16 16 16 15 15 15 15 15 15 15 15 14 14 14 14 14 14 14 14 14
16 16 16 16 16 16 16 16 16 16 16 16 16 16 16 16 16 16 16 16 15 15 15 15 15 15 15 15 15 15 15 15 15 14 14 14 14 14 14 14 14 14 14
15 15 16 16 16 16 16 16 16 16 16 16 16 16 16 16 16 16 16 15 15 15 15 15 15 15 15 15 15 15 15 15 14 14 14 14 14 14 14 14 14 14 14
15 15 16 16 16 16 16 16 16 16 16 16 16 15 15 15 15 15 15 15 15 15 15 15 15 15 15 15 15 15 15 15 14 14 14 14 14 14 13 13 13 13 13
15 15 15 15 16 16 16 16 16 15 15 15 15 15 15 15 15 15 15 15 15 15 15 15 15 15 15 15 14 14 14 14 14 13 13 13 13 13 13 13 13 13 13
15 15 15 15 15 15 15 15 15 15 15 15 15 15 15 15 15 15 15 15 15 15 15 15 15 14 14 14 14 14 14 14 13 13 13 13 13 13 12 12 12 12 12
15 15 15 15 15 15 15 15 15 15 15 15 15 15 15 15 15 15 15 15 14 14 14 14 14 14 14 14 14 14 14 13 13 13 12 12 13 12 12 12 12 12 12
15 14 14 14 14 14 14 14 15 15 15 15 15 15 15 14 14 14 14 14 14 14 14 14 14 14 14 14 13 13 13 13 12 12 12 12 12 12 12 12 12 11 11
14 14 14 14 14 14 14 14 14 14 14 14 14 14 14 14 14 14 14 14 14 14 14 13 13 13 13 13 13 13 13 13 12 12 12 12 12 12 11 11 11 11 11
14 14 14 14 14 14 14 14 14 14 14 14 14 14 14 14 14 14 14 13 13 13 13 13 13 13 13 13 13 13 12 12 12 12 12 12 12 11 11 11 11 11 11
14 14 14 14 14 14 14 14 14 14 14 14 14 14 14 14 14 13 13 13 13 13 13 13 13 13 13 12 12 12 12 12 12 11 11 11 11 11 11 10 10 10 10
14 14 14 14 14 14 14 14 14 14 14 14 14 14 14 13 13 13 13 13 13 13 13 12 12 12 12 12 12 12 12 11 11 11 11 11 11 11 10 10 10 10 10
14 14 14 13 13 14 13 13 13 13 13 13 13 13 13 13 13 13 13 13 12 12 12 12 12 12 12 12 12 12 11 11 11 11 10 10 10 10 10 10 10 9 9
13 13 13 13 13 13 13 13 13 13 13 13 13 13 13 13 13 13 12 12 12 12 12 12 12 12 12 11 11 11 11 11 11 10 10 10 9 9 9 9 9 9 8
13 13 13 13 13 13 13 13 12 13 13 13 13 12 12 12 12 12 12 12 12 12 12 11 11 11 11 11 11 11 10 10 10 10 9 9 9 9 9 9 9 8 8
13 13 13 13 12 12 12 12 12 12 12 12 12 12 12 12 12 12 12 12 11 11 11 11 11 11 11 11 10 10 10 10 9 9 9 8 8 8 8 8 8 8 8
13 13 12 12 12 12 12 12 12 12 12 12 12 12 12 12 12 11 11 11 11 11 11 11 11 10 10 10 10 10 9 9 9 8 8 8 8 8 7 7 7 7 7
12 12 12 12 12 12 12 12 11 11 11 11 11 11 11 11 11 11 11 11 11 11 10 10 10 10 10 9 9 8 8 8 8 8 7 7 7 7 7 7 7 6 6
12 12 12 12 12 12 12 12 12 11 11 11 11 11 11 11 11 11 10 10 10 10 10 10 10 9 9 8 7 7 7 7 7 7 7 7 7 7 6 6 6 6 6
12 12 12 12 12 12 11 11 11 11 11 11 11 11 10 10 10 10 10 10 10 10 9 9 9 9 8 8 7 6 6 7 6 7 7 6 6 6 6 6 6 6 5
12 12 12 11 12 11 11 11 11 11 11 11 11 10 10 10 10 10 10 9 9 9 9 9 8 8 7 7 7 6 6 6 5 5 6 6 6 6 5 5 5 5 5
11 11 11 11 11 11 11 11 11 11 11 11 10 10 10 10 9 9 9 9 9 9 8 8 8 7 7 7 6 6 6 5 5 4 5 5 5 5 5 5 5 5 5
11 11 11 11 11 11 11 11 11 11 10 10 10 10 10 9 9 9 9 8 8 8 8 8 7 7 7 6 6 6 5 5 4 4 4 4 4 5 5 4 4 4 4

GEFSSE_850_meantemp_234.txt.gz
Temperature
18 18 18 18 18 18 18 17 17 17 17 17 17 16 16 16 16 16 16 16 16 16 16 16 16 16 16 16 16 16 16 16 16 15 15 15 15 15 15 15 15 15 15
18 18 18 18 18 18 17 17 17 17 17 17 17 16 16 16 16 16 16 16 16 16 16 16 16 16 16 16 16 16 16 15 15 15 15 15 15 15 15 15 15 15 15
18 18 18 18 17 17 17 17 17 17 17 17 16 16 16 16 16 16 16 16 16 16 16 16 16 16 16 16 16 16 15 15 15 15 15 15 15 15 15 15 15 15 15
17 17 17 17 17 17 17 17 17 17 17 16 16 16 16 16 16 16 16 16 16 16 16 16 16 16 16 16 15 15 15 15 14 14 15 15 15 15 15 15 15 15 15
17 17 17 17 17 17 17 17 17 16 16 16 16 16 16 16 16 16 15 15 15 15 15 15 15 15 15 15 15 15 15 14 14 14 14 15 15 15 15 15 15 14 14
16 17 17 17 17 17 17 16 16 16 16 16 16 16 16 16 16 15 15 15 15 15 15 15 15 15 15 15 15 15 15 14 14 14 14 14 14 14 14 14 14 14 14
16 16 16 16 16 16 16 16 16 16 16 16 16 16 16 15 15 15 15 15 15 15 15 15 15 15 15 15 15 14 14 14 14 14 14 14 14 14 14 13 13 13 13
16 16 16 16 16 16 16 16 16 16 16 16 15 15 15 15 15 15 15 15 15 15 15 15 15 14 14 14 14 14 14 14 14 14 14 13 13 13 13 13 13 13 13
15 16 16 16 16 16 16 16 16 16 15 15 15 15 15 15 15 15 15 15 15 15 14 14 14 14 14 14 14 14 13 13 13 13 13 13 13 13 13 13 13 12 12
15 15 15 15 15 15 15 15 15 15 15 15 15 15 15 15 15 15 15 15 14 14 14 14 14 14 14 14 14 13 13 13 13 13 13 13 12 13 12 12 12 12 12
15 15 15 15 15 15 15 15 15 15 15 15 15 15 15 15 15 14 14 14 14 14 14 14 14 14 14 14 13 13 13 13 13 13 12 12 12 12 12 12 12 12 11
14 14 14 14 15 15 15 15 15 15 15 14 14 14 14 14 14 14 14 14 14 14 14 14 14 13 13 13 13 13 13 13 13 12 12 12 12 12 11 11 11 11 11
14 14 14 14 14 14 14 14 14 14 14 14 14 14 14 14 14 14 14 14 14 14 13 13 13 13 13 13 13 13 13 12 12 12 12 12 12 11 11 11 11 11 10
14 14 14 14 14 14 14 14 14 14 14 14 14 14 14 14 14 14 14 13 13 13 13 13 13 13 13 13 12 12 12 12 12 12 12 11 11 11 11 10 10 10 10
14 14 14 14 14 14 14 14 14 14 14 14 14 14 14 14 14 13 13 13 13 13 13 13 12 12 12 12 12 12 12 12 12 11 11 11 11 10 10 10 10 9 9
14 14 14 14 14 14 14 14 14 14 14 14 13 13 13 13 13 13 13 13 13 13 12 12 12 12 12 12 12 12 12 12 11 11 11 11 10 10 10 9 9 9 9
14 14 14 14 13 13 13 13 13 13 13 13 13 13 13 13 13 13 13 13 12 12 12 12 12 12 12 12 12 12 11 11 11 11 10 10 10 9 9 9 9 8 8
14 14 14 13 13 13 13 13 13 13 13 13 13 13 13 13 13 13 13 12 12 12 12 12 12 12 12 11 11 11 11 11 11 10 10 9 9 9 9 9 8 8 8
13 13 13 13 13 13 13 13 13 13 13 13 13 13 13 13 13 13 12 12 12 12 12 12 11 11 11 11 11 11 11 10 10 10 9 9 9 8 8 8 8 8 7
13 13 13 13 13 13 12 12 12 12 12 12 12 12 12 12 12 12 12 12 12 12 12 11 11 11 11 10 10 10 10 10 10 9 9 8 8 8 8 7 7 7 7
13 13 13 12 12 12 12 12 12 12 12 12 12 12 12 12 12 12 12 12 11 11 11 11 11 11 10 10 10 10 10 9 9 9 8 8 8 7 7 7 7 7 7
12 12 12 12 12 12 12 12 12 12 12 12 12 12 12 12 12 12 11 11 11 11 11 10 10 10 10 9 8 8 8 8 8 8 8 7 7 7 7 6 6 6 6
12 12 12 12 12 12 12 12 11 11 11 11 11 11 11 11 11 11 11 11 11 11 10 10 10 9 9 9 8 7 6 6 6 7 7 7 6 6 6 6 6 6 6
12 12 12 12 12 12 11 11 12 12 11 11 11 11 11 11 11 11 11 10 10 10 10 9 9 9 8 8 8 7 6 6 6 6 6 6 6 6 6 6 6 5 5
11 11 11 11 11 11 11 11 11 11 11 11 11 11 11 11 10 10 10 10 10 10 9 9 9 8 8 8 7 7 6 6 5 5 5 6 6 6 5 5 5 5 5
11 11 11 11 11 11 11 11 11 11 11 11 11 11 10 10 10 10 10 10 9 9 9 8 8 8 8 7 7 6 6 5 5 4 4 5 5 5 5 5 5 5 4